Darstellungsparameter: Aktuell verwendete Einstellungen:
Skalierung der Graphiken ... ?
xyx+y,   Skalierungsfaktor:      Skalierung: Modus: x, Faktor: 1
Darstellungszeitraum ... ?
Vom - - bis: - -   Zeitraum: 03.02.2019 - 02.02.2020
Min/Max/Avg-Anzeige ... ?
Zeige MMA aktuell
Zeige MMA Monat
Zeige MMA alles
Zeige --A aktuell
Zeige --A Monat
Zeige --A alles
Keine MMA-Anzeige
MMA:
Keine MMA-Graphiken
MMA-Basis: 03.02.2019 - 02.02.2020
Quicknavigation für Darstellung... ?
Tage:      1T, 2T, 3T, 5T -1T -2T -3T -5T +1T +2T +3T +5T
Wochen: 1W, 2W, 3W -1W -2W -3W +1W +2W +3W
Monate: 1M, 3M, 6M -1M -3M -6M +1M +3M +6M
Jahre:    1J, 3J, 5J, 10J -1J -3J -5J -10J +1J +3J +5J +10J
Nutze für die Darstellung ... ?
Originaldaten oder ...
Mittelwerte Minima Maxima auf...
Stundenbasis Tagesbasis Wochenbasis
Monatsbasis Jahresbasis      Datenbasis: Mittelwerte auf Stundenbasis
Darstellen als:
Statistik (Auto) Statistik J:M      Darstellung:
Zur Graphik,    zurück zur Übersicht aller Sensoren.
 
Tabellarische Datenbersicht: ?
 
Sensor: Nr:Datum:Temp:Abs-Feuchte:Windchill:Wind:
Aussen-T/F 1 03-02-2019 00:00:00 1.875 C 5.32 g/m*3 0.44 C 5.225 km/h
2 03-02-2019 01:00:00 2.06667 C 5.36 g/m*3 -0.24 C 7.76667 km/h
3 03-02-2019 02:00:00 2.15833 C 5.3 g/m*3 -1.21 C 12.09167 km/h
4 03-02-2019 03:00:00 2.18333 C 5.23 g/m*3 -0.89 C 10.76667 km/h
5 03-02-2019 04:00:00 2.1 C 5.23 g/m*3 -0.52 C 8.86667 km/h
6 03-02-2019 05:00:00 2.18333 C 5.24 g/m*3 2.18 C 4 km/h
7 03-02-2019 06:00:00 2.19167 C 5.21 g/m*3 -0.02 C 7.50833 km/h
8 03-02-2019 07:00:00 1.9 C 5.13 g/m*3 -0.28 C 7.25833 km/h
9 03-02-2019 08:00:00 1.875 C 5.12 g/m*3 1.88 C 4.96667 km/h
10 03-02-2019 09:00:00 2.00833 C 5.18 g/m*3 2.01 C 2.54167 km/h
11 03-02-2019 10:00:00 2.46667 C 5.24 g/m*3 -0.01 C 8.59167 km/h
12 03-02-2019 11:00:00 3.10833 C 5.32 g/m*3 1.21 C 6.99167 km/h
13 03-02-2019 12:00:00 3.58333 C 5.3 g/m*3 0.8 C 10.75 km/h
14 03-02-2019 13:00:00 3.96667 C 5.29 g/m*3 0.91 C 12.5 km/h
15 03-02-2019 14:00:00 4.1 C 5.32 g/m*3 1.12 C 12.23333 km/h
16 03-02-2019 15:00:00 4.50833 C 5.05 g/m*3 1.82 C 11.16667 km/h
17 03-02-2019 16:00:00 4.43333 C 4.98 g/m*3 3.3 C 5.35 km/h
18 03-02-2019 17:00:00 4.26667 C 5.05 g/m*3 4.27 C 4.13333 km/h
19 03-02-2019 18:00:00 3.875 C 5.19 g/m*3 3.88 C 3.34167 km/h
20 03-02-2019 19:00:00 3.58333 C 5.25 g/m*3 3.58 C 2.13333 km/h
21 03-02-2019 20:00:00 3.19167 C 5.25 g/m*3 3.19 C 2.4 km/h
22 03-02-2019 21:00:00 1.925 C 4.92 g/m*3 1.93 C 1.46667 km/h
23 03-02-2019 22:00:00 0.99167 C 4.73 g/m*3 0.99 C 0 km/h
24 03-02-2019 23:00:00 0.25833 C 4.58 g/m*3 0.26 C 0.4 km/h
25 04-02-2019 00:00:00 -0.31667 C 4.44 g/m*3 -0.32 C 1.06667 km/h
Sensor: Nr:Datum:Temp:Abs-Feuchte:Windchill:Wind:
Aussen-T/F 26 04-02-2019 01:00:00 -0.05833 C 4.58 g/m*3 -0.06 C 1.73333 km/h
27 04-02-2019 02:00:00 0 C 4.57 g/m*3 0 C 1.73333 km/h
28 04-02-2019 03:00:00 -0.2 C 4.49 g/m*3 -2.81 C 7.50833 km/h
29 04-02-2019 04:00:00 -0.475 C 4.41 g/m*3 -0.48 C 0.4 km/h
30 04-02-2019 05:00:00 -0.03333 C 4.59 g/m*3 -0.03 C 0.4 km/h
31 04-02-2019 06:00:00 0.36667 C 4.72 g/m*3 0.37 C 0 km/h
32 04-02-2019 07:00:00 0.51667 C 4.77 g/m*3 0.52 C 0.26667 km/h
33 04-02-2019 08:00:00 0.7 C 4.8 g/m*3 0.7 C 0.26667 km/h
34 04-02-2019 09:00:00 0.60833 C 4.75 g/m*3 0.61 C 0.13333 km/h
35 04-02-2019 10:00:00 0.9 C 4.85 g/m*3 0.9 C 0 km/h
36 04-02-2019 11:00:00 2.04167 C 5.08 g/m*3 2.04 C 0 km/h
37 04-02-2019 12:00:00 3.75 C 5.12 g/m*3 3.75 C 4.425 km/h
38 04-02-2019 13:00:00 4.78333 C 4.86 g/m*3 2.8 C 8.325 km/h
39 04-02-2019 14:00:00 5.30833 C 4.75 g/m*3 3.94 C 6.43333 km/h
40 04-02-2019 15:00:00 5.325 C 4.63 g/m*3 5.33 C 4.55833 km/h
41 04-02-2019 16:00:00 5 C 4.88 g/m*3 5 C 1.6 km/h
42 04-02-2019 17:00:00 2.75 C 4.88 g/m*3 2.75 C 0.8 km/h
43 04-02-2019 18:00:00 1.4 C 4.67 g/m*3 1.4 C 3.6 km/h
44 04-02-2019 19:00:00 1.40833 C 4.78 g/m*3 1.41 C 1.6 km/h
45 04-02-2019 20:00:00 2.00833 C 4.87 g/m*3 2.01 C 1.475 km/h
46 04-02-2019 21:00:00 2.625 C 4.79 g/m*3 2.63 C 1.6 km/h
47 04-02-2019 22:00:00 2.85 C 4.88 g/m*3 2.85 C 0.66667 km/h
48 04-02-2019 23:00:00 2.71667 C 4.95 g/m*3 2.72 C 0.26667 km/h
49 05-02-2019 00:00:00 2.99167 C 4.91 g/m*3 2.99 C 1.33333 km/h
50 05-02-2019 01:00:00 3.31667 C 4.91 g/m*3 3.32 C 2.14167 km/h
Sensor: Nr:Datum:Temp:Abs-Feuchte:Windchill:Wind:
Aussen-T/F 51 05-02-2019 02:00:00 3.41667 C 4.85 g/m*3 3.42 C 3.46667 km/h
52 05-02-2019 03:00:00 3.6 C 4.82 g/m*3 3.6 C 1.06667 km/h
53 05-02-2019 04:00:00 3.44167 C 4.83 g/m*3 3.44 C 3.75 km/h
54 05-02-2019 05:00:00 3.65 C 4.76 g/m*3 2.36 C 5.49167 km/h
55 05-02-2019 06:00:00 3.39167 C 4.97 g/m*3 3.39 C 0.93333 km/h
56 05-02-2019 07:00:00 2.98333 C 5.04 g/m*3 2.98 C 0.13333 km/h
57 05-02-2019 08:00:00 2.98333 C 5.05 g/m*3 2.98 C 0.53333 km/h
58 05-02-2019 09:00:00 3.58333 C 4.97 g/m*3 2.23 C 5.61667 km/h
59 05-02-2019 10:00:00 4.175 C 5.02 g/m*3 2.68 C 6.28333 km/h
60 05-02-2019 11:00:00 5.00833 C 5.15 g/m*3 3.47 C 6.83333 km/h
61 05-02-2019 12:00:00 5.85833 C 5.37 g/m*3 4.49 C 6.70833 km/h
62 05-02-2019 13:00:00 6.30833 C 5.44 g/m*3 4.94 C 6.975 km/h
63 05-02-2019 14:00:00 6.73333 C 5.55 g/m*3 5.47 C 6.85833 km/h
64 05-02-2019 15:00:00 7.03333 C 5.71 g/m*3 7.03 C 4.8 km/h
65 05-02-2019 16:00:00 6.83333 C 5.86 g/m*3 6.83 C 2 km/h
66 05-02-2019 17:00:00 6.15833 C 6.08 g/m*3 6.16 C 0.4 km/h
67 05-02-2019 18:00:00 5.15833 C 5.92 g/m*3 5.16 C 0.26667 km/h
68 05-02-2019 19:00:00 4.75 C 5.85 g/m*3 4.75 C 0.53333 km/h
69 05-02-2019 20:00:00 4.35 C 5.74 g/m*3 4.35 C 0.93333 km/h
70 05-02-2019 21:00:00 4.10833 C 5.72 g/m*3 4.11 C 1.46667 km/h
71 05-02-2019 22:00:00 2.69167 C 5.22 g/m*3 2.69 C 4.66667 km/h
72 05-02-2019 23:00:00 1.725 C 5 g/m*3 1.73 C 2.66667 km/h
73 06-02-2019 00:00:00 0.43333 C 4.62 g/m*3 0.43 C 0 km/h
74 06-02-2019 01:00:00 -0.225 C 4.48 g/m*3 -0.23 C 0 km/h
75 06-02-2019 02:00:00 -0.675 C 4.37 g/m*3 -0.68 C 0 km/h
Sensor: Nr:Datum:Temp:Abs-Feuchte:Windchill:Wind:
Aussen-T/F 76 06-02-2019 03:00:00 -1.16667 C 4.24 g/m*3 -1.17 C 0 km/h
77 06-02-2019 04:00:00 -1.425 C 4.17 g/m*3 -1.43 C 0 km/h
78 06-02-2019 05:00:00 -1.59167 C 4.12 g/m*3 -1.59 C 0 km/h
79 06-02-2019 06:00:00 -1.76667 C 4.07 g/m*3 -1.77 C 0 km/h
80 06-02-2019 07:00:00 -1.975 C 4.01 g/m*3 -1.98 C 0.13333 km/h
81 06-02-2019 08:00:00 -2.21667 C 3.97 g/m*3 -2.22 C 0.13333 km/h
82 06-02-2019 09:00:00 -1.36667 C 4.23 g/m*3 -1.37 C 0 km/h
83 06-02-2019 10:00:00 0.10833 C 4.69 g/m*3 0.11 C 0.66667 km/h
84 06-02-2019 11:00:00 1.675 C 5.13 g/m*3 1.68 C 1.06667 km/h
85 06-02-2019 12:00:00 2.98333 C 5.41 g/m*3 2.98 C 0.4 km/h
86 06-02-2019 13:00:00 4.15 C 5.6 g/m*3 4.15 C 2.94167 km/h
87 06-02-2019 14:00:00 5.675 C 5.05 g/m*3 3.45 C 10.08333 km/h
88 06-02-2019 15:00:00 5.975 C 5.24 g/m*3 5.98 C 2.26667 km/h
89 06-02-2019 16:00:00 5.13333 C 5.35 g/m*3 5.13 C 1.86667 km/h
90 06-02-2019 17:00:00 3.79167 C 5.14 g/m*3 2.58 C 5.33333 km/h
91 06-02-2019 18:00:00 2.64167 C 4.99 g/m*3 2.64 C 2.66667 km/h
92 06-02-2019 19:00:00 2.14167 C 5.01 g/m*3 2.14 C 0 km/h
93 06-02-2019 20:00:00 1.91667 C 4.95 g/m*3 1.92 C 0 km/h
94 06-02-2019 21:00:00 1.53333 C 4.9 g/m*3 1.53 C 0 km/h
95 06-02-2019 22:00:00 1.21667 C 4.83 g/m*3 1.22 C 0 km/h
96 06-02-2019 23:00:00 1.26667 C 4.86 g/m*3 1.27 C 0 km/h
97 07-02-2019 00:00:00 0.90833 C 4.73 g/m*3 0.91 C 0 km/h
98 07-02-2019 01:00:00 1.20833 C 4.84 g/m*3 1.21 C 0 km/h
99 07-02-2019 02:00:00 1.44167 C 4.89 g/m*3 1.44 C 0 km/h
100 07-02-2019 03:00:00 1.73333 C 5 g/m*3 1.73 C 0.26667 km/h
Sensor: Nr:Datum:Temp:Abs-Feuchte:Windchill:Wind:
Aussen-T/F 101 07-02-2019 04:00:00 2.33333 C 5.14 g/m*3 2.33 C 0.4 km/h
102 07-02-2019 05:00:00 2.65833 C 5.29 g/m*3 2.66 C 4.01667 km/h
103 07-02-2019 06:00:00 3.00833 C 5.26 g/m*3 3.01 C 3.06667 km/h
104 07-02-2019 07:00:00 3.5 C 5.5 g/m*3 3.5 C 0.13333 km/h
105 07-02-2019 08:00:00 3.99167 C 5.87 g/m*3 3.99 C 0.93333 km/h
106 07-02-2019 09:00:00 4.53333 C 6.24 g/m*3 4.53 C 0.66667 km/h
107 07-02-2019 10:00:00 5.175 C 6.54 g/m*3 5.18 C 0 km/h
108 07-02-2019 11:00:00 5.675 C 6.8 g/m*3 5.68 C 3.475 km/h
109 07-02-2019 12:00:00 6.775 C 7.26 g/m*3 4.34 C 12.36667 km/h
110 07-02-2019 13:00:00 7.54167 C 7.3 g/m*3 4.77 C 15.83333 km/h
111 07-02-2019 14:00:00 8.09167 C 7.08 g/m*3 5.49 C 15.56667 km/h
112 07-02-2019 15:00:00 8.53333 C 6.92 g/m*3 5.95 C 16.23333 km/h
113 07-02-2019 16:00:00 8.59167 C 6.81 g/m*3 6.68 C 11.56667 km/h
114 07-02-2019 17:00:00 7.51667 C 6.58 g/m*3 7.52 C 4.41667 km/h
115 07-02-2019 18:00:00 6.6 C 6.33 g/m*3 5.87 C 5.075 km/h
116 07-02-2019 19:00:00 6.65 C 6.14 g/m*3 5.41 C 6.7 km/h
117 07-02-2019 20:00:00 6.28333 C 6.14 g/m*3 6.28 C 4.275 km/h
118 07-02-2019 21:00:00 6.9 C 6.33 g/m*3 4.86 C 10.35 km/h
119 07-02-2019 22:00:00 6.44167 C 6.14 g/m*3 4.82 C 8.05 km/h
120 07-02-2019 23:00:00 6.2 C 6.21 g/m*3 4.31 C 8.98333 km/h
121 08-02-2019 00:00:00 5.525 C 6.14 g/m*3 3.91 C 7.39167 km/h
122 08-02-2019 01:00:00 5.89167 C 6.23 g/m*3 4.58 C 6.55833 km/h
123 08-02-2019 02:00:00 5.8 C 6.22 g/m*3 3.71 C 9.53333 km/h
124 08-02-2019 03:00:00 5.75 C 6.25 g/m*3 4.62 C 5.9 km/h
125 08-02-2019 04:00:00 6.28333 C 6.38 g/m*3 4.26 C 9.69167 km/h
Sensor: Nr:Datum:Temp:Abs-Feuchte:Windchill:Wind:
Aussen-T/F 126 08-02-2019 05:00:00 6.4 C 6.41 g/m*3 5.2 C 6.44167 km/h
127 08-02-2019 06:00:00 6.325 C 6.43 g/m*3 6.33 C 2.95 km/h
128 08-02-2019 07:00:00 6.38333 C 6.46 g/m*3 5.39 C 5.75833 km/h
129 08-02-2019 08:00:00 6.675 C 6.52 g/m*3 5.48 C 6.56667 km/h
130 08-02-2019 09:00:00 7.05 C 6.65 g/m*3 7.05 C 4.41667 km/h
131 08-02-2019 10:00:00 7.425 C 6.78 g/m*3 6 C 7.925 km/h
132 08-02-2019 11:00:00 8.45 C 7.01 g/m*3 7.57 C 6.425 km/h
133 08-02-2019 12:00:00 9.44167 C 7.21 g/m*3 8.07 C 9.425 km/h
134 08-02-2019 13:00:00 9.21667 C 7.11 g/m*3 7.78 C 9.54167 km/h
135 08-02-2019 14:00:00 8.40833 C 6.94 g/m*3 6.98 C 8.75 km/h
136 08-02-2019 15:00:00 8.25 C 6.95 g/m*3 7.16 C 7.10833 km/h
137 08-02-2019 16:00:00 8.28333 C 6.97 g/m*3 7.73 C 5.225 km/h
138 08-02-2019 17:00:00 8.21667 C 6.87 g/m*3 7.66 C 5.225 km/h
139 08-02-2019 18:00:00 8.06667 C 6.84 g/m*3 8.07 C 4.675 km/h
140 08-02-2019 19:00:00 8.21667 C 6.79 g/m*3 7.7 C 5.1 km/h
141 08-02-2019 20:00:00 8.23333 C 6.74 g/m*3 7.64 C 5.35 km/h
142 08-02-2019 21:00:00 8.075 C 6.65 g/m*3 7.17 C 6.30833 km/h
143 08-02-2019 22:00:00 7.75833 C 6.57 g/m*3 7.76 C 3.34167 km/h
144 08-02-2019 23:00:00 8.1 C 6.59 g/m*3 7.24 C 6.16667 km/h
145 09-02-2019 00:00:00 8.29167 C 6.56 g/m*3 7.62 C 5.61667 km/h
146 09-02-2019 01:00:00 7.79167 C 6.64 g/m*3 7.79 C 3.2 km/h
147 09-02-2019 02:00:00 7.475 C 6.83 g/m*3 5.43 C 10.98333 km/h
148 09-02-2019 03:00:00 8.075 C 7 g/m*3 5.76 C 13.43333 km/h
149 09-02-2019 04:00:00 8.90833 C 7.19 g/m*3 5.58 C 24.525 km/h
150 09-02-2019 05:00:00 8.25833 C 7.03 g/m*3 5.89 C 14.09167 km/h
Sensor: Nr:Datum:Temp:Abs-Feuchte:Windchill:Wind:
Aussen-T/F 151 09-02-2019 06:00:00 7.8 C 6.76 g/m*3 5.57 C 12.5 km/h
152 09-02-2019 07:00:00 7.49167 C 6.85 g/m*3 4.8 C 15.16667 km/h
153 09-02-2019 08:00:00 7.225 C 6.79 g/m*3 4.7 C 13.56667 km/h
154 09-02-2019 09:00:00 7.73333 C 6.69 g/m*3 4.71 C 18.23333 km/h
155 09-02-2019 10:00:00 8.85 C 6.93 g/m*3 6.14 C 17.96667 km/h
156 09-02-2019 11:00:00 9.30833 C 6.98 g/m*3 6.89 C 16.36667 km/h
157 09-02-2019 12:00:00 9.975 C 6.93 g/m*3 7.69 C 16.63333 km/h
158 09-02-2019 13:00:00 10.73333 C 6.9 g/m*3 8.34 C 19.56667 km/h
159 09-02-2019 14:00:00 11.125 C 6.83 g/m*3 11.13 C 20.51667 km/h
160 09-02-2019 15:00:00 10.60833 C 6.68 g/m*3 8.6 C 15.56667 km/h
161 09-02-2019 16:00:00 10.06667 C 6.79 g/m*3 7.94 C 15.43333 km/h
162 09-02-2019 17:00:00 9.375 C 6.68 g/m*3 7.06 C 15.7 km/h
163 09-02-2019 18:00:00 8.54167 C 6.69 g/m*3 6.24 C 14.1 km/h
164 09-02-2019 19:00:00 7.86667 C 6.95 g/m*3 5.47 C 13.7 km/h
165 09-02-2019 20:00:00 7.25 C 6.75 g/m*3 5.47 C 9.4 km/h
166 09-02-2019 21:00:00 7.60833 C 6.93 g/m*3 5.07 C 14.23333 km/h
167 09-02-2019 22:00:00 8.15833 C 6.99 g/m*3 5.84 C 13.56667 km/h
168 09-02-2019 23:00:00 8.625 C 7.06 g/m*3 5.78 C 18.64167 km/h
169 10-02-2019 00:00:00 8.61667 C 7.05 g/m*3 6.89 C 10.48333 km/h
170 10-02-2019 01:00:00 7.85 C 6.87 g/m*3 7.85 C 2 km/h
171 10-02-2019 02:00:00 7.41667 C 6.74 g/m*3 7.42 C 2.26667 km/h
172 10-02-2019 03:00:00 7.60833 C 6.78 g/m*3 7.61 C 3.46667 km/h
173 10-02-2019 04:00:00 6.98333 C 7 g/m*3 6.98 C 3.86667 km/h
174 10-02-2019 05:00:00 6.95833 C 7.24 g/m*3 6.1 C 5.61667 km/h
175 10-02-2019 06:00:00 7.625 C 7.59 g/m*3 6.33 C 7.50833 km/h
Sensor: Nr:Datum:Temp:Abs-Feuchte:Windchill:Wind:
Aussen-T/F 176 10-02-2019 07:00:00 8.38333 C 7.91 g/m*3 6.84 C 9.26667 km/h
177 10-02-2019 08:00:00 8.79167 C 7.98 g/m*3 7.13 C 10.34167 km/h
178 10-02-2019 09:00:00 9.49167 C 8.1 g/m*3 7.61 C 12.625 km/h
179 10-02-2019 10:00:00 10.05833 C 8.36 g/m*3 7.74 C 17.175 km/h
180 10-02-2019 11:00:00 9.725 C 8.38 g/m*3 7.34 C 17.03333 km/h
181 10-02-2019 12:00:00 9.65833 C 8.43 g/m*3 7.31 C 16.5 km/h
182 10-02-2019 13:00:00 9.775 C 8.5 g/m*3 7.37 C 17.3 km/h
183 10-02-2019 14:00:00 9.45833 C 8.22 g/m*3 7.05 C 16.63333 km/h
184 10-02-2019 15:00:00 8.78333 C 7.53 g/m*3 5.67 C 21.7 km/h
185 10-02-2019 16:00:00 8.48333 C 7.41 g/m*3 5.54 C 19.3 km/h
186 10-02-2019 17:00:00 7.95 C 7.11 g/m*3 4.48 C 23.05833 km/h
187 10-02-2019 18:00:00 6.475 C 6.75 g/m*3 3.66 C 14.36667 km/h
188 10-02-2019 19:00:00 6.41667 C 6.58 g/m*3 3.32 C 16.23333 km/h
189 10-02-2019 20:00:00 6.68333 C 6.65 g/m*3 3.4 C 18.24167 km/h
190 10-02-2019 21:00:00 6.14167 C 6.49 g/m*3 2.93 C 16.63333 km/h
191 10-02-2019 22:00:00 6.14167 C 6.14 g/m*3 2.08 C 23.99167 km/h
192 10-02-2019 23:00:00 5.58333 C 6.03 g/m*3 1.58 C 21.975 km/h
193 11-02-2019 00:00:00 4.96667 C 6.03 g/m*3 1.3 C 17.83333 km/h
194 11-02-2019 01:00:00 4.3 C 5.99 g/m*3 1.31 C 12.5 km/h
195 11-02-2019 02:00:00 3.93333 C 5.9 g/m*3 1.31 C 10.34167 km/h
196 11-02-2019 03:00:00 3.8 C 5.86 g/m*3 1.5 C 8.85833 km/h
197 11-02-2019 04:00:00 3.60833 C 5.81 g/m*3 2.02 C 6.29167 km/h
198 11-02-2019 05:00:00 3.85 C 5.92 g/m*3 2.3 C 6.29167 km/h
199 11-02-2019 06:00:00 3.825 C 5.91 g/m*3 2.14 C 6.69167 km/h
200 11-02-2019 07:00:00 4.06667 C 5.92 g/m*3 2.06 C 7.93333 km/h
Sensor: Nr:Datum:Temp:Abs-Feuchte:Windchill:Wind:
Aussen-T/F 201 11-02-2019 08:00:00 4.09167 C 5.82 g/m*3 3.02 C 5.075 km/h
202 11-02-2019 09:00:00 4.20833 C 5.8 g/m*3 2.67 C 6.43333 km/h
203 11-02-2019 10:00:00 4.98333 C 5.86 g/m*3 2.71 C 9.675 km/h
204 11-02-2019 11:00:00 5.94167 C 5.93 g/m*3 3.41 C 11.95833 km/h
205 11-02-2019 12:00:00 6.61667 C 5.93 g/m*3 4.15 C 12.36667 km/h
206 11-02-2019 13:00:00 7.29167 C 5.88 g/m*3 4.57 C 15.03333 km/h
207 11-02-2019 14:00:00 7.35833 C 5.78 g/m*3 5.23 C 11.3 km/h
208 11-02-2019 15:00:00 7.35833 C 5.85 g/m*3 5.33 C 10.75833 km/h
209 11-02-2019 16:00:00 6.90833 C 6.08 g/m*3 4.79 C 10.74167 km/h
210 11-02-2019 17:00:00 6.2 C 6.16 g/m*3 4.85 C 6.83333 km/h
211 11-02-2019 18:00:00 5.73333 C 5.66 g/m*3 3.76 C 8.99167 km/h
212 11-02-2019 19:00:00 4.83333 C 5.69 g/m*3 3.61 C 5.75833 km/h
213 11-02-2019 20:00:00 4.15833 C 5.62 g/m*3 4.16 C 3.875 km/h
214 11-02-2019 21:00:00 3.45 C 5.43 g/m*3 3.45 C 3.6 km/h
215 11-02-2019 22:00:00 2.76667 C 5.27 g/m*3 2.77 C 2.26667 km/h
216 11-02-2019 23:00:00 2.56667 C 5.29 g/m*3 2.57 C 1.46667 km/h
217 12-02-2019 00:00:00 3.125 C 5.39 g/m*3 3.13 C 2.66667 km/h
218 12-02-2019 01:00:00 3.05833 C 5.36 g/m*3 3.06 C 0.66667 km/h
219 12-02-2019 02:00:00 2.8 C 5.33 g/m*3 2.8 C 2.4 km/h
220 12-02-2019 03:00:00 2.63333 C 5.26 g/m*3 2.63 C 3.33333 km/h
221 12-02-2019 04:00:00 2.48333 C 5.24 g/m*3 2.48 C 3.06667 km/h
222 12-02-2019 05:00:00 2.63333 C 5.25 g/m*3 2.63 C 3.20833 km/h
223 12-02-2019 06:00:00 2.4 C 5.14 g/m*3 0.88 C 5.61667 km/h
224 12-02-2019 07:00:00 2.41667 C 5.14 g/m*3 0.8 C 5.875 km/h
225 12-02-2019 08:00:00 2.275 C 5.1 g/m*3 0.84 C 5.35 km/h
Sensor: Nr:Datum:Temp:Abs-Feuchte:Windchill:Wind:
Aussen-T/F 226 12-02-2019 09:00:00 2.98333 C 5.27 g/m*3 1.55 C 5.60833 km/h
227 12-02-2019 10:00:00 3.95833 C 5.47 g/m*3 1.89 C 8.08333 km/h
228 12-02-2019 11:00:00 4.65833 C 5.59 g/m*3 2.9 C 7.39167 km/h
229 12-02-2019 12:00:00 5.44167 C 5.75 g/m*3 3.74 C 7.65 km/h
230 12-02-2019 13:00:00 6.30833 C 5.88 g/m*3 4.56 C 8.45833 km/h
231 12-02-2019 14:00:00 6.875 C 5.9 g/m*3 4.68 C 11.16667 km/h
232 12-02-2019 15:00:00 7.05 C 5.89 g/m*3 5.23 C 9.40833 km/h
233 12-02-2019 16:00:00 7.425 C 5.96 g/m*3 5.56 C 9.95833 km/h
234 12-02-2019 17:00:00 6.55833 C 5.82 g/m*3 5.68 C 5.49167 km/h
235 12-02-2019 18:00:00 4.35833 C 5.51 g/m*3 4.36 C 4.13333 km/h
236 12-02-2019 19:00:00 3.025 C 5.27 g/m*3 3.03 C 3.2 km/h
237 12-02-2019 20:00:00 2.33333 C 5.13 g/m*3 2.33 C 3.33333 km/h
238 12-02-2019 21:00:00 1.59167 C 4.95 g/m*3 1.59 C 3.2 km/h
239 12-02-2019 22:00:00 1.41667 C 4.96 g/m*3 -0.3 C 5.75833 km/h
240 12-02-2019 23:00:00 1.375 C 4.97 g/m*3 1.38 C 4.26667 km/h
241 13-02-2019 00:00:00 1.25 C 4.91 g/m*3 1.25 C 4.13333 km/h
242 13-02-2019 01:00:00 0.85833 C 4.79 g/m*3 0.86 C 2.4 km/h
243 13-02-2019 02:00:00 0.125 C 4.57 g/m*3 0.13 C 2.26667 km/h
244 13-02-2019 03:00:00 -0.31667 C 4.46 g/m*3 -0.32 C 2 km/h
245 13-02-2019 04:00:00 -0.33333 C 4.48 g/m*3 -0.33 C 1.6 km/h
246 13-02-2019 05:00:00 -0.46667 C 4.46 g/m*3 -0.47 C 2 km/h
247 13-02-2019 06:00:00 -0.45 C 4.47 g/m*3 -0.45 C 1.33333 km/h
248 13-02-2019 07:00:00 0.26667 C 4.74 g/m*3 0.27 C 0.53333 km/h
249 13-02-2019 08:00:00 0.66667 C 4.85 g/m*3 0.67 C 0.8 km/h
250 13-02-2019 09:00:00 1.00833 C 4.94 g/m*3 1.01 C 2 km/h
Sensor: Nr:Datum:Temp:Abs-Feuchte:Windchill:Wind:
Aussen-T/F 251 13-02-2019 10:00:00 1.60833 C 5.07 g/m*3 1.61 C 2.8 km/h
252 13-02-2019 11:00:00 2.325 C 5.19 g/m*3 2.33 C 0.8 km/h
253 13-02-2019 12:00:00 3.58333 C 5.52 g/m*3 3.58 C 1.6 km/h
254 13-02-2019 13:00:00 4.89167 C 5.71 g/m*3 4.89 C 4.13333 km/h
255 13-02-2019 14:00:00 5.41667 C 5.8 g/m*3 5.42 C 4.4 km/h
256 13-02-2019 15:00:00 5.6 C 5.88 g/m*3 5.6 C 2.66667 km/h
257 13-02-2019 16:00:00 5.54167 C 6.04 g/m*3 5.54 C 0 km/h
258 13-02-2019 17:00:00 4.69167 C 5.89 g/m*3 4.69 C 0.93333 km/h
259 13-02-2019 18:00:00 3.20833 C 5.46 g/m*3 3.21 C 0.66667 km/h
260 13-02-2019 19:00:00 1.85 C 5.04 g/m*3 1.85 C 0 km/h
261 13-02-2019 20:00:00 1.15 C 4.87 g/m*3 1.15 C 0 km/h
262 13-02-2019 21:00:00 0.55833 C 4.65 g/m*3 0.56 C 0.13333 km/h
263 13-02-2019 22:00:00 0.125 C 4.55 g/m*3 0.13 C 0.13333 km/h
264 13-02-2019 23:00:00 -0.45 C 4.37 g/m*3 -0.45 C 0 km/h
265 14-02-2019 00:00:00 -0.71667 C 4.3 g/m*3 -0.72 C 0 km/h
266 14-02-2019 01:00:00 -1.05833 C 4.23 g/m*3 -1.06 C 0 km/h
267 14-02-2019 02:00:00 -1.1 C 4.23 g/m*3 -1.1 C 0 km/h
268 14-02-2019 03:00:00 -1.53333 C 4.1 g/m*3 -1.53 C 0.13333 km/h
269 14-02-2019 04:00:00 -1.775 C 4.06 g/m*3 -1.78 C 0 km/h
270 14-02-2019 05:00:00 -1.96667 C 4.01 g/m*3 -1.97 C 0 km/h
271 14-02-2019 06:00:00 -2.45 C 3.88 g/m*3 -2.45 C 0 km/h
272 14-02-2019 07:00:00 -2.65 C 3.83 g/m*3 -2.65 C 0 km/h
273 14-02-2019 08:00:00 -2.43333 C 3.91 g/m*3 -2.43 C 0.4 km/h
274 14-02-2019 09:00:00 -2.08333 C 4.02 g/m*3 -2.08 C 0.53333 km/h
275 14-02-2019 10:00:00 -1.69167 C 4.14 g/m*3 -1.69 C 0.4 km/h
Sensor: Nr:Datum:Temp:Abs-Feuchte:Windchill:Wind:
Aussen-T/F 276 14-02-2019 11:00:00 -0.9 C 4.39 g/m*3 -0.9 C 0.26667 km/h
277 14-02-2019 12:00:00 0.675 C 4.92 g/m*3 0.68 C 0.66667 km/h
278 14-02-2019 13:00:00 2.75833 C 5.67 g/m*3 2.76 C 0.4 km/h
279 14-02-2019 14:00:00 4.65833 C 6.28 g/m*3 4.66 C 0.53333 km/h
280 14-02-2019 15:00:00 6.48333 C 6.77 g/m*3 6.48 C 1.2 km/h
281 14-02-2019 16:00:00 6.08333 C 6.43 g/m*3 6.08 C 0 km/h
282 14-02-2019 17:00:00 5.625 C 6.22 g/m*3 5.63 C 0 km/h
283 14-02-2019 18:00:00 4.58333 C 5.72 g/m*3 4.58 C 0 km/h
284 14-02-2019 19:00:00 3.30833 C 5.17 g/m*3 3.31 C 0 km/h
285 14-02-2019 20:00:00 2.78333 C 5.09 g/m*3 2.78 C 0 km/h
286 14-02-2019 21:00:00 1.55 C 4.82 g/m*3 1.55 C 0 km/h
287 14-02-2019 22:00:00 0.49167 C 4.57 g/m*3 0.49 C 0 km/h
288 14-02-2019 23:00:00 -0.05833 C 4.48 g/m*3 -0.06 C 0 km/h
289 15-02-2019 00:00:00 -0.55 C 4.37 g/m*3 -0.55 C 0 km/h
290 15-02-2019 01:00:00 -0.93333 C 4.28 g/m*3 -0.93 C 0 km/h
291 15-02-2019 02:00:00 -1.15 C 4.24 g/m*3 -1.15 C 0 km/h
292 15-02-2019 03:00:00 -1.40833 C 4.17 g/m*3 -1.41 C 0 km/h
293 15-02-2019 04:00:00 -1.50833 C 4.14 g/m*3 -1.51 C 0 km/h
294 15-02-2019 05:00:00 -1.88333 C 4.04 g/m*3 -1.88 C 0 km/h
295 15-02-2019 06:00:00 -2.075 C 3.99 g/m*3 -2.08 C 0 km/h
296 15-02-2019 07:00:00 -2.4 C 3.89 g/m*3 -2.4 C 0 km/h
297 15-02-2019 08:00:00 -2.2 C 3.99 g/m*3 -2.2 C 0 km/h
298 15-02-2019 09:00:00 -1.69167 C 4.14 g/m*3 -1.69 C 0 km/h
299 15-02-2019 10:00:00 -0.7 C 4.44 g/m*3 -0.7 C 0 km/h
300 15-02-2019 11:00:00 1.26667 C 5.13 g/m*3 1.27 C 0 km/h
Sensor: Nr:Datum:Temp:Abs-Feuchte:Windchill:Wind:
Aussen-T/F 301 15-02-2019 12:00:00 3.41667 C 5.91 g/m*3 3.42 C 0 km/h
302 15-02-2019 13:00:00 5.93333 C 6.62 g/m*3 5.93 C 2.4 km/h
303 15-02-2019 14:00:00 8.25833 C 6.95 g/m*3 7.71 C 5.2 km/h
304 15-02-2019 15:00:00 9.58333 C 7.08 g/m*3 9.14 C 5.46667 km/h
305 15-02-2019 16:00:00 10.65833 C 6.75 g/m*3 10.19 C 6.13333 km/h
306 15-02-2019 17:00:00 9.35833 C 6.46 g/m*3 8.56 C 6.68333 km/h
307 15-02-2019 18:00:00 7.275 C 6 g/m*3 6.38 C 5.86667 km/h
308 15-02-2019 19:00:00 6.16667 C 5.85 g/m*3 6.17 C 4.26667 km/h
309 15-02-2019 20:00:00 4.46667 C 5.54 g/m*3 4.47 C 0.53333 km/h
310 15-02-2019 21:00:00 3.15833 C 5.3 g/m*3 3.16 C 0 km/h
311 15-02-2019 22:00:00 1.85 C 4.97 g/m*3 1.85 C 0 km/h
312 15-02-2019 23:00:00 1.23333 C 4.86 g/m*3 1.23 C 0 km/h
313 16-02-2019 00:00:00 0.41667 C 4.63 g/m*3 0.42 C 0 km/h
314 16-02-2019 01:00:00 -0.15 C 4.5 g/m*3 -0.15 C 0 km/h
315 16-02-2019 02:00:00 -0.48333 C 4.42 g/m*3 -0.48 C 0.53333 km/h
316 16-02-2019 03:00:00 -0.75833 C 4.36 g/m*3 -0.76 C 0.13333 km/h
317 16-02-2019 04:00:00 -0.925 C 4.32 g/m*3 -0.93 C 0.13333 km/h
318 16-02-2019 05:00:00 -1.11667 C 4.27 g/m*3 -1.12 C 1.06667 km/h
319 16-02-2019 06:00:00 -1.20833 C 4.25 g/m*3 -1.21 C 0.8 km/h
320 16-02-2019 07:00:00 -1.64167 C 4.11 g/m*3 -1.64 C 0.13333 km/h
321 16-02-2019 08:00:00 -1.78333 C 4.09 g/m*3 -1.78 C 0.13333 km/h
322 16-02-2019 09:00:00 -1.09167 C 4.31 g/m*3 -1.09 C 0 km/h
323 16-02-2019 10:00:00 -0.225 C 4.6 g/m*3 -0.23 C 0 km/h
324 16-02-2019 11:00:00 2.175 C 5.45 g/m*3 2.17 C 0.53333 km/h
325 16-02-2019 12:00:00 4.96667 C 6.57 g/m*3 4.97 C 1.06667 km/h
Sensor: Nr:Datum:Temp:Abs-Feuchte:Windchill:Wind:
Aussen-T/F 326 16-02-2019 13:00:00 7.85833 C 7.37 g/m*3 7.86 C 2.26667 km/h
327 16-02-2019 14:00:00 10.66667 C 7.56 g/m*3 10.67 C 0 km/h
328 16-02-2019 15:00:00 11.75833 C 7.33 g/m*3 11.76 C 4 km/h
329 16-02-2019 16:00:00 11.88333 C 7.11 g/m*3 11.88 C 2.4 km/h
330 16-02-2019 17:00:00 10.69167 C 6.87 g/m*3 10.69 C 4 km/h
331 16-02-2019 18:00:00 8.74167 C 6.63 g/m*3 8.02 C 6 km/h
332 16-02-2019 19:00:00 7.29167 C 6.4 g/m*3 7.29 C 2 km/h
333 16-02-2019 20:00:00 5.41667 C 5.88 g/m*3 5.42 C 0 km/h
334 16-02-2019 21:00:00 3.75833 C 5.54 g/m*3 3.76 C 0 km/h
335 16-02-2019 22:00:00 2.8 C 5.35 g/m*3 2.8 C 0 km/h
336 16-02-2019 23:00:00 1.95833 C 5.15 g/m*3 1.96 C 0 km/h
337 17-02-2019 00:00:00 1.55 C 5.07 g/m*3 1.55 C 0 km/h
338 17-02-2019 01:00:00 0.86667 C 4.85 g/m*3 0.87 C 0 km/h
339 17-02-2019 02:00:00 0.34167 C 4.71 g/m*3 0.34 C 0 km/h
340 17-02-2019 03:00:00 0.09167 C 4.65 g/m*3 0.09 C 0 km/h
341 17-02-2019 04:00:00 -0.36667 C 4.5 g/m*3 -0.37 C 0 km/h
342 17-02-2019 05:00:00 -0.85833 C 4.36 g/m*3 -0.86 C 0 km/h
343 17-02-2019 06:00:00 -0.975 C 4.35 g/m*3 -0.98 C 0.13333 km/h
344 17-02-2019 07:00:00 -1.25 C 4.26 g/m*3 -1.25 C 0 km/h
345 17-02-2019 08:00:00 -1.33333 C 4.24 g/m*3 -1.33 C 0 km/h
346 17-02-2019 09:00:00 -0.81667 C 4.4 g/m*3 -0.82 C 0 km/h
347 17-02-2019 10:00:00 -0.16667 C 4.63 g/m*3 -0.17 C 0 km/h
348 17-02-2019 11:00:00 1.93333 C 5.37 g/m*3 1.93 C 0.13333 km/h
349 17-02-2019 12:00:00 4.73333 C 6.5 g/m*3 4.73 C 0.13333 km/h
350 17-02-2019 13:00:00 7.51667 C 7.74 g/m*3 7.52 C 0.53333 km/h
Sensor: Nr:Datum:Temp:Abs-Feuchte:Windchill:Wind:
Aussen-T/F 351 17-02-2019 14:00:00 9.76667 C 7.99 g/m*3 9.77 C 1.33333 km/h
352 17-02-2019 15:00:00 11.19167 C 7.83 g/m*3 11.19 C 3.06667 km/h
353 17-02-2019 16:00:00 11.94167 C 7.56 g/m*3 11.94 C 2.26667 km/h
354 17-02-2019 17:00:00 11 C 7.26 g/m*3 10.59 C 6.13333 km/h
355 17-02-2019 18:00:00 8.59167 C 6.56 g/m*3 8.59 C 4.8 km/h
356 17-02-2019 19:00:00 6.73333 C 6.1 g/m*3 6.73 C 1.86667 km/h
357 17-02-2019 20:00:00 4.69167 C 5.63 g/m*3 4.69 C 0 km/h
358 17-02-2019 21:00:00 3.65 C 5.43 g/m*3 3.65 C 0.13333 km/h
359 17-02-2019 22:00:00 2.375 C 5.11 g/m*3 2.38 C 0 km/h
360 17-02-2019 23:00:00 1.7 C 4.99 g/m*3 1.7 C 0 km/h
361 18-02-2019 00:00:00 1.46667 C 4.91 g/m*3 1.47 C 0 km/h
362 18-02-2019 01:00:00 0.49167 C 4.64 g/m*3 0.49 C 0 km/h
363 18-02-2019 02:00:00 0.08333 C 4.57 g/m*3 0.08 C 0.13333 km/h
364 18-02-2019 03:00:00 -0.41667 C 4.43 g/m*3 -0.42 C 0 km/h
365 18-02-2019 04:00:00 -0.775 C 4.34 g/m*3 -0.78 C 0 km/h
366 18-02-2019 05:00:00 -1.21667 C 4.23 g/m*3 -1.22 C 0 km/h
367 18-02-2019 06:00:00 -1.475 C 4.15 g/m*3 -1.48 C 0 km/h
368 18-02-2019 07:00:00 -1.65 C 4.11 g/m*3 -1.65 C 0 km/h
369 18-02-2019 08:00:00 -1.63333 C 4.13 g/m*3 -1.63 C 0.13333 km/h
370 18-02-2019 09:00:00 -0.56667 C 4.47 g/m*3 -0.57 C 0.66667 km/h
371 18-02-2019 10:00:00 0.19167 C 4.72 g/m*3 0.19 C 0.8 km/h
372 18-02-2019 11:00:00 2.84167 C 5.69 g/m*3 2.84 C 0 km/h
373 18-02-2019 12:00:00 6.04167 C 6.76 g/m*3 6.04 C 0 km/h
374 18-02-2019 13:00:00 9.59167 C 7.36 g/m*3 9.59 C 0 km/h
375 18-02-2019 14:00:00 11.34167 C 7.36 g/m*3 11.34 C 0 km/h
Sensor: Nr:Datum:Temp:Abs-Feuchte:Windchill:Wind:
Aussen-T/F 376 18-02-2019 15:00:00 12.05833 C 7.16 g/m*3 12.06 C 0 km/h
377 18-02-2019 16:00:00 11.84167 C 6.81 g/m*3 11.84 C 0 km/h
378 18-02-2019 17:00:00 10.425 C 6.72 g/m*3 10.43 C 0 km/h
379 18-02-2019 18:00:00 8.41667 C 6.35 g/m*3 8.42 C 0 km/h
380 18-02-2019 19:00:00 7 C 6.2 g/m*3 7 C 0 km/h
381 18-02-2019 20:00:00 5.65833 C 5.77 g/m*3 5.66 C 0.4 km/h
382 18-02-2019 21:00:00 4.1 C 5.5 g/m*3 4.1 C 0 km/h
383 18-02-2019 22:00:00 2.76667 C 5.19 g/m*3 2.77 C 0 km/h
384 18-02-2019 23:00:00 2.13333 C 5.09 g/m*3 2.13 C 0 km/h
385 19-02-2019 00:00:00 1.725 C 5.02 g/m*3 1.73 C 0 km/h
386 19-02-2019 01:00:00 1.83333 C 5.1 g/m*3 1.83 C 0 km/h
387 19-02-2019 02:00:00 1.85 C 5.13 g/m*3 1.85 C 0 km/h
388 19-02-2019 03:00:00 2.34167 C 5.37 g/m*3 2.34 C 0.93333 km/h
389 19-02-2019 04:00:00 3.7 C 5.86 g/m*3 3.7 C 4.41667 km/h
390 19-02-2019 05:00:00 4.04167 C 5.79 g/m*3 4.04 C 2.93333 km/h
391 19-02-2019 06:00:00 4.99167 C 5.96 g/m*3 4.99 C 4.41667 km/h
392 19-02-2019 07:00:00 5.2 C 6.21 g/m*3 5.2 C 2.93333 km/h
393 19-02-2019 08:00:00 4.89167 C 6.27 g/m*3 4.89 C 1.06667 km/h
394 19-02-2019 09:00:00 5.25 C 6.55 g/m*3 4.28 C 5.225 km/h
395 19-02-2019 10:00:00 6.34167 C 7 g/m*3 4.59 C 8.48333 km/h
396 19-02-2019 11:00:00 7.28333 C 7.31 g/m*3 5.93 C 7.53333 km/h
397 19-02-2019 12:00:00 8.71667 C 7.61 g/m*3 8.07 C 5.75833 km/h
398 19-02-2019 13:00:00 9.94167 C 7.5 g/m*3 8.69 C 9.29167 km/h
399 19-02-2019 14:00:00 10.65 C 7.29 g/m*3 9.26 C 10.9 km/h
400 19-02-2019 15:00:00 10.94167 C 7.23 g/m*3 10.05 C 8.34167 km/h
Sensor: Nr:Datum:Temp:Abs-Feuchte:Windchill:Wind:
Aussen-T/F 401 19-02-2019 16:00:00 10.9 C 7.18 g/m*3 10.28 C 6.98333 km/h
402 19-02-2019 17:00:00 9.69167 C 6.87 g/m*3 9.69 C 4.15833 km/h
403 19-02-2019 18:00:00 7.28333 C 6.56 g/m*3 7.28 C 4.54167 km/h
404 19-02-2019 19:00:00 6.225 C 6.41 g/m*3 6.23 C 4.13333 km/h
405 19-02-2019 20:00:00 5.44167 C 6.24 g/m*3 5.44 C 3.33333 km/h
406 19-02-2019 21:00:00 4.85 C 6.03 g/m*3 4.85 C 0.53333 km/h
407 19-02-2019 22:00:00 3.46667 C 5.6 g/m*3 3.47 C 0.66667 km/h
408 19-02-2019 23:00:00 3.05 C 5.53 g/m*3 3.05 C 0.66667 km/h
409 20-02-2019 00:00:00 2.6 C 5.4 g/m*3 2.6 C 0.8 km/h
410 20-02-2019 01:00:00 1.78333 C 5.11 g/m*3 1.78 C 0 km/h
411 20-02-2019 02:00:00 1.19167 C 4.96 g/m*3 1.19 C 0.13333 km/h
412 20-02-2019 03:00:00 1.1 C 4.96 g/m*3 1.1 C 1.2 km/h
413 20-02-2019 04:00:00 0.875 C 4.89 g/m*3 0.88 C 0.66667 km/h
414 20-02-2019 05:00:00 1 C 4.96 g/m*3 1 C 1.06667 km/h
415 20-02-2019 06:00:00 0.86667 C 4.92 g/m*3 0.87 C 0.4 km/h
416 20-02-2019 07:00:00 0.73333 C 4.89 g/m*3 0.73 C 1.2 km/h
417 20-02-2019 08:00:00 1.30833 C 5.11 g/m*3 1.31 C 2.41667 km/h
418 20-02-2019 09:00:00 3.09167 C 5.78 g/m*3 0.06 C 11.43333 km/h
419 20-02-2019 10:00:00 4.40833 C 6.25 g/m*3 1.7 C 11.16667 km/h
420 20-02-2019 11:00:00 6.075 C 6.72 g/m*3 3.9 C 10.225 km/h
421 20-02-2019 12:00:00 7.49167 C 7.04 g/m*3 6.21 C 7.36667 km/h
422 20-02-2019 13:00:00 9.86667 C 7.29 g/m*3 8.2 C 11.7 km/h
423 20-02-2019 14:00:00 10.85833 C 7.37 g/m*3 9.95 C 8.325 km/h
424 20-02-2019 15:00:00 11.08333 C 7.35 g/m*3 11.08 C 6.15833 km/h
425 20-02-2019 16:00:00 11.375 C 7.3 g/m*3 11.38 C 6.84167 km/h
Sensor: Nr:Datum:Temp:Abs-Feuchte:Windchill:Wind:
Aussen-T/F 426 20-02-2019 17:00:00 10.35 C 7.12 g/m*3 10.35 C 3.875 km/h
427 20-02-2019 18:00:00 7.29167 C 6.63 g/m*3 7.29 C 3.86667 km/h
428 20-02-2019 19:00:00 6.16667 C 6.43 g/m*3 6.17 C 2.53333 km/h
429 20-02-2019 20:00:00 4.86667 C 6.04 g/m*3 4.87 C 0.26667 km/h
430 20-02-2019 21:00:00 3.775 C 5.73 g/m*3 3.78 C 0 km/h
431 20-02-2019 22:00:00 2.7 C 5.41 g/m*3 2.7 C 0 km/h
432 20-02-2019 23:00:00 2.10833 C 5.28 g/m*3 2.11 C 0.13333 km/h
433 21-02-2019 00:00:00 1.575 C 5.1 g/m*3 1.58 C 0 km/h
434 21-02-2019 01:00:00 1.58333 C 5.14 g/m*3 1.58 C 0.26667 km/h
435 21-02-2019 02:00:00 1.06667 C 4.96 g/m*3 1.07 C 0 km/h
436 21-02-2019 03:00:00 0.74167 C 4.89 g/m*3 0.74 C 0.26667 km/h
437 21-02-2019 04:00:00 0.91667 C 4.95 g/m*3 0.92 C 1.33333 km/h
438 21-02-2019 05:00:00 1.06667 C 5.02 g/m*3 1.07 C 1.2 km/h
439 21-02-2019 06:00:00 1.25 C 5.08 g/m*3 1.25 C 0.93333 km/h
440 21-02-2019 07:00:00 1.21667 C 5.08 g/m*3 1.22 C 0.4 km/h
441 21-02-2019 08:00:00 2.10833 C 5.43 g/m*3 2.11 C 0.4 km/h
442 21-02-2019 09:00:00 2.84167 C 5.71 g/m*3 2.84 C 0.66667 km/h
443 21-02-2019 10:00:00 3.91667 C 6.13 g/m*3 3.92 C 1.2 km/h
444 21-02-2019 11:00:00 5.725 C 6.76 g/m*3 5.73 C 0.93333 km/h
445 21-02-2019 12:00:00 8.33333 C 7.59 g/m*3 8.33 C 2.94167 km/h
446 21-02-2019 13:00:00 11.3 C 8.35 g/m*3 11.3 C 6.29167 km/h
447 21-02-2019 14:00:00 12.6 C 8.52 g/m*3 12.6 C 6.30833 km/h
448 21-02-2019 15:00:00 13.325 C 8.59 g/m*3 13.33 C 6.44167 km/h
449 21-02-2019 16:00:00 13.34167 C 8.58 g/m*3 13.34 C 5.49167 km/h
450 21-02-2019 17:00:00 12.48333 C 8.77 g/m*3 12.48 C 2.13333 km/h
Sensor: Nr:Datum:Temp:Abs-Feuchte:Windchill:Wind:
Aussen-T/F 451 21-02-2019 18:00:00 10.56667 C 8.39 g/m*3 10.57 C 2.4 km/h
452 21-02-2019 19:00:00 9.74167 C 8.06 g/m*3 9.74 C 3.46667 km/h
453 21-02-2019 20:00:00 9.18333 C 7.98 g/m*3 9.18 C 0.53333 km/h
454 21-02-2019 21:00:00 9.325 C 8.15 g/m*3 9.32 C 0.66667 km/h
455 21-02-2019 22:00:00 9.275 C 8.01 g/m*3 9.28 C 0.13333 km/h
456 21-02-2019 23:00:00 9.21667 C 7.99 g/m*3 9.22 C 1.6 km/h
457 22-02-2019 00:00:00 9.575 C 8.12 g/m*3 9.57 C 2.675 km/h
458 22-02-2019 01:00:00 9.76667 C 8.17 g/m*3 9.77 C 0.4 km/h
459 22-02-2019 02:00:00 9.325 C 8.12 g/m*3 9.32 C 0.53333 km/h
460 22-02-2019 03:00:00 9.55 C 8.41 g/m*3 9.55 C 0.53333 km/h
461 22-02-2019 04:00:00 9.66667 C 8.55 g/m*3 9.67 C 0.53333 km/h
462 22-02-2019 05:00:00 9.34167 C 8.49 g/m*3 9.34 C 0.53333 km/h
463 22-02-2019 06:00:00 9.34167 C 8.56 g/m*3 9.34 C 2.13333 km/h
464 22-02-2019 07:00:00 9.225 C 8.53 g/m*3 9.23 C 0.53333 km/h
465 22-02-2019 08:00:00 9.16667 C 8.55 g/m*3 9.17 C 0.66667 km/h
466 22-02-2019 09:00:00 9.50833 C 8.74 g/m*3 9.51 C 0.13333 km/h
467 22-02-2019 10:00:00 9.93333 C 8.98 g/m*3 9.93 C 0 km/h
468 22-02-2019 11:00:00 10.64167 C 9.28 g/m*3 10.64 C 1.86667 km/h
469 22-02-2019 12:00:00 11.6 C 9.14 g/m*3 11.6 C 5.1 km/h
470 22-02-2019 13:00:00 12.46667 C 9.01 g/m*3 12.47 C 4.26667 km/h
471 22-02-2019 14:00:00 12.83333 C 8.75 g/m*3 12.83 C 2.8 km/h
472 22-02-2019 15:00:00 13.275 C 8.57 g/m*3 13.28 C 1.33333 km/h
473 22-02-2019 16:00:00 12.84167 C 8.24 g/m*3 12.84 C 1.86667 km/h
474 22-02-2019 17:00:00 11.825 C 8.03 g/m*3 11.83 C 0.26667 km/h
475 22-02-2019 18:00:00 9.075 C 7.36 g/m*3 9.07 C 1.73333 km/h
Sensor: Nr:Datum:Temp:Abs-Feuchte:Windchill:Wind:
Aussen-T/F 476 22-02-2019 19:00:00 8.55 C 7.38 g/m*3 8.55 C 4.13333 km/h
477 22-02-2019 20:00:00 8.99167 C 7.52 g/m*3 8.99 C 1.46667 km/h
478 22-02-2019 21:00:00 8.475 C 7.35 g/m*3 8.48 C 2.53333 km/h
479 22-02-2019 22:00:00 6.94167 C 6.86 g/m*3 6.94 C 3.06667 km/h
480 22-02-2019 23:00:00 5.95 C 6.63 g/m*3 5.95 C 2.66667 km/h
481 23-02-2019 00:00:00 5.31667 C 6.41 g/m*3 5.32 C 0.8 km/h
482 23-02-2019 01:00:00 4.55 C 6.15 g/m*3 4.55 C 0 km/h
483 23-02-2019 02:00:00 4.18333 C 6.05 g/m*3 4.18 C 0 km/h
484 23-02-2019 03:00:00 3.81667 C 5.96 g/m*3 3.82 C 0.93333 km/h
485 23-02-2019 04:00:00 4.26667 C 6.15 g/m*3 4.27 C 1.33333 km/h
486 23-02-2019 05:00:00 4.525 C 6.16 g/m*3 4.53 C 4.025 km/h
487 23-02-2019 06:00:00 4.83333 C 6.04 g/m*3 4.83 C 0.93333 km/h
488 23-02-2019 07:00:00 4.79167 C 5.83 g/m*3 4.79 C 1.6 km/h
489 23-02-2019 08:00:00 4.85 C 5.72 g/m*3 4.85 C 3.74167 km/h
490 23-02-2019 09:00:00 4.775 C 5.58 g/m*3 2.75 C 8.48333 km/h
491 23-02-2019 10:00:00 4.95 C 5.54 g/m*3 3.9 C 5.34167 km/h
492 23-02-2019 11:00:00 6.125 C 5.78 g/m*3 5.05 C 5.89167 km/h
493 23-02-2019 12:00:00 7.625 C 5.84 g/m*3 6.17 C 8.20833 km/h
494 23-02-2019 13:00:00 9.05833 C 5.91 g/m*3 7.61 C 9.41667 km/h
495 23-02-2019 14:00:00 10.01667 C 5.59 g/m*3 9.38 C 6.43333 km/h
496 23-02-2019 15:00:00 10.78333 C 4.42 g/m*3 10.58 C 5.21667 km/h
497 23-02-2019 16:00:00 10.71667 C 4.63 g/m*3 10.72 C 3.2 km/h
498 23-02-2019 17:00:00 7.99167 C 5.22 g/m*3 7.99 C 2.13333 km/h
499 23-02-2019 18:00:00 5.45833 C 4.97 g/m*3 5.46 C 0 km/h
500 23-02-2019 19:00:00 4.36667 C 4.82 g/m*3 4.37 C 0 km/h
Sensor: Nr:Datum:Temp:Abs-Feuchte:Windchill:Wind:
Aussen-T/F 501 23-02-2019 20:00:00 3.38333 C 4.64 g/m*3 3.38 C 0 km/h
502 23-02-2019 21:00:00 2.03333 C 4.42 g/m*3 2.03 C 0 km/h
503 23-02-2019 22:00:00 0.98333 C 4.29 g/m*3 0.98 C 0 km/h
504 23-02-2019 23:00:00 0.45833 C 4.18 g/m*3 0.46 C 0 km/h
505 24-02-2019 00:00:00 -0.25833 C 4.07 g/m*3 -0.26 C 0 km/h
506 24-02-2019 01:00:00 -0.66667 C 4.03 g/m*3 -0.67 C 0 km/h
507 24-02-2019 02:00:00 -1.16667 C 3.93 g/m*3 -1.17 C 0 km/h
508 24-02-2019 03:00:00 -1.5 C 3.89 g/m*3 -1.5 C 0 km/h
509 24-02-2019 04:00:00 -1.73333 C 3.87 g/m*3 -1.73 C 0 km/h
510 24-02-2019 05:00:00 -1.875 C 3.83 g/m*3 -1.88 C 0 km/h
511 24-02-2019 06:00:00 -2.06667 C 3.8 g/m*3 -2.07 C 0 km/h
512 24-02-2019 07:00:00 -2.35833 C 3.75 g/m*3 -2.36 C 0 km/h
513 24-02-2019 08:00:00 -2.10833 C 3.85 g/m*3 -2.11 C 0 km/h
514 24-02-2019 09:00:00 -1.49167 C 4.01 g/m*3 -1.49 C 0 km/h
515 24-02-2019 10:00:00 0.36667 C 4.41 g/m*3 0.37 C 0 km/h
516 24-02-2019 11:00:00 4.09167 C 4.98 g/m*3 4.09 C 0 km/h
517 24-02-2019 12:00:00 7.35 C 5.24 g/m*3 7.35 C 0 km/h
518 24-02-2019 13:00:00 10.45833 C 4.27 g/m*3 10.46 C 4.40833 km/h
519 24-02-2019 14:00:00 11.89167 C 3.86 g/m*3 11.89 C 6.7 km/h
520 24-02-2019 15:00:00 12.41667 C 4.27 g/m*3 12.42 C 2.8 km/h
521 24-02-2019 16:00:00 11.80833 C 4.9 g/m*3 11.81 C 3.2 km/h
522 24-02-2019 17:00:00 10.3 C 5.02 g/m*3 10.3 C 0.4 km/h
523 24-02-2019 18:00:00 8.44167 C 4.82 g/m*3 8.44 C 4 km/h
524 24-02-2019 19:00:00 6.86667 C 4.69 g/m*3 6.87 C 3.73333 km/h
525 24-02-2019 20:00:00 4.93333 C 4.49 g/m*3 4.93 C 0.26667 km/h
Sensor: Nr:Datum:Temp:Abs-Feuchte:Windchill:Wind:
Aussen-T/F 526 24-02-2019 21:00:00 3.36667 C 4.36 g/m*3 3.37 C 0 km/h
527 24-02-2019 22:00:00 2.54167 C 4.29 g/m*3 2.54 C 0 km/h
528 24-02-2019 23:00:00 1.81667 C 4.23 g/m*3 1.82 C 0 km/h
529 25-02-2019 00:00:00 1.175 C 4.15 g/m*3 1.18 C 0 km/h
530 25-02-2019 01:00:00 0.925 C 4.18 g/m*3 0.93 C 0 km/h
531 25-02-2019 02:00:00 0.13333 C 4.09 g/m*3 0.13 C 0 km/h
532 25-02-2019 03:00:00 -0.00833 C 4.07 g/m*3 -0.01 C 0 km/h
533 25-02-2019 04:00:00 -0.58333 C 4.01 g/m*3 -0.58 C 0 km/h
534 25-02-2019 05:00:00 -0.70833 C 4.02 g/m*3 -0.71 C 0.66667 km/h
535 25-02-2019 06:00:00 -0.86667 C 4.01 g/m*3 -0.87 C 0.13333 km/h
536 25-02-2019 07:00:00 -1.21667 C 3.93 g/m*3 -1.22 C 0 km/h
537 25-02-2019 08:00:00 -1.2 C 4 g/m*3 -1.2 C 0 km/h
538 25-02-2019 09:00:00 -0.69167 C 4.1 g/m*3 -0.69 C 0 km/h
539 25-02-2019 10:00:00 0.81667 C 4.46 g/m*3 0.82 C 0 km/h
540 25-02-2019 11:00:00 4.675 C 5.17 g/m*3 4.68 C 1.06667 km/h
541 25-02-2019 12:00:00 8.70833 C 5.81 g/m*3 8.71 C 1.06667 km/h
542 25-02-2019 13:00:00 12.55 C 5.88 g/m*3 12.55 C 0.26667 km/h
543 25-02-2019 14:00:00 14.74167 C 5.89 g/m*3 14.74 C 1.86667 km/h
544 25-02-2019 15:00:00 14.175 C 6.05 g/m*3 14.18 C 1.73333 km/h
545 25-02-2019 16:00:00 14.375 C 6.12 g/m*3 14.38 C 2.13333 km/h
546 25-02-2019 17:00:00 13.64167 C 6.24 g/m*3 13.64 C 5.6 km/h
547 25-02-2019 18:00:00 11.1 C 6.03 g/m*3 11.1 C 5.6 km/h
548 25-02-2019 19:00:00 9.075 C 5.92 g/m*3 9.07 C 0.4 km/h
549 25-02-2019 20:00:00 7.04167 C 5.67 g/m*3 7.04 C 0 km/h
550 25-02-2019 21:00:00 5.575 C 5.41 g/m*3 5.58 C 0 km/h
Sensor: Nr:Datum:Temp:Abs-Feuchte:Windchill:Wind:
Aussen-T/F 551 25-02-2019 22:00:00 4.55 C 5.24 g/m*3 4.55 C 0 km/h
552 25-02-2019 23:00:00 3.25 C 5.05 g/m*3 3.25 C 0 km/h
553 26-02-2019 00:00:00 2.425 C 4.92 g/m*3 2.42 C 0 km/h
554 26-02-2019 01:00:00 1.93333 C 4.91 g/m*3 1.93 C 0 km/h
555 26-02-2019 02:00:00 1.39167 C 4.78 g/m*3 1.39 C 0 km/h
556 26-02-2019 03:00:00 0.63333 C 4.61 g/m*3 0.63 C 0 km/h
557 26-02-2019 04:00:00 0.325 C 4.56 g/m*3 0.33 C 0 km/h
558 26-02-2019 05:00:00 0.21667 C 4.58 g/m*3 0.22 C 0.8 km/h
559 26-02-2019 06:00:00 -0.31667 C 4.4 g/m*3 -0.32 C 0.13333 km/h
560 26-02-2019 07:00:00 -0.48333 C 4.39 g/m*3 -0.48 C 0.13333 km/h
561 26-02-2019 08:00:00 -0.10833 C 4.54 g/m*3 -0.11 C 0.53333 km/h
562 26-02-2019 09:00:00 0.80833 C 4.85 g/m*3 0.81 C 0.13333 km/h
563 26-02-2019 10:00:00 2.60833 C 5.47 g/m*3 2.61 C 0.13333 km/h
564 26-02-2019 11:00:00 5.75 C 6.19 g/m*3 5.75 C 0 km/h
565 26-02-2019 12:00:00 9.50833 C 6.6 g/m*3 9.51 C 0 km/h
566 26-02-2019 13:00:00 13.85833 C 7.8 g/m*3 13.86 C 0 km/h
567 26-02-2019 14:00:00 16.15833 C 7.61 g/m*3 16.16 C 0 km/h
568 26-02-2019 15:00:00 15.49167 C 7.3 g/m*3 15.49 C 0 km/h
569 26-02-2019 16:00:00 15.44167 C 7.31 g/m*3 15.44 C 3.33333 km/h
570 26-02-2019 17:00:00 14.75833 C 7.39 g/m*3 14.76 C 6.13333 km/h
571 26-02-2019 18:00:00 12.56667 C 7.02 g/m*3 12.57 C 4.93333 km/h
572 26-02-2019 19:00:00 10.34167 C 6.85 g/m*3 10.34 C 0.53333 km/h
573 26-02-2019 20:00:00 8.18333 C 6.39 g/m*3 8.18 C 0 km/h
574 26-02-2019 21:00:00 6.8 C 6.19 g/m*3 6.8 C 0 km/h
575 26-02-2019 22:00:00 5.61667 C 5.93 g/m*3 5.62 C 0 km/h
Sensor: Nr:Datum:Temp:Abs-Feuchte:Windchill:Wind:
Aussen-T/F 576 26-02-2019 23:00:00 4.56667 C 5.74 g/m*3 4.57 C 0 km/h
577 27-02-2019 00:00:00 3.55833 C 5.51 g/m*3 3.56 C 0 km/h
578 27-02-2019 01:00:00 2.85 C 5.36 g/m*3 2.85 C 0 km/h
579 27-02-2019 02:00:00 2.25 C 5.22 g/m*3 2.25 C 0 km/h
580 27-02-2019 03:00:00 1.45833 C 4.98 g/m*3 1.46 C 0 km/h
581 27-02-2019 04:00:00 0.78333 C 4.8 g/m*3 0.78 C 0 km/h
582 27-02-2019 05:00:00 0.5 C 4.74 g/m*3 0.5 C 0 km/h
583 27-02-2019 06:00:00 0.125 C 4.64 g/m*3 0.13 C 0 km/h
584 27-02-2019 07:00:00 -0.375 C 4.49 g/m*3 -0.38 C 0 km/h
585 27-02-2019 08:00:00 -0.25833 C 4.55 g/m*3 -0.26 C 0 km/h
586 27-02-2019 09:00:00 0.41667 C 4.79 g/m*3 0.42 C 0 km/h
587 27-02-2019 10:00:00 2.4 C 5.52 g/m*3 2.4 C 0 km/h
588 27-02-2019 11:00:00 5.5 C 6.68 g/m*3 5.5 C 0 km/h
589 27-02-2019 12:00:00 9.75833 C 7.66 g/m*3 9.76 C 0 km/h
590 27-02-2019 13:00:00 14.69167 C 8.26 g/m*3 14.69 C 0 km/h
591 27-02-2019 14:00:00 17.19167 C 7.64 g/m*3 17.19 C 0 km/h
592 27-02-2019 15:00:00 16.10833 C 7.05 g/m*3 16.11 C 0.93333 km/h
593 27-02-2019 16:00:00 16.25 C 7 g/m*3 16.25 C 4.4 km/h
594 27-02-2019 17:00:00 15.71667 C 6.83 g/m*3 15.72 C 6.13333 km/h
595 27-02-2019 18:00:00 13.55833 C 6.44 g/m*3 13.56 C 4.55833 km/h
596 27-02-2019 19:00:00 10.89167 C 6.35 g/m*3 10.89 C 0 km/h
597 27-02-2019 20:00:00 8.7 C 6.09 g/m*3 8.7 C 0 km/h
598 27-02-2019 21:00:00 6.8 C 5.79 g/m*3 6.8 C 0 km/h
599 27-02-2019 22:00:00 5.55 C 5.67 g/m*3 5.55 C 0 km/h
600 27-02-2019 23:00:00 4.83333 C 5.55 g/m*3 4.83 C 0 km/h
Sensor: Nr:Datum:Temp:Abs-Feuchte:Windchill:Wind:
Aussen-T/F 601 28-02-2019 00:00:00 5.35 C 5.77 g/m*3 5.35 C 2.4 km/h
602 28-02-2019 01:00:00 4.93333 C 5.54 g/m*3 4.93 C 0.4 km/h
603 28-02-2019 02:00:00 3.675 C 5.4 g/m*3 3.68 C 3.20833 km/h
604 28-02-2019 03:00:00 2.94167 C 5.27 g/m*3 2.94 C 2.66667 km/h
605 28-02-2019 04:00:00 2.275 C 5.11 g/m*3 2.28 C 2.53333 km/h
606 28-02-2019 05:00:00 2.35833 C 5.18 g/m*3 2.36 C 3.35 km/h
607 28-02-2019 06:00:00 3.21667 C 5.45 g/m*3 1.38 C 6.85833 km/h
608 28-02-2019 07:00:00 3.75 C 5.43 g/m*3 2.47 C 5.5 km/h
609 28-02-2019 08:00:00 3.075 C 5.38 g/m*3 3.08 C 3.075 km/h
610 28-02-2019 09:00:00 4.68333 C 5.92 g/m*3 4.68 C 3.34167 km/h
611 28-02-2019 10:00:00 7.65833 C 6.83 g/m*3 6.03 C 9.01667 km/h
612 28-02-2019 11:00:00 11.56667 C 7.5 g/m*3 11.57 C 12.63333 km/h
613 28-02-2019 12:00:00 13.26667 C 7.75 g/m*3 13.27 C 11.16667 km/h
614 28-02-2019 13:00:00 14.95833 C 8.12 g/m*3 14.96 C 11.56667 km/h
615 28-02-2019 14:00:00 16.61667 C 8.6 g/m*3 16.62 C 12.89167 km/h
616 28-02-2019 15:00:00 16.76667 C 8.7 g/m*3 16.77 C 11.15 km/h
617 28-02-2019 16:00:00 15.20833 C 8.3 g/m*3 15.21 C 17.175 km/h
618 28-02-2019 17:00:00 12.73333 C 7.56 g/m*3 12.73 C 18.10833 km/h
619 28-02-2019 18:00:00 12.13333 C 7.68 g/m*3 12.13 C 9.425 km/h
620 28-02-2019 19:00:00 11.26667 C 7.7 g/m*3 11.27 C 8.86667 km/h
621 28-02-2019 20:00:00 11.09167 C 7.91 g/m*3 11.09 C 11.43333 km/h
622 28-02-2019 21:00:00 10.975 C 8.07 g/m*3 9.52 C 11.83333 km/h
623 28-02-2019 22:00:00 10.84167 C 8.1 g/m*3 9.6 C 10.20833 km/h
624 28-02-2019 23:00:00 10.26667 C 8.27 g/m*3 9.03 C 9.525 km/h
625 01-03-2019 00:00:00 9.075 C 8.14 g/m*3 9.07 C 4.68333 km/h
Sensor: Nr:Datum:Temp:Abs-Feuchte:Windchill:Wind:
Aussen-T/F 626 01-03-2019 01:00:00 8.68333 C 8.1 g/m*3 8.68 C 4.675 km/h
627 01-03-2019 02:00:00 8.69167 C 8.07 g/m*3 7.15 C 9.55 km/h
628 01-03-2019 03:00:00 8.8 C 7.96 g/m*3 7.33 C 9.275 km/h
629 01-03-2019 04:00:00 8.75833 C 7.9 g/m*3 8.12 C 5.75 km/h
630 01-03-2019 05:00:00 8.63333 C 7.9 g/m*3 8.63 C 3.60833 km/h
631 01-03-2019 06:00:00 8.20833 C 7.84 g/m*3 8.21 C 3.475 km/h
632 01-03-2019 07:00:00 8.21667 C 7.96 g/m*3 8.22 C 3.60833 km/h
633 01-03-2019 08:00:00 8.53333 C 8.13 g/m*3 8.53 C 2.8 km/h
634 01-03-2019 09:00:00 8.68333 C 8.21 g/m*3 8.68 C 0.8 km/h
635 01-03-2019 10:00:00 8.66667 C 8.28 g/m*3 8.67 C 0.26667 km/h
636 01-03-2019 11:00:00 8.75833 C 8.25 g/m*3 8.76 C 2.66667 km/h
637 01-03-2019 12:00:00 9.01667 C 8.07 g/m*3 7.09 C 12.21667 km/h
638 01-03-2019 13:00:00 8.49167 C 7.81 g/m*3 6.79 C 10.19167 km/h
639 01-03-2019 14:00:00 8.38333 C 7.66 g/m*3 7 C 8.475 km/h
640 01-03-2019 15:00:00 8.325 C 7.57 g/m*3 7.65 C 5.63333 km/h
641 01-03-2019 16:00:00 8.34167 C 7.65 g/m*3 8.34 C 4.68333 km/h
642 01-03-2019 17:00:00 8.28333 C 7.66 g/m*3 8.28 C 3.21667 km/h
643 01-03-2019 18:00:00 7.61667 C 7.21 g/m*3 5.35 C 12.5 km/h
644 01-03-2019 19:00:00 6.9 C 6.92 g/m*3 5.29 C 8.31667 km/h
645 01-03-2019 20:00:00 6.625 C 6.88 g/m*3 6.63 C 1.73333 km/h
646 01-03-2019 21:00:00 6.45 C 6.78 g/m*3 6.45 C 1.2 km/h
647 01-03-2019 22:00:00 6.375 C 6.71 g/m*3 6.38 C 1.73333 km/h
648 01-03-2019 23:00:00 6.53333 C 6.66 g/m*3 6.53 C 0.93333 km/h
649 02-03-2019 00:00:00 6.19167 C 6.55 g/m*3 6.19 C 4.30833 km/h
650 02-03-2019 01:00:00 5.85 C 6.4 g/m*3 5.85 C 1.6 km/h
Sensor: Nr:Datum:Temp:Abs-Feuchte:Windchill:Wind:
Aussen-T/F 651 02-03-2019 02:00:00 5.64167 C 6.43 g/m*3 5.64 C 0.93333 km/h
652 02-03-2019 03:00:00 5.65 C 6.43 g/m*3 5.65 C 1.46667 km/h
653 02-03-2019 04:00:00 5.7 C 6.47 g/m*3 5.7 C 0.26667 km/h
654 02-03-2019 05:00:00 6.10833 C 6.65 g/m*3 6.11 C 4.80833 km/h
655 02-03-2019 06:00:00 6.30833 C 6.74 g/m*3 6.31 C 3.73333 km/h
656 02-03-2019 07:00:00 6.65 C 6.89 g/m*3 6.65 C 4.68333 km/h
657 02-03-2019 08:00:00 7.01667 C 7.01 g/m*3 7.02 C 4.94167 km/h
658 02-03-2019 09:00:00 7.66667 C 7.19 g/m*3 5.96 C 9.41667 km/h
659 02-03-2019 10:00:00 8.05 C 7.28 g/m*3 6.73 C 7.925 km/h
660 02-03-2019 11:00:00 8.99167 C 7.53 g/m*3 7.61 C 9.025 km/h
661 02-03-2019 12:00:00 9.94167 C 7.75 g/m*3 8.71 C 9.16667 km/h
662 02-03-2019 13:00:00 10.63333 C 7.82 g/m*3 9.66 C 8.475 km/h
663 02-03-2019 14:00:00 11.40833 C 7.76 g/m*3 11.41 C 6.975 km/h
664 02-03-2019 15:00:00 11.925 C 7.67 g/m*3 11.93 C 8.75 km/h
665 02-03-2019 16:00:00 12.35 C 7.67 g/m*3 12.35 C 10.625 km/h
666 02-03-2019 17:00:00 11.35833 C 7.73 g/m*3 11.36 C 14.5 km/h
667 02-03-2019 18:00:00 10.55 C 7.84 g/m*3 9.09 C 11.28333 km/h
668 02-03-2019 19:00:00 9.84167 C 8 g/m*3 8.11 C 12.1 km/h
669 02-03-2019 20:00:00 9.53333 C 7.96 g/m*3 7.84 C 11.41667 km/h
670 02-03-2019 21:00:00 9.83333 C 8.13 g/m*3 7.98 C 12.9 km/h
671 02-03-2019 22:00:00 10.25 C 8.11 g/m*3 8.53 C 12.61667 km/h
672 02-03-2019 23:00:00 9.96667 C 7.8 g/m*3 8.58 C 10.08333 km/h
673 03-03-2019 00:00:00 9.05833 C 7.33 g/m*3 8.49 C 5.63333 km/h
674 03-03-2019 01:00:00 9.175 C 7.6 g/m*3 7.47 C 11.00833 km/h
675 03-03-2019 02:00:00 9.98333 C 7.63 g/m*3 8.19 C 12.74167 km/h
Sensor: Nr:Datum:Temp:Abs-Feuchte:Windchill:Wind:
Aussen-T/F 676 03-03-2019 03:00:00 10 C 7.61 g/m*3 8.3 C 12.09167 km/h
677 03-03-2019 04:00:00 10.225 C 7.71 g/m*3 8.5 C 12.63333 km/h
678 03-03-2019 05:00:00 10.20833 C 7.6 g/m*3 8.39 C 13.28333 km/h
679 03-03-2019 06:00:00 10.10833 C 7.65 g/m*3 8.51 C 11.55 km/h
680 03-03-2019 07:00:00 10.13333 C 7.68 g/m*3 8.28 C 13.425 km/h
681 03-03-2019 08:00:00 10.31667 C 7.81 g/m*3 7.58 C 22.11667 km/h
682 03-03-2019 09:00:00 10.875 C 8.06 g/m*3 8.13 C 24.125 km/h
683 03-03-2019 10:00:00 11.15833 C 8.19 g/m*3 11.16 C 26.01667 km/h
684 03-03-2019 11:00:00 11.00833 C 8.21 g/m*3 11.01 C 15.16667 km/h
685 03-03-2019 12:00:00 11.225 C 8.33 g/m*3 11.23 C 16.36667 km/h
686 03-03-2019 13:00:00 11.73333 C 8.44 g/m*3 11.73 C 11.15833 km/h
687 03-03-2019 14:00:00 11.79167 C 8.42 g/m*3 11.79 C 13.15833 km/h
688 03-03-2019 15:00:00 11.7 C 8.5 g/m*3 11.7 C 14.625 km/h
689 03-03-2019 16:00:00 11.7 C 8.52 g/m*3 11.7 C 14.36667 km/h
690 03-03-2019 17:00:00 11.9 C 8.41 g/m*3 11.9 C 13.43333 km/h
691 03-03-2019 18:00:00 12.18333 C 8.35 g/m*3 12.18 C 14.5 km/h
692 03-03-2019 19:00:00 12.28333 C 8.23 g/m*3 12.28 C 13.83333 km/h
693 03-03-2019 20:00:00 12.33333 C 8.27 g/m*3 12.33 C 14.36667 km/h
694 03-03-2019 21:00:00 12.33333 C 8.39 g/m*3 12.33 C 21.05 km/h
695 03-03-2019 22:00:00 12.525 C 8.43 g/m*3 12.53 C 18.36667 km/h
696 03-03-2019 23:00:00 12.75833 C 8.24 g/m*3 12.76 C 6.43333 km/h
697 04-03-2019 00:00:00 13.10833 C 8.13 g/m*3 13.11 C 8.33333 km/h
698 04-03-2019 01:00:00 13.50833 C 8.02 g/m*3 13.51 C 13.54167 km/h
699 04-03-2019 02:00:00 12.66667 C 8.38 g/m*3 12.67 C 27.74167 km/h
700 04-03-2019 03:00:00 11.79167 C 8.46 g/m*3 11.79 C 18.10833 km/h
Sensor: Nr:Datum:Temp:Abs-Feuchte:Windchill:Wind:
Aussen-T/F 701 04-03-2019 04:00:00 11.675 C 8.51 g/m*3 11.68 C 10.75 km/h
702 04-03-2019 05:00:00 11.63333 C 8.34 g/m*3 11.63 C 9.26667 km/h
703 04-03-2019 06:00:00 11.45 C 8.13 g/m*3 11.45 C 12.20833 km/h
704 04-03-2019 07:00:00 12 C 7.87 g/m*3 12 C 16.9 km/h
705 04-03-2019 08:00:00 11.49167 C 7.55 g/m*3 11.49 C 31.91667 km/h
706 04-03-2019 09:00:00 9.39167 C 6.9 g/m*3 6.12 C 25.475 km/h
707 04-03-2019 10:00:00 9.90833 C 7.15 g/m*3 6.92 C 23.85833 km/h
708 04-03-2019 11:00:00 11.23333 C 7.03 g/m*3 11.23 C 27.36667 km/h
709 04-03-2019 12:00:00 10.98333 C 7.29 g/m*3 8.02 C 27.63333 km/h
710 04-03-2019 13:00:00 9.73333 C 7.77 g/m*3 6.6 C 24.925 km/h
711 04-03-2019 14:00:00 9.44167 C 7.56 g/m*3 6.35 C 23.44167 km/h
712 04-03-2019 15:00:00 7.1 C 6.58 g/m*3 4.35 C 14.9 km/h
713 04-03-2019 16:00:00 7.54167 C 6.39 g/m*3 4.79 C 15.7 km/h
714 04-03-2019 17:00:00 7.4 C 6.26 g/m*3 5.15 C 12.1 km/h
715 04-03-2019 18:00:00 6.96667 C 6.22 g/m*3 4.79 C 11.15 km/h
716 04-03-2019 19:00:00 6.86667 C 6.25 g/m*3 4.1 C 14.63333 km/h
717 04-03-2019 20:00:00 6.95 C 6.29 g/m*3 4.51 C 12.625 km/h
718 04-03-2019 21:00:00 6.61667 C 6.29 g/m*3 4.54 C 10.225 km/h
719 04-03-2019 22:00:00 7.09167 C 6.45 g/m*3 4.2 C 15.96667 km/h
720 04-03-2019 23:00:00 6.7 C 6.36 g/m*3 4.47 C 11.13333 km/h
721 05-03-2019 00:00:00 6.875 C 6.26 g/m*3 4.45 C 12.475 km/h
722 05-03-2019 01:00:00 6.875 C 6.19 g/m*3 4.38 C 12.9 km/h
723 05-03-2019 02:00:00 6.79167 C 6.11 g/m*3 3.57 C 17.96667 km/h
724 05-03-2019 03:00:00 6.74167 C 6.13 g/m*3 3.6 C 17.16667 km/h
725 05-03-2019 04:00:00 6.425 C 6.04 g/m*3 3.58 C 14.49167 km/h
Sensor: Nr:Datum:Temp:Abs-Feuchte:Windchill:Wind:
Aussen-T/F 726 05-03-2019 05:00:00 6.35 C 6.01 g/m*3 3.45 C 14.76667 km/h
727 05-03-2019 06:00:00 6.24167 C 5.88 g/m*3 3.46 C 13.83333 km/h
728 05-03-2019 07:00:00 6.475 C 5.93 g/m*3 3.06 C 18.90833 km/h
729 05-03-2019 08:00:00 6.64167 C 6.07 g/m*3 3.23 C 19.16667 km/h
730 05-03-2019 09:00:00 6.50833 C 6.25 g/m*3 3.51 C 15.7 km/h
731 05-03-2019 10:00:00 6.625 C 6.44 g/m*3 4.3 C 11.56667 km/h
732 05-03-2019 11:00:00 6.99167 C 6.53 g/m*3 4.61 C 12.36667 km/h
733 05-03-2019 12:00:00 7.3 C 6.45 g/m*3 4.77 C 13.7 km/h
734 05-03-2019 13:00:00 7.96667 C 6.58 g/m*3 5.81 C 12.23333 km/h
735 05-03-2019 14:00:00 8.65 C 6.68 g/m*3 6.48 C 13.3 km/h
736 05-03-2019 15:00:00 8.95833 C 6.59 g/m*3 7.12 C 11.55833 km/h
737 05-03-2019 16:00:00 9.81667 C 6.76 g/m*3 8.31 C 10.625 km/h
738 05-03-2019 17:00:00 9.34167 C 6.68 g/m*3 7.93 C 9.54167 km/h
739 05-03-2019 18:00:00 7.13333 C 6.3 g/m*3 6.21 C 5.89167 km/h
740 05-03-2019 19:00:00 6.55 C 6.21 g/m*3 5.54 C 5.88333 km/h
741 05-03-2019 20:00:00 5.46667 C 5.97 g/m*3 5.47 C 1.46667 km/h
742 05-03-2019 21:00:00 4.275 C 5.8 g/m*3 4.28 C 0.66667 km/h
743 05-03-2019 22:00:00 4.70833 C 6.13 g/m*3 4.71 C 0.26667 km/h
744 05-03-2019 23:00:00 5.26667 C 6.36 g/m*3 5.27 C 0 km/h
745 06-03-2019 00:00:00 5.65 C 6.5 g/m*3 5.65 C 0.66667 km/h
746 06-03-2019 01:00:00 6.15 C 6.71 g/m*3 6.15 C 0.4 km/h
747 06-03-2019 02:00:00 7.03333 C 6.98 g/m*3 7.03 C 3.46667 km/h
748 06-03-2019 03:00:00 7 C 6.93 g/m*3 7 C 0.26667 km/h
749 06-03-2019 04:00:00 6.81667 C 6.97 g/m*3 6.82 C 2.675 km/h
750 06-03-2019 05:00:00 7.175 C 6.99 g/m*3 6.1 C 6.43333 km/h
Sensor: Nr:Datum:Temp:Abs-Feuchte:Windchill:Wind:
Aussen-T/F 751 06-03-2019 06:00:00 6.40833 C 6.68 g/m*3 6.41 C 2.675 km/h
752 06-03-2019 07:00:00 5.44167 C 6.38 g/m*3 5.44 C 1.2 km/h
753 06-03-2019 08:00:00 6.43333 C 6.8 g/m*3 6.43 C 2.93333 km/h
754 06-03-2019 09:00:00 8.15833 C 7.04 g/m*3 8.16 C 2.66667 km/h
755 06-03-2019 10:00:00 10.00833 C 7.18 g/m*3 10.01 C 4.025 km/h
756 06-03-2019 11:00:00 12.275 C 7.09 g/m*3 12.28 C 7.24167 km/h
757 06-03-2019 12:00:00 13.31667 C 6.85 g/m*3 13.32 C 6.58333 km/h
758 06-03-2019 13:00:00 13.375 C 7.08 g/m*3 13.38 C 5.35 km/h
759 06-03-2019 14:00:00 13.7 C 7.31 g/m*3 13.7 C 2.66667 km/h
760 06-03-2019 15:00:00 14.56667 C 7.34 g/m*3 14.57 C 3.875 km/h
761 06-03-2019 16:00:00 15.19167 C 7.45 g/m*3 15.19 C 4.14167 km/h
762 06-03-2019 17:00:00 13.93333 C 8.2 g/m*3 13.93 C 3.475 km/h
763 06-03-2019 18:00:00 13.00833 C 8.24 g/m*3 13.01 C 4.26667 km/h
764 06-03-2019 19:00:00 11.65833 C 8.48 g/m*3 11.66 C 1.86667 km/h
765 06-03-2019 20:00:00 10.65 C 8.31 g/m*3 10.65 C 0.4 km/h
766 06-03-2019 21:00:00 10.675 C 8.25 g/m*3 10.68 C 0.4 km/h
767 06-03-2019 22:00:00 10.66667 C 8.25 g/m*3 10.67 C 1.33333 km/h
768 06-03-2019 23:00:00 11.175 C 8.23 g/m*3 11.18 C 3.475 km/h
769 07-03-2019 00:00:00 11.05833 C 8.41 g/m*3 11.06 C 3.33333 km/h
770 07-03-2019 01:00:00 10.93333 C 8.72 g/m*3 10.93 C 2.26667 km/h
771 07-03-2019 02:00:00 10.025 C 8.63 g/m*3 10.03 C 0.53333 km/h
772 07-03-2019 03:00:00 9.58333 C 8.47 g/m*3 9.58 C 1.33333 km/h
773 07-03-2019 04:00:00 10.08333 C 8.37 g/m*3 10.08 C 3.46667 km/h
774 07-03-2019 05:00:00 11.45 C 8.2 g/m*3 11.45 C 9.40833 km/h
775 07-03-2019 06:00:00 12.05833 C 7.91 g/m*3 12.06 C 17.16667 km/h
Sensor: Nr:Datum:Temp:Abs-Feuchte:Windchill:Wind:
Aussen-T/F 776 07-03-2019 07:00:00 11.325 C 7.59 g/m*3 11.33 C 24.53333 km/h
777 07-03-2019 08:00:00 10.69167 C 7.45 g/m*3 7.94 C 23.58333 km/h
778 07-03-2019 09:00:00 10.06667 C 7.8 g/m*3 7.2 C 22.90833 km/h
779 07-03-2019 10:00:00 10.225 C 7.83 g/m*3 7.22 C 25.19167 km/h
780 07-03-2019 11:00:00 9.8 C 7.79 g/m*3 6.61 C 25.88333 km/h
781 07-03-2019 12:00:00 10.78333 C 7.37 g/m*3 8.11 C 22.94167 km/h
782 07-03-2019 13:00:00 12 C 7.32 g/m*3 12 C 19.70833 km/h
783 07-03-2019 14:00:00 10.40833 C 7.53 g/m*3 8.26 C 16.36667 km/h
784 07-03-2019 15:00:00 10.825 C 7.33 g/m*3 8.72 C 16.9 km/h
785 07-03-2019 16:00:00 9.88333 C 7.38 g/m*3 7.88 C 14.09167 km/h
786 07-03-2019 17:00:00 10.14167 C 7.11 g/m*3 8.18 C 14.23333 km/h
787 07-03-2019 18:00:00 9.45 C 6.57 g/m*3 7.2 C 15.3 km/h
788 07-03-2019 19:00:00 8.46667 C 6.77 g/m*3 6.09 C 14.5 km/h
789 07-03-2019 20:00:00 8.64167 C 6.6 g/m*3 5.82 C 18.5 km/h
790 07-03-2019 21:00:00 9.23333 C 6.67 g/m*3 6.58 C 18.36667 km/h
791 07-03-2019 22:00:00 9.2 C 6.67 g/m*3 6.59 C 17.83333 km/h
792 07-03-2019 23:00:00 8.64167 C 6.63 g/m*3 6.51 C 13.03333 km/h
793 08-03-2019 00:00:00 7.65833 C 6.81 g/m*3 5.87 C 9.80833 km/h
794 08-03-2019 01:00:00 7.05833 C 6.68 g/m*3 4.88 C 11.275 km/h
795 08-03-2019 02:00:00 8.15833 C 6.46 g/m*3 5.35 C 17.3 km/h
796 08-03-2019 03:00:00 8.15 C 6.27 g/m*3 5.34 C 17.3 km/h
797 08-03-2019 04:00:00 8.05 C 6.32 g/m*3 5.45 C 15.43333 km/h
798 08-03-2019 05:00:00 7.8 C 6.38 g/m*3 4.91 C 17.3 km/h
799 08-03-2019 06:00:00 7.60833 C 6.44 g/m*3 4.49 C 18.775 km/h
800 08-03-2019 07:00:00 7.7 C 6.52 g/m*3 4.39 C 20.775 km/h
Sensor: Nr:Datum:Temp:Abs-Feuchte:Windchill:Wind:
Aussen-T/F 801 08-03-2019 08:00:00 7.85 C 6.69 g/m*3 5.2 C 15.43333 km/h
802 08-03-2019 09:00:00 7.68333 C 6.91 g/m*3 5.2 C 13.96667 km/h
803 08-03-2019 10:00:00 7.75 C 6.92 g/m*3 5.57 C 12.1 km/h
804 08-03-2019 11:00:00 8.65833 C 6.84 g/m*3 6.53 C 13.03333 km/h
805 08-03-2019 12:00:00 9.21667 C 6.44 g/m*3 7.03 C 14.36667 km/h
806 08-03-2019 13:00:00 9.8 C 6.39 g/m*3 7.63 C 15.3 km/h
807 08-03-2019 14:00:00 10.34167 C 6.17 g/m*3 8.32 C 15.16667 km/h
808 08-03-2019 15:00:00 11.25 C 6.3 g/m*3 11.25 C 14.5 km/h
809 08-03-2019 16:00:00 10.26667 C 6.7 g/m*3 8.71 C 11.53333 km/h
810 08-03-2019 17:00:00 9.15833 C 6.91 g/m*3 7.81 C 9.00833 km/h
811 08-03-2019 18:00:00 7.425 C 6.79 g/m*3 6.63 C 5.625 km/h
812 08-03-2019 19:00:00 6.83333 C 6.73 g/m*3 6.83 C 1.06667 km/h
813 08-03-2019 20:00:00 6.3 C 6.63 g/m*3 6.3 C 0 km/h
814 08-03-2019 21:00:00 6.525 C 6.71 g/m*3 6.53 C 2.54167 km/h
815 08-03-2019 22:00:00 7.025 C 6.63 g/m*3 7.03 C 4.41667 km/h
816 08-03-2019 23:00:00 8.25833 C 6.55 g/m*3 7.31 C 6.56667 km/h
817 09-03-2019 00:00:00 8.56667 C 6.47 g/m*3 6.58 C 11.96667 km/h
818 09-03-2019 01:00:00 9.15833 C 6.47 g/m*3 6.65 C 16.9 km/h
819 09-03-2019 02:00:00 9.375 C 6.54 g/m*3 6.32 C 22.91667 km/h
820 09-03-2019 03:00:00 9.03333 C 6.75 g/m*3 5.29 C 30.29167 km/h
821 09-03-2019 04:00:00 7.95833 C 7 g/m*3 4.14 C 27.08333 km/h
822 09-03-2019 05:00:00 7.775 C 7.12 g/m*3 4.54 C 20.24167 km/h
823 09-03-2019 06:00:00 8.08333 C 7.31 g/m*3 5.71 C 13.83333 km/h
824 09-03-2019 07:00:00 8.63333 C 7.51 g/m*3 6.69 C 11.83333 km/h
825 09-03-2019 08:00:00 9.45 C 7.73 g/m*3 7.42 C 13.55833 km/h
Sensor: Nr:Datum:Temp:Abs-Feuchte:Windchill:Wind:
Aussen-T/F 826 09-03-2019 09:00:00 10.15833 C 7.94 g/m*3 7.91 C 16.76667 km/h
827 09-03-2019 10:00:00 10.50833 C 7.9 g/m*3 8.79 C 13.03333 km/h
828 09-03-2019 11:00:00 10.925 C 7.95 g/m*3 9.07 C 14.9 km/h
829 09-03-2019 12:00:00 11.71667 C 8.03 g/m*3 11.72 C 19.98333 km/h
830 09-03-2019 13:00:00 12.525 C 8.21 g/m*3 12.53 C 17.7 km/h
831 09-03-2019 14:00:00 13.48333 C 8.15 g/m*3 13.48 C 25.86667 km/h
832 09-03-2019 15:00:00 13.30833 C 7.96 g/m*3 13.31 C 26.675 km/h
833 09-03-2019 16:00:00 13.39167 C 7.37 g/m*3 13.39 C 29.625 km/h
834 09-03-2019 17:00:00 13.05833 C 6.9 g/m*3 13.06 C 23.46667 km/h
835 09-03-2019 18:00:00 12.01667 C 6.68 g/m*3 12.02 C 23.46667 km/h
836 09-03-2019 19:00:00 10.65833 C 7.27 g/m*3 8.99 C 12.89167 km/h
837 09-03-2019 20:00:00 9.45 C 7.46 g/m*3 9.45 C 3.89167 km/h
838 09-03-2019 21:00:00 9.66667 C 7.56 g/m*3 8.81 C 7.11667 km/h
839 09-03-2019 22:00:00 9.60833 C 7.33 g/m*3 8.74 C 7.125 km/h
840 09-03-2019 23:00:00 10.34167 C 6.85 g/m*3 8.48 C 13.83333 km/h
841 10-03-2019 00:00:00 10.11667 C 6.59 g/m*3 8.44 C 12.08333 km/h
842 10-03-2019 01:00:00 9.66667 C 6.48 g/m*3 8.91 C 6.70833 km/h
843 10-03-2019 02:00:00 9.40833 C 6.66 g/m*3 8.71 C 6.29167 km/h
844 10-03-2019 03:00:00 9.1 C 6.86 g/m*3 9.1 C 1.06667 km/h
845 10-03-2019 04:00:00 8.325 C 7.18 g/m*3 8.32 C 0 km/h
846 10-03-2019 05:00:00 7.8 C 7.42 g/m*3 7.8 C 0 km/h
847 10-03-2019 06:00:00 7.475 C 7.47 g/m*3 7.48 C 0 km/h
848 10-03-2019 07:00:00 7.675 C 7.68 g/m*3 7.68 C 0 km/h
849 10-03-2019 08:00:00 8.86667 C 8.38 g/m*3 7.69 C 7.925 km/h
850 10-03-2019 09:00:00 10.58333 C 9.28 g/m*3 9.25 C 10.475 km/h
Sensor: Nr:Datum:Temp:Abs-Feuchte:Windchill:Wind:
Aussen-T/F 851 10-03-2019 10:00:00 11.95833 C 9.92 g/m*3 11.96 C 9.825 km/h
852 10-03-2019 11:00:00 13.14167 C 9.01 g/m*3 13.14 C 21.175 km/h
853 10-03-2019 12:00:00 14.125 C 8.78 g/m*3 14.13 C 24.65833 km/h
854 10-03-2019 13:00:00 14.4 C 7.98 g/m*3 14.4 C 30.575 km/h
855 10-03-2019 14:00:00 14.40833 C 6.43 g/m*3 14.41 C 39.13333 km/h
856 10-03-2019 15:00:00 13.55833 C 5.9 g/m*3 13.56 C 37 km/h
857 10-03-2019 16:00:00 12.53333 C 5.53 g/m*3 12.53 C 36.475 km/h
858 10-03-2019 17:00:00 10.38333 C 6.06 g/m*3 7.75 C 21.19167 km/h
859 10-03-2019 18:00:00 7.69167 C 6.5 g/m*3 4.44 C 20.25 km/h
860 10-03-2019 19:00:00 6.94167 C 6.07 g/m*3 3.5 C 20.10833 km/h
861 10-03-2019 20:00:00 6.075 C 5.5 g/m*3 1.97 C 24.26667 km/h
862 10-03-2019 21:00:00 5.21667 C 5.46 g/m*3 2.27 C 13.43333 km/h
863 10-03-2019 22:00:00 5.05833 C 5.45 g/m*3 2.79 C 9.7 km/h
864 10-03-2019 23:00:00 4.85833 C 5.41 g/m*3 2.72 C 8.99167 km/h
865 11-03-2019 00:00:00 4.34167 C 5.27 g/m*3 3.1 C 5.61667 km/h
866 11-03-2019 01:00:00 4.50833 C 5.24 g/m*3 2.11 C 9.80833 km/h
867 11-03-2019 02:00:00 5.10833 C 5.4 g/m*3 1.94 C 14.63333 km/h
868 11-03-2019 03:00:00 3.65833 C 5.3 g/m*3 0.78 C 11.26667 km/h
869 11-03-2019 04:00:00 2.36667 C 5.27 g/m*3 2.37 C 1.86667 km/h
870 11-03-2019 05:00:00 2.20833 C 5.23 g/m*3 -1.96 C 16.63333 km/h
871 11-03-2019 06:00:00 1.74167 C 5.05 g/m*3 -0.9 C 8.71667 km/h
872 11-03-2019 07:00:00 1.525 C 5.07 g/m*3 1.53 C 3.33333 km/h
873 11-03-2019 08:00:00 2.31667 C 5.39 g/m*3 2.32 C 4.28333 km/h
874 11-03-2019 09:00:00 3.34167 C 5.44 g/m*3 -0.07 C 13.7 km/h
875 11-03-2019 10:00:00 3.925 C 5.59 g/m*3 0.76 C 13.03333 km/h
Sensor: Nr:Datum:Temp:Abs-Feuchte:Windchill:Wind:
Aussen-T/F 876 11-03-2019 11:00:00 4.875 C 5.55 g/m*3 1.72 C 14.23333 km/h
877 11-03-2019 12:00:00 5.60833 C 5.4 g/m*3 2.36 C 15.96667 km/h
878 11-03-2019 13:00:00 6.575 C 5.41 g/m*3 3.23 C 18.5 km/h
879 11-03-2019 14:00:00 7.04167 C 5.45 g/m*3 3.75 C 19.04167 km/h
880 11-03-2019 15:00:00 7.63333 C 5.39 g/m*3 4.12 C 22.64167 km/h
881 11-03-2019 16:00:00 7.26667 C 5.38 g/m*3 4.04 C 19.03333 km/h
882 11-03-2019 17:00:00 7.175 C 5.5 g/m*3 4.88 C 12.08333 km/h
883 11-03-2019 18:00:00 6.93333 C 5.3 g/m*3 4.6 C 11.96667 km/h
884 11-03-2019 19:00:00 5.83333 C 5.22 g/m*3 2.89 C 14.23333 km/h
885 11-03-2019 20:00:00 5.68333 C 5.22 g/m*3 2.75 C 13.96667 km/h
886 11-03-2019 21:00:00 5.28333 C 5.19 g/m*3 3.06 C 9.69167 km/h
887 11-03-2019 22:00:00 5.34167 C 5.17 g/m*3 3.32 C 8.86667 km/h
888 11-03-2019 23:00:00 4.75 C 5.08 g/m*3 3.52 C 5.75833 km/h
889 12-03-2019 00:00:00 4.19167 C 5.16 g/m*3 2.61 C 6.55833 km/h
890 12-03-2019 01:00:00 3.225 C 5.08 g/m*3 3.23 C 4.41667 km/h
891 12-03-2019 02:00:00 2.15833 C 4.89 g/m*3 2.16 C 3.875 km/h
892 12-03-2019 03:00:00 1.65833 C 4.82 g/m*3 1.66 C 4.41667 km/h
893 12-03-2019 04:00:00 1.33333 C 4.75 g/m*3 1.33 C 4.40833 km/h
894 12-03-2019 05:00:00 1.625 C 4.88 g/m*3 1.63 C 3.6 km/h
895 12-03-2019 06:00:00 1.76667 C 4.9 g/m*3 1.77 C 2.93333 km/h
896 12-03-2019 07:00:00 1.93333 C 5.02 g/m*3 1.93 C 0 km/h
897 12-03-2019 08:00:00 3.25 C 5.38 g/m*3 3.25 C 1.33333 km/h
898 12-03-2019 09:00:00 5.20833 C 5.68 g/m*3 5.21 C 2.28333 km/h
899 12-03-2019 10:00:00 7.4 C 5.75 g/m*3 5.31 C 11.16667 km/h
900 12-03-2019 11:00:00 8.78333 C 5.53 g/m*3 6.67 C 13.16667 km/h
Sensor: Nr:Datum:Temp:Abs-Feuchte:Windchill:Wind:
Aussen-T/F 901 12-03-2019 12:00:00 9.40833 C 5.54 g/m*3 7.58 C 12.09167 km/h
902 12-03-2019 13:00:00 9.74167 C 5.49 g/m*3 8.26 C 10.35 km/h
903 12-03-2019 14:00:00 10.18333 C 5.48 g/m*3 9.15 C 8.34167 km/h
904 12-03-2019 15:00:00 10.56667 C 5.26 g/m*3 9.15 C 11.025 km/h
905 12-03-2019 16:00:00 10.33333 C 4.82 g/m*3 9.47 C 7.65833 km/h
906 12-03-2019 17:00:00 9.34167 C 5 g/m*3 9.34 C 1.6 km/h
907 12-03-2019 18:00:00 8.1 C 5.1 g/m*3 8.1 C 2.275 km/h
908 12-03-2019 19:00:00 8.725 C 4.69 g/m*3 8.73 C 4.01667 km/h
909 12-03-2019 20:00:00 9.425 C 4.21 g/m*3 8.69 C 6.45 km/h
910 12-03-2019 21:00:00 10.74167 C 4.5 g/m*3 9.26 C 11.68333 km/h
911 12-03-2019 22:00:00 11.14167 C 5.45 g/m*3 11.14 C 22.93333 km/h
912 12-03-2019 23:00:00 8.53333 C 6.56 g/m*3 5.7 C 18.36667 km/h
913 13-03-2019 00:00:00 6.53333 C 6.06 g/m*3 3.69 C 14.63333 km/h
914 13-03-2019 01:00:00 5.74167 C 5.67 g/m*3 2.62 C 15.3 km/h
915 13-03-2019 02:00:00 5.425 C 5.6 g/m*3 3.01 C 10.75833 km/h
916 13-03-2019 03:00:00 5.74167 C 5.51 g/m*3 3.16 C 11.95 km/h
917 13-03-2019 04:00:00 5.53333 C 5.61 g/m*3 3.01 C 11.40833 km/h
918 13-03-2019 05:00:00 5.34167 C 5.77 g/m*3 2.33 C 13.95833 km/h
919 13-03-2019 06:00:00 5.16667 C 5.69 g/m*3 1.53 C 17.96667 km/h
920 13-03-2019 07:00:00 5.46667 C 5.65 g/m*3 1.69 C 19.71667 km/h
921 13-03-2019 08:00:00 6.08333 C 5.85 g/m*3 2.68 C 17.96667 km/h
922 13-03-2019 09:00:00 6.5 C 5.84 g/m*3 2.96 C 19.975 km/h
923 13-03-2019 10:00:00 6.94167 C 5.96 g/m*3 3.09 C 24.125 km/h
924 13-03-2019 11:00:00 7.81667 C 6.14 g/m*3 4.23 C 23.98333 km/h
925 13-03-2019 12:00:00 8.15833 C 6.22 g/m*3 4.85 C 21.975 km/h
Sensor: Nr:Datum:Temp:Abs-Feuchte:Windchill:Wind:
Aussen-T/F 926 13-03-2019 13:00:00 7.95833 C 6.31 g/m*3 4.31 C 25.075 km/h
927 13-03-2019 14:00:00 8.05 C 6.48 g/m*3 4.83 C 20.775 km/h
928 13-03-2019 15:00:00 7.79167 C 6.54 g/m*3 4.68 C 19.175 km/h
929 13-03-2019 16:00:00 6.825 C 6.69 g/m*3 4.15 C 13.96667 km/h
930 13-03-2019 17:00:00 6.65833 C 6.66 g/m*3 3.48 C 17.3 km/h
931 13-03-2019 18:00:00 6.55 C 6.6 g/m*3 3.45 C 16.5 km/h
932 13-03-2019 19:00:00 4.95833 C 6.23 g/m*3 2.34 C 11.29167 km/h
933 13-03-2019 20:00:00 4.94167 C 6.24 g/m*3 1.91 C 13.56667 km/h
934 13-03-2019 21:00:00 4.94167 C 6.27 g/m*3 2.24 C 11.7 km/h
935 13-03-2019 22:00:00 5.04167 C 6.34 g/m*3 2.97 C 8.86667 km/h
936 13-03-2019 23:00:00 4.725 C 6.18 g/m*3 2.91 C 7.65 km/h
937 14-03-2019 00:00:00 4.65 C 6.14 g/m*3 1.57 C 13.43333 km/h
938 14-03-2019 01:00:00 5.13333 C 6.21 g/m*3 2.95 C 9.39167 km/h
939 14-03-2019 02:00:00 4.81667 C 6.17 g/m*3 3.01 C 7.66667 km/h
940 14-03-2019 03:00:00 4.46667 C 6.1 g/m*3 2.97 C 6.43333 km/h
941 14-03-2019 04:00:00 5.05 C 6.36 g/m*3 3.25 C 7.78333 km/h
942 14-03-2019 05:00:00 5.73333 C 6.54 g/m*3 3.75 C 9 km/h
943 14-03-2019 06:00:00 6.13333 C 6.53 g/m*3 4.26 C 8.85833 km/h
944 14-03-2019 07:00:00 6.35 C 6.48 g/m*3 3.55 C 14.1 km/h
945 14-03-2019 08:00:00 6.70833 C 6.51 g/m*3 4.22 C 12.625 km/h
946 14-03-2019 09:00:00 6.41667 C 6.63 g/m*3 3.93 C 12.23333 km/h
947 14-03-2019 10:00:00 6.55 C 6.64 g/m*3 3.62 C 15.3 km/h
948 14-03-2019 11:00:00 6.55833 C 6.71 g/m*3 3.74 C 14.5 km/h
949 14-03-2019 12:00:00 7.15 C 6.94 g/m*3 3.89 C 19.03333 km/h
950 14-03-2019 13:00:00 7.30833 C 7 g/m*3 3.32 C 26.825 km/h
Sensor: Nr:Datum:Temp:Abs-Feuchte:Windchill:Wind:
Aussen-T/F 951 14-03-2019 14:00:00 7.33333 C 6.96 g/m*3 3.57 C 24.39167 km/h
952 14-03-2019 15:00:00 7.69167 C 7.31 g/m*3 4.45 C 20.1 km/h
953 14-03-2019 16:00:00 8.875 C 7.54 g/m*3 6.19 C 17.84167 km/h
954 14-03-2019 17:00:00 9.85833 C 7.88 g/m*3 7.53 C 16.76667 km/h
955 14-03-2019 18:00:00 9.875 C 7.7 g/m*3 8.54 C 9.68333 km/h
956 14-03-2019 19:00:00 9.54167 C 7.07 g/m*3 7.4 C 14.61667 km/h
957 14-03-2019 20:00:00 7.96667 C 7.02 g/m*3 6.37 C 9.13333 km/h
958 14-03-2019 21:00:00 8.2 C 6.95 g/m*3 7.35 C 6.16667 km/h
959 14-03-2019 22:00:00 8.38333 C 6.76 g/m*3 6.4 C 11.7 km/h
960 14-03-2019 23:00:00 8.11667 C 6.6 g/m*3 6.08 C 11.69167 km/h
961 15-03-2019 00:00:00 7.11667 C 6.48 g/m*3 5.42 C 8.88333 km/h
962 15-03-2019 01:00:00 6.38333 C 6.39 g/m*3 4.55 C 8.86667 km/h
963 15-03-2019 02:00:00 6.86667 C 6.57 g/m*3 5.62 C 6.84167 km/h
964 15-03-2019 03:00:00 6.40833 C 6.49 g/m*3 6.41 C 4.81667 km/h
965 15-03-2019 04:00:00 6.04167 C 6.5 g/m*3 6.04 C 4 km/h
966 15-03-2019 05:00:00 7.00833 C 6.79 g/m*3 5.24 C 9.13333 km/h
967 15-03-2019 06:00:00 7.225 C 7.08 g/m*3 7.23 C 4.16667 km/h
968 15-03-2019 07:00:00 7.125 C 7.25 g/m*3 5.43 C 8.85833 km/h
969 15-03-2019 08:00:00 7.49167 C 7.52 g/m*3 6.02 C 8.19167 km/h
970 15-03-2019 09:00:00 8.2 C 7.87 g/m*3 5.67 C 15.16667 km/h
971 15-03-2019 10:00:00 9.375 C 8.49 g/m*3 6.96 C 16.5 km/h
972 15-03-2019 11:00:00 11.05 C 9.2 g/m*3 11.05 C 18.63333 km/h
973 15-03-2019 12:00:00 12.38333 C 9.66 g/m*3 12.38 C 17.03333 km/h
974 15-03-2019 13:00:00 13.11667 C 9.66 g/m*3 13.12 C 18.9 km/h
975 15-03-2019 14:00:00 13.66667 C 9.56 g/m*3 13.67 C 21.43333 km/h
Sensor: Nr:Datum:Temp:Abs-Feuchte:Windchill:Wind:
Aussen-T/F 976 15-03-2019 15:00:00 13.51667 C 9.69 g/m*3 13.52 C 17.70833 km/h
977 15-03-2019 16:00:00 13.38333 C 9.52 g/m*3 13.38 C 19.03333 km/h
978 15-03-2019 17:00:00 13.03333 C 9.4 g/m*3 13.03 C 16.23333 km/h
979 15-03-2019 18:00:00 12.70833 C 9.38 g/m*3 12.71 C 20.10833 km/h
980 15-03-2019 19:00:00 12.64167 C 9.38 g/m*3 12.64 C 14.63333 km/h
981 15-03-2019 20:00:00 12.10833 C 9.45 g/m*3 12.11 C 14.23333 km/h
982 15-03-2019 21:00:00 12.25 C 9.38 g/m*3 12.25 C 14.23333 km/h
983 15-03-2019 22:00:00 12.4 C 9.31 g/m*3 12.4 C 12.61667 km/h
984 15-03-2019 23:00:00 11.85833 C 9.28 g/m*3 11.86 C 7.78333 km/h
985 16-03-2019 00:00:00 11.575 C 9.18 g/m*3 11.58 C 13.29167 km/h
986 16-03-2019 01:00:00 9.79167 C 8.51 g/m*3 7.84 C 13.56667 km/h
987 16-03-2019 02:00:00 8.93333 C 8.09 g/m*3 7.29 C 10.35 km/h
988 16-03-2019 03:00:00 8.41667 C 7.96 g/m*3 8.42 C 1.86667 km/h
989 16-03-2019 04:00:00 8.3 C 8.01 g/m*3 8.3 C 0 km/h
990 16-03-2019 05:00:00 8.3 C 8.01 g/m*3 8.3 C 0 km/h
991 16-03-2019 06:00:00 8.73333 C 8.35 g/m*3 8.73 C 4.7 km/h
992 16-03-2019 07:00:00 9.88333 C 8.87 g/m*3 7.65 C 15.96667 km/h
993 16-03-2019 08:00:00 10.375 C 8.96 g/m*3 8.85 C 11.41667 km/h
994 16-03-2019 09:00:00 10.71667 C 9.02 g/m*3 8.87 C 14.35833 km/h
995 16-03-2019 10:00:00 10.84167 C 8.92 g/m*3 9.04 C 14.23333 km/h
996 16-03-2019 11:00:00 10.825 C 8.84 g/m*3 8.69 C 17.16667 km/h
997 16-03-2019 12:00:00 11.46667 C 8.66 g/m*3 11.47 C 19.18333 km/h
998 16-03-2019 13:00:00 11.75833 C 8.4 g/m*3 11.76 C 17.7 km/h
999 16-03-2019 14:00:00 11.125 C 8.15 g/m*3 11.13 C 19.30833 km/h
1000 16-03-2019 15:00:00 10.94167 C 7.84 g/m*3 9.32 C 13.025 km/h
Sensor: Nr:Datum:Temp:Abs-Feuchte:Windchill:Wind:
Aussen-T/F 1001 16-03-2019 16:00:00 10.99167 C 7.75 g/m*3 9.43 C 12.625 km/h
1002 16-03-2019 17:00:00 10.9 C 7.58 g/m*3 9.28 C 12.9 km/h
1003 16-03-2019 18:00:00 10.69167 C 7.5 g/m*3 9.12 C 12.225 km/h
1004 16-03-2019 19:00:00 10.43333 C 7.34 g/m*3 8.53 C 14.36667 km/h
1005 16-03-2019 20:00:00 10.31667 C 7.24 g/m*3 8.57 C 12.88333 km/h
1006 16-03-2019 21:00:00 10.10833 C 7.39 g/m*3 8 C 15.43333 km/h
1007 16-03-2019 22:00:00 10.09167 C 7.47 g/m*3 7.57 C 19.16667 km/h
1008 16-03-2019 23:00:00 10.11667 C 7.48 g/m*3 7.68 C 18.36667 km/h
1009 17-03-2019 00:00:00 10.29167 C 7.45 g/m*3 7.92 C 18.23333 km/h
1010 17-03-2019 01:00:00 10.425 C 7.43 g/m*3 7.84 C 20.775 km/h
1011 17-03-2019 02:00:00 10.20833 C 7.39 g/m*3 8.06 C 15.96667 km/h
1012 17-03-2019 03:00:00 10.19167 C 7.32 g/m*3 8.37 C 13.3 km/h
1013 17-03-2019 04:00:00 10.11667 C 7.2 g/m*3 7.99 C 15.56667 km/h
1014 17-03-2019 05:00:00 10.28333 C 7.15 g/m*3 7.99 C 17.43333 km/h
1015 17-03-2019 06:00:00 10.23333 C 7.08 g/m*3 8.12 C 15.69167 km/h
1016 17-03-2019 07:00:00 10.24167 C 7.25 g/m*3 7.88 C 17.975 km/h
1017 17-03-2019 08:00:00 10.2 C 7.5 g/m*3 8.11 C 15.43333 km/h
1018 17-03-2019 09:00:00 10.26667 C 7.61 g/m*3 7.97 C 17.43333 km/h
1019 17-03-2019 10:00:00 9.89167 C 7.71 g/m*3 7.65 C 16.1 km/h
1020 17-03-2019 11:00:00 8.075 C 6.98 g/m*3 5.88 C 12.63333 km/h
1021 17-03-2019 12:00:00 8.78333 C 6.87 g/m*3 6.59 C 13.7 km/h
1022 17-03-2019 13:00:00 9.80833 C 7.03 g/m*3 8.07 C 12.1 km/h
1023 17-03-2019 14:00:00 10.71667 C 6.35 g/m*3 8.59 C 16.9 km/h
1024 17-03-2019 15:00:00 11.01667 C 6.55 g/m*3 11.02 C 15.03333 km/h
1025 17-03-2019 16:00:00 10.05 C 6.09 g/m*3 7.78 C 16.64167 km/h
Sensor: Nr:Datum:Temp:Abs-Feuchte:Windchill:Wind:
Aussen-T/F 1026 17-03-2019 17:00:00 7.89167 C 5.7 g/m*3 5.48 C 13.81667 km/h
1027 17-03-2019 18:00:00 7.01667 C 5.86 g/m*3 4.53 C 13.03333 km/h
1028 17-03-2019 19:00:00 5.95833 C 5.83 g/m*3 3.9 C 9.53333 km/h
1029 17-03-2019 20:00:00 4.51667 C 5.85 g/m*3 2.52 C 8.19167 km/h
1030 17-03-2019 21:00:00 4.025 C 5.76 g/m*3 2.33 C 6.825 km/h
1031 17-03-2019 22:00:00 3.875 C 5.66 g/m*3 1.39 C 9.68333 km/h
1032 17-03-2019 23:00:00 3.83333 C 5.53 g/m*3 1.71 C 8.20833 km/h
1033 18-03-2019 00:00:00 2.95 C 5.33 g/m*3 1.35 C 6.04167 km/h
1034 18-03-2019 01:00:00 2.55 C 5.29 g/m*3 0.4 C 7.50833 km/h
1035 18-03-2019 02:00:00 3.225 C 5.49 g/m*3 -0.07 C 12.89167 km/h
1036 18-03-2019 03:00:00 3.61667 C 5.47 g/m*3 1.77 C 7.1 km/h
1037 18-03-2019 04:00:00 3.25 C 5.41 g/m*3 2.02 C 5.2 km/h
1038 18-03-2019 05:00:00 3.10833 C 5.37 g/m*3 0.82 C 8.33333 km/h
1039 18-03-2019 06:00:00 3.95833 C 5.48 g/m*3 0.95 C 12.23333 km/h
1040 18-03-2019 07:00:00 4.225 C 5.58 g/m*3 1.35 C 11.825 km/h
1041 18-03-2019 08:00:00 5.04167 C 5.84 g/m*3 2.19 C 12.63333 km/h
1042 18-03-2019 09:00:00 5.06667 C 6.11 g/m*3 2.84 C 9.54167 km/h
1043 18-03-2019 10:00:00 6.36667 C 6.37 g/m*3 3.99 C 11.55 km/h
1044 18-03-2019 11:00:00 7.74167 C 6.29 g/m*3 5.14 C 14.9 km/h
1045 18-03-2019 12:00:00 8.06667 C 5.97 g/m*3 5.44 C 15.7 km/h
1046 18-03-2019 13:00:00 6.66667 C 6.43 g/m*3 5.21 C 7.51667 km/h
1047 18-03-2019 14:00:00 8.43333 C 6.18 g/m*3 6.72 C 10.21667 km/h
1048 18-03-2019 15:00:00 6.71667 C 6.54 g/m*3 6.72 C 4.55 km/h
1049 18-03-2019 16:00:00 6.875 C 6.62 g/m*3 6.88 C 3.75 km/h
1050 18-03-2019 17:00:00 7.95833 C 6.13 g/m*3 6.97 C 6.56667 km/h
Sensor: Nr:Datum:Temp:Abs-Feuchte:Windchill:Wind:
Aussen-T/F 1051 18-03-2019 18:00:00 7.49167 C 6.03 g/m*3 7.49 C 2.66667 km/h
1052 18-03-2019 19:00:00 5.20833 C 5.88 g/m*3 5.21 C 4.53333 km/h
1053 18-03-2019 20:00:00 4.01667 C 5.47 g/m*3 4.02 C 3.86667 km/h
1054 18-03-2019 21:00:00 3.09167 C 5.26 g/m*3 3.09 C 1.6 km/h
1055 18-03-2019 22:00:00 2.04167 C 5 g/m*3 2.04 C 0.66667 km/h
1056 18-03-2019 23:00:00 1.48333 C 4.93 g/m*3 1.48 C 0 km/h
1057 19-03-2019 00:00:00 0.93333 C 4.77 g/m*3 0.93 C 0 km/h
1058 19-03-2019 01:00:00 0.35833 C 4.62 g/m*3 0.36 C 0 km/h
1059 19-03-2019 02:00:00 -0.04167 C 4.53 g/m*3 -0.04 C 0 km/h
1060 19-03-2019 03:00:00 -0.3 C 4.46 g/m*3 -0.3 C 0 km/h
1061 19-03-2019 04:00:00 -0.70833 C 4.34 g/m*3 -0.71 C 0 km/h
1062 19-03-2019 05:00:00 -1.03333 C 4.25 g/m*3 -1.03 C 0 km/h
1063 19-03-2019 06:00:00 -1.2 C 4.22 g/m*3 -1.2 C 0 km/h
1064 19-03-2019 07:00:00 -0.375 C 4.49 g/m*3 -0.38 C 0.8 km/h
1065 19-03-2019 08:00:00 -0.04167 C 4.59 g/m*3 -0.04 C 0 km/h
1066 19-03-2019 09:00:00 0.675 C 4.83 g/m*3 0.68 C 0.13333 km/h
1067 19-03-2019 10:00:00 2.36667 C 5.39 g/m*3 2.37 C 0 km/h
1068 19-03-2019 11:00:00 5.125 C 5.92 g/m*3 5.13 C 1.60833 km/h
1069 19-03-2019 12:00:00 7.29167 C 5.42 g/m*3 7.29 C 3.75 km/h
1070 19-03-2019 13:00:00 8.93333 C 5.14 g/m*3 7.8 C 7.78333 km/h
1071 19-03-2019 14:00:00 9.975 C 5.3 g/m*3 9.7 C 5.09167 km/h
1072 19-03-2019 15:00:00 10.15 C 5.05 g/m*3 9.12 C 8.33333 km/h
1073 19-03-2019 16:00:00 11.51667 C 5.01 g/m*3 11.52 C 4.96667 km/h
1074 19-03-2019 17:00:00 12.00833 C 4.83 g/m*3 12.01 C 6.85 km/h
1075 19-03-2019 18:00:00 9.65 C 5.58 g/m*3 9.65 C 0 km/h
Sensor: Nr:Datum:Temp:Abs-Feuchte:Windchill:Wind:
Aussen-T/F 1076 19-03-2019 19:00:00 5.6 C 5.46 g/m*3 5.6 C 0 km/h
1077 19-03-2019 20:00:00 4.4 C 5.32 g/m*3 4.4 C 0 km/h
1078 19-03-2019 21:00:00 3.1 C 5.09 g/m*3 3.1 C 0 km/h
1079 19-03-2019 22:00:00 2.025 C 4.84 g/m*3 2.03 C 0 km/h
1080 19-03-2019 23:00:00 1.68333 C 4.77 g/m*3 1.68 C 0.13333 km/h
1081 20-03-2019 00:00:00 0.8 C 4.56 g/m*3 0.8 C 0 km/h
1082 20-03-2019 01:00:00 0.35833 C 4.51 g/m*3 0.36 C 0 km/h
1083 20-03-2019 02:00:00 -0.16667 C 4.38 g/m*3 -0.17 C 0 km/h
1084 20-03-2019 03:00:00 -0.55 C 4.29 g/m*3 -0.55 C 0 km/h
1085 20-03-2019 04:00:00 -0.90833 C 4.22 g/m*3 -0.91 C 0 km/h
1086 20-03-2019 05:00:00 -1.10833 C 4.18 g/m*3 -1.11 C 0 km/h
1087 20-03-2019 06:00:00 -1.225 C 4.17 g/m*3 -1.23 C 0 km/h
1088 20-03-2019 07:00:00 -1.08333 C 4.22 g/m*3 -1.08 C 0 km/h
1089 20-03-2019 08:00:00 -0.675 C 4.37 g/m*3 -0.68 C 0 km/h
1090 20-03-2019 09:00:00 0.575 C 4.79 g/m*3 0.57 C 0 km/h
1091 20-03-2019 10:00:00 4.26667 C 5.82 g/m*3 4.27 C 0 km/h
1092 20-03-2019 11:00:00 8.875 C 6.06 g/m*3 8.88 C 1.73333 km/h
1093 20-03-2019 12:00:00 11.63333 C 5.89 g/m*3 11.63 C 5.9 km/h
1094 20-03-2019 13:00:00 13.15833 C 5.54 g/m*3 13.16 C 6.70833 km/h
1095 20-03-2019 14:00:00 13.75833 C 5.52 g/m*3 13.76 C 6.55833 km/h
1096 20-03-2019 15:00:00 13.64167 C 5.61 g/m*3 13.64 C 6.85833 km/h
1097 20-03-2019 16:00:00 14.11667 C 5.86 g/m*3 14.12 C 8.075 km/h
1098 20-03-2019 17:00:00 14.83333 C 6.28 g/m*3 14.83 C 1.6 km/h
1099 20-03-2019 18:00:00 11.88333 C 6.7 g/m*3 11.88 C 0 km/h
1100 20-03-2019 19:00:00 8.5 C 6.26 g/m*3 8.5 C 0 km/h
Sensor: Nr:Datum:Temp:Abs-Feuchte:Windchill:Wind:
Aussen-T/F 1101 20-03-2019 20:00:00 6.85 C 6.08 g/m*3 6.85 C 0 km/h
1102 20-03-2019 21:00:00 5.43333 C 5.85 g/m*3 5.43 C 0 km/h
1103 20-03-2019 22:00:00 4.725 C 5.7 g/m*3 4.72 C 0 km/h
1104 20-03-2019 23:00:00 3.81667 C 5.49 g/m*3 3.82 C 0 km/h
1105 21-03-2019 00:00:00 3.31667 C 5.39 g/m*3 3.32 C 0.13333 km/h
1106 21-03-2019 01:00:00 2.55 C 5.14 g/m*3 2.55 C 0 km/h
1107 21-03-2019 02:00:00 1.81667 C 4.99 g/m*3 1.82 C 0 km/h
1108 21-03-2019 03:00:00 1.30833 C 4.87 g/m*3 1.31 C 0 km/h
1109 21-03-2019 04:00:00 0.99167 C 4.82 g/m*3 0.99 C 0 km/h
1110 21-03-2019 05:00:00 0.61667 C 4.72 g/m*3 0.62 C 0 km/h
1111 21-03-2019 06:00:00 0.33333 C 4.66 g/m*3 0.33 C 0 km/h
1112 21-03-2019 07:00:00 0.6 C 4.76 g/m*3 0.6 C 0 km/h
1113 21-03-2019 08:00:00 1.24167 C 5.01 g/m*3 1.24 C 0 km/h
1114 21-03-2019 09:00:00 2.50833 C 5.46 g/m*3 2.51 C 0 km/h
1115 21-03-2019 10:00:00 5.54167 C 6.37 g/m*3 5.54 C 0.13333 km/h
1116 21-03-2019 11:00:00 9.275 C 6.78 g/m*3 9.28 C 0.26667 km/h
1117 21-03-2019 12:00:00 12.99167 C 6.11 g/m*3 12.99 C 7.525 km/h
1118 21-03-2019 13:00:00 15.43333 C 5.73 g/m*3 15.43 C 4.95833 km/h
1119 21-03-2019 14:00:00 16.23333 C 5.45 g/m*3 16.23 C 5.89167 km/h
1120 21-03-2019 15:00:00 16.43333 C 5.45 g/m*3 16.43 C 5.625 km/h
1121 21-03-2019 16:00:00 17.625 C 5.67 g/m*3 17.63 C 7.775 km/h
1122 21-03-2019 17:00:00 18.01667 C 5.84 g/m*3 18.02 C 6.575 km/h
1123 21-03-2019 18:00:00 14.68333 C 6.62 g/m*3 14.68 C 5.2 km/h
1124 21-03-2019 19:00:00 10.96667 C 6.42 g/m*3 10.97 C 3.33333 km/h
1125 21-03-2019 20:00:00 9.20833 C 6.41 g/m*3 9.21 C 0.66667 km/h
Sensor: Nr:Datum:Temp:Abs-Feuchte:Windchill:Wind:
Aussen-T/F 1126 21-03-2019 21:00:00 7.65 C 6.05 g/m*3 7.65 C 0 km/h
1127 21-03-2019 22:00:00 6.15833 C 5.77 g/m*3 6.16 C 0 km/h
1128 21-03-2019 23:00:00 5.26667 C 5.67 g/m*3 5.27 C 0 km/h
1129 22-03-2019 00:00:00 4.425 C 5.54 g/m*3 4.43 C 0 km/h
1130 22-03-2019 01:00:00 3.69167 C 5.43 g/m*3 3.69 C 0 km/h
1131 22-03-2019 02:00:00 3.03333 C 5.27 g/m*3 3.03 C 0 km/h
1132 22-03-2019 03:00:00 2.20833 C 5.08 g/m*3 2.21 C 0 km/h
1133 22-03-2019 04:00:00 1.74167 C 5.02 g/m*3 1.74 C 0 km/h
1134 22-03-2019 05:00:00 1.53333 C 5 g/m*3 1.53 C 0 km/h
1135 22-03-2019 06:00:00 1.06667 C 4.86 g/m*3 1.07 C 0 km/h
1136 22-03-2019 07:00:00 1.24167 C 4.96 g/m*3 1.24 C 0 km/h
1137 22-03-2019 08:00:00 1.95833 C 5.26 g/m*3 1.96 C 0 km/h
1138 22-03-2019 09:00:00 3.70833 C 5.94 g/m*3 3.71 C 0 km/h
1139 22-03-2019 10:00:00 7.06667 C 7.02 g/m*3 7.07 C 0 km/h
1140 22-03-2019 11:00:00 11.70833 C 7.63 g/m*3 11.71 C 0 km/h
1141 22-03-2019 12:00:00 15.65 C 7.08 g/m*3 15.65 C 3.225 km/h
1142 22-03-2019 13:00:00 18.11667 C 6.47 g/m*3 18.12 C 10.20833 km/h
1143 22-03-2019 14:00:00 19.29167 C 5.97 g/m*3 19.29 C 7.38333 km/h
1144 22-03-2019 15:00:00 19.26667 C 6.4 g/m*3 19.27 C 9.55 km/h
1145 22-03-2019 16:00:00 19.83333 C 6.46 g/m*3 19.83 C 5.75833 km/h
1146 22-03-2019 17:00:00 20.95833 C 6.47 g/m*3 20.96 C 6.16667 km/h
1147 22-03-2019 18:00:00 16.7 C 7.19 g/m*3 16.7 C 4.53333 km/h
1148 22-03-2019 19:00:00 12.225 C 6.86 g/m*3 12.23 C 5.46667 km/h
1149 22-03-2019 20:00:00 10.825 C 6.74 g/m*3 10.83 C 4.66667 km/h
1150 22-03-2019 21:00:00 9.1 C 6.45 g/m*3 9.1 C 0.4 km/h
Sensor: Nr:Datum:Temp:Abs-Feuchte:Windchill:Wind:
Aussen-T/F 1151 22-03-2019 22:00:00 7.775 C 6.35 g/m*3 7.78 C 1.06667 km/h
1152 22-03-2019 23:00:00 6.66667 C 6.08 g/m*3 6.67 C 0 km/h
1153 23-03-2019 00:00:00 5.5 C 5.83 g/m*3 5.5 C 0 km/h
1154 23-03-2019 01:00:00 4.74167 C 5.71 g/m*3 4.74 C 0 km/h
1155 23-03-2019 02:00:00 4.05 C 5.62 g/m*3 4.05 C 0 km/h
1156 23-03-2019 03:00:00 3.69167 C 5.54 g/m*3 3.69 C 0 km/h
1157 23-03-2019 04:00:00 3.425 C 5.51 g/m*3 3.43 C 0 km/h
1158 23-03-2019 05:00:00 3.28333 C 5.44 g/m*3 3.28 C 0 km/h
1159 23-03-2019 06:00:00 2.525 C 5.25 g/m*3 2.53 C 0 km/h
1160 23-03-2019 07:00:00 4.06667 C 6.02 g/m*3 4.07 C 3.08333 km/h
1161 23-03-2019 08:00:00 6.20833 C 6.99 g/m*3 6.21 C 3.075 km/h
1162 23-03-2019 09:00:00 6.63333 C 7.14 g/m*3 6.63 C 0 km/h
1163 23-03-2019 10:00:00 7.18333 C 7.35 g/m*3 6.31 C 5.75 km/h
1164 23-03-2019 11:00:00 7.53333 C 7.43 g/m*3 6.67 C 5.89167 km/h
1165 23-03-2019 12:00:00 8.125 C 7.5 g/m*3 7.23 C 6.3 km/h
1166 23-03-2019 13:00:00 8.775 C 7.5 g/m*3 7.74 C 7.25833 km/h
1167 23-03-2019 14:00:00 9.45 C 7.39 g/m*3 8.03 C 9.7 km/h
1168 23-03-2019 15:00:00 10.08333 C 7.32 g/m*3 8.9 C 9.025 km/h
1169 23-03-2019 16:00:00 10.425 C 7.21 g/m*3 9.29 C 9.15833 km/h
1170 23-03-2019 17:00:00 10.425 C 7.16 g/m*3 9.64 C 7.375 km/h
1171 23-03-2019 18:00:00 9.175 C 6.9 g/m*3 9.18 C 2.4 km/h
1172 23-03-2019 19:00:00 6.80833 C 6.51 g/m*3 6.81 C 3.2 km/h
1173 23-03-2019 20:00:00 5.38333 C 6.19 g/m*3 5.38 C 0.13333 km/h
1174 23-03-2019 21:00:00 4.33333 C 5.93 g/m*3 4.33 C 0 km/h
1175 23-03-2019 22:00:00 3.55833 C 5.74 g/m*3 3.56 C 0 km/h
Sensor: Nr:Datum:Temp:Abs-Feuchte:Windchill:Wind:
Aussen-T/F 1176 23-03-2019 23:00:00 3.075 C 5.62 g/m*3 3.08 C 0 km/h
1177 24-03-2019 00:00:00 2.4 C 5.39 g/m*3 2.4 C 0 km/h
1178 24-03-2019 01:00:00 1.9 C 5.23 g/m*3 1.9 C 0 km/h
1179 24-03-2019 02:00:00 1.425 C 5.08 g/m*3 1.43 C 0 km/h
1180 24-03-2019 03:00:00 0.96667 C 4.92 g/m*3 0.97 C 0 km/h
1181 24-03-2019 04:00:00 0.89167 C 4.94 g/m*3 0.89 C 0 km/h
1182 24-03-2019 05:00:00 1.725 C 5.24 g/m*3 1.73 C 0.4 km/h
1183 24-03-2019 07:00:00 2.78182 C 5.62 g/m*3 2.78 C 0.29091 km/h
1184 24-03-2019 08:00:00 3.66667 C 6.02 g/m*3 3.67 C 0.13333 km/h
1185 24-03-2019 09:00:00 4.85 C 6.44 g/m*3 4.85 C 2.53333 km/h
1186 24-03-2019 10:00:00 6.875 C 7.1 g/m*3 6.88 C 3.46667 km/h
1187 24-03-2019 11:00:00 9.54167 C 7.8 g/m*3 9.54 C 4.81667 km/h
1188 24-03-2019 12:00:00 11.74167 C 8.07 g/m*3 11.74 C 9.53333 km/h
1189 24-03-2019 13:00:00 10.88333 C 8.07 g/m*3 9.16 C 13.7 km/h
1190 24-03-2019 14:00:00 10.64167 C 8.08 g/m*3 9.95 C 7.10833 km/h
1191 24-03-2019 15:00:00 11.09167 C 7.88 g/m*3 11.09 C 8.74167 km/h
1192 24-03-2019 16:00:00 12.03333 C 7.65 g/m*3 12.03 C 9.80833 km/h
1193 24-03-2019 17:00:00 12.28333 C 7.05 g/m*3 12.28 C 10.625 km/h
1194 24-03-2019 18:00:00 11.30833 C 6.37 g/m*3 11.31 C 8.6 km/h
1195 24-03-2019 19:00:00 9.075 C 5.77 g/m*3 8.47 C 5.775 km/h
1196 24-03-2019 20:00:00 7.18333 C 5.55 g/m*3 7.18 C 4.4 km/h
1197 24-03-2019 21:00:00 5.59167 C 5.39 g/m*3 5.59 C 0.93333 km/h
1198 24-03-2019 22:00:00 4.23333 C 5.21 g/m*3 4.23 C 0.8 km/h
1199 24-03-2019 23:00:00 3.56667 C 5.11 g/m*3 3.57 C 2.53333 km/h
1200 25-03-2019 00:00:00 3.35 C 5.02 g/m*3 3.35 C 2.93333 km/h
Sensor: Nr:Datum:Temp:Abs-Feuchte:Windchill:Wind:
Aussen-T/F 1201 25-03-2019 01:00:00 1.875 C 4.76 g/m*3 1.88 C 0.53333 km/h
1202 25-03-2019 02:00:00 1.89167 C 4.9 g/m*3 0.46 C 5.225 km/h
1203 25-03-2019 03:00:00 2.29167 C 4.99 g/m*3 0.45 C 6.43333 km/h
1204 25-03-2019 04:00:00 2.85833 C 5.07 g/m*3 0.76 C 7.50833 km/h
1205 25-03-2019 05:00:00 3.675 C 5.13 g/m*3 0.61 C 12.23333 km/h
1206 25-03-2019 06:00:00 3.74167 C 5.19 g/m*3 1.46 C 8.75 km/h
1207 25-03-2019 07:00:00 4.38333 C 5.53 g/m*3 2.15 C 9.01667 km/h
1208 25-03-2019 08:00:00 4.56667 C 6.01 g/m*3 2.83 C 7.25 km/h
1209 25-03-2019 09:00:00 6.15 C 6.25 g/m*3 3.41 C 13.43333 km/h
1210 25-03-2019 10:00:00 7.41667 C 5.92 g/m*3 4.58 C 16.1 km/h
1211 25-03-2019 11:00:00 7.375 C 6.01 g/m*3 4.62 C 15.43333 km/h
1212 25-03-2019 12:00:00 7.725 C 6.31 g/m*3 4.41 C 20.90833 km/h
1213 25-03-2019 13:00:00 7.55 C 6.48 g/m*3 4.34 C 19.45 km/h
1214 25-03-2019 14:00:00 7.65833 C 6.21 g/m*3 4.6 C 18.38333 km/h
1215 25-03-2019 15:00:00 7.18333 C 6.57 g/m*3 4.89 C 12.08333 km/h
1216 25-03-2019 16:00:00 7.29167 C 6.64 g/m*3 5.02 C 12.08333 km/h
1217 25-03-2019 17:00:00 5.71667 C 6.41 g/m*3 3.83 C 8.58333 km/h
1218 25-03-2019 18:00:00 5.3 C 6.46 g/m*3 5.3 C 3.20833 km/h
1219 25-03-2019 19:00:00 5.04167 C 6.39 g/m*3 5.04 C 2.53333 km/h
1220 25-03-2019 20:00:00 5.1 C 6.48 g/m*3 5.1 C 2.26667 km/h
1221 25-03-2019 21:00:00 5.24167 C 6.56 g/m*3 5.24 C 4.29167 km/h
1222 25-03-2019 22:00:00 5.15833 C 6.39 g/m*3 5.16 C 4.675 km/h
1223 25-03-2019 23:00:00 4.65 C 6.2 g/m*3 4.65 C 1.06667 km/h
1224 26-03-2019 00:00:00 4.49167 C 6.21 g/m*3 4.49 C 2 km/h
1225 26-03-2019 01:00:00 4.525 C 6.19 g/m*3 4.53 C 0.53333 km/h
Sensor: Nr:Datum:Temp:Abs-Feuchte:Windchill:Wind:
Aussen-T/F 1226 26-03-2019 02:00:00 4.375 C 6.19 g/m*3 4.38 C 0.13333 km/h
1227 26-03-2019 03:00:00 4.64167 C 6.3 g/m*3 4.64 C 0.66667 km/h
1228 26-03-2019 04:00:00 4.91667 C 6.42 g/m*3 4.92 C 1.33333 km/h
1229 26-03-2019 05:00:00 5.00833 C 6.37 g/m*3 5.01 C 2.93333 km/h
1230 26-03-2019 06:00:00 4.99167 C 6.23 g/m*3 4.99 C 2.94167 km/h
1231 26-03-2019 07:00:00 5.06667 C 6.15 g/m*3 5.07 C 2.13333 km/h
1232 26-03-2019 08:00:00 5.55 C 6 g/m*3 5.55 C 4.95 km/h
1233 26-03-2019 09:00:00 6.225 C 5.91 g/m*3 4.69 C 7.53333 km/h
1234 26-03-2019 10:00:00 6.98333 C 5.91 g/m*3 4.78 C 11.29167 km/h
1235 26-03-2019 11:00:00 7.26667 C 5.66 g/m*3 5.69 C 8.46667 km/h
1236 26-03-2019 12:00:00 8.46667 C 5.93 g/m*3 6.59 C 11.16667 km/h
1237 26-03-2019 13:00:00 8.85 C 5.76 g/m*3 7.15 C 10.625 km/h
1238 26-03-2019 14:00:00 8.875 C 5.68 g/m*3 6.88 C 12.49167 km/h
1239 26-03-2019 15:00:00 9.03333 C 5.88 g/m*3 7.8 C 8.34167 km/h
1240 26-03-2019 16:00:00 9.49167 C 5.89 g/m*3 7.62 C 12.5 km/h
1241 26-03-2019 17:00:00 8.43333 C 6.05 g/m*3 7.16 C 8.05 km/h
1242 26-03-2019 18:00:00 8.11667 C 6.16 g/m*3 7.38 C 5.75833 km/h
1243 26-03-2019 19:00:00 7.59167 C 6.33 g/m*3 7.59 C 0.8 km/h
1244 26-03-2019 20:00:00 7.075 C 6.4 g/m*3 7.08 C 0.4 km/h
1245 26-03-2019 21:00:00 6.81667 C 6.44 g/m*3 6.82 C 0.13333 km/h
1246 26-03-2019 22:00:00 6.51667 C 6.48 g/m*3 6.52 C 0 km/h
1247 26-03-2019 23:00:00 6.24167 C 6.42 g/m*3 6.24 C 0.26667 km/h
1248 27-03-2019 00:00:00 6.10833 C 6.4 g/m*3 6.11 C 0.8 km/h
1249 27-03-2019 01:00:00 5.575 C 6.29 g/m*3 5.58 C 0 km/h
1250 27-03-2019 02:00:00 5.25 C 6.25 g/m*3 5.25 C 0 km/h
Sensor: Nr:Datum:Temp:Abs-Feuchte:Windchill:Wind:
Aussen-T/F 1251 27-03-2019 03:00:00 4.9 C 6.12 g/m*3 4.9 C 0 km/h
1252 27-03-2019 04:00:00 4.05833 C 5.81 g/m*3 4.06 C 0.13333 km/h
1253 27-03-2019 05:00:00 2.91667 C 5.43 g/m*3 2.92 C 0.53333 km/h
1254 27-03-2019 06:00:00 2.1 C 5.23 g/m*3 2.1 C 0 km/h
1255 27-03-2019 07:00:00 2.6 C 5.47 g/m*3 2.6 C 0.26667 km/h
1256 27-03-2019 08:00:00 3.88333 C 5.97 g/m*3 3.88 C 0.53333 km/h
1257 27-03-2019 09:00:00 5.8 C 6.58 g/m*3 5.8 C 1.6 km/h
1258 27-03-2019 10:00:00 8.16667 C 7 g/m*3 8.17 C 2.93333 km/h
1259 27-03-2019 11:00:00 9.13333 C 6.8 g/m*3 8.58 C 5.625 km/h
1260 27-03-2019 12:00:00 10.05 C 6.55 g/m*3 9.49 C 6.16667 km/h
1261 27-03-2019 13:00:00 10.8 C 6.28 g/m*3 9.64 C 9.68333 km/h
1262 27-03-2019 14:00:00 11.05 C 6.13 g/m*3 11.05 C 6.44167 km/h
1263 27-03-2019 15:00:00 11.10833 C 6.07 g/m*3 11.11 C 7.51667 km/h
1264 27-03-2019 16:00:00 11.23333 C 6.02 g/m*3 11.23 C 6.3 km/h
1265 27-03-2019 17:00:00 10.975 C 5.99 g/m*3 10.77 C 5.33333 km/h
1266 27-03-2019 18:00:00 9.83333 C 6.38 g/m*3 9.83 C 0.8 km/h
1267 27-03-2019 19:00:00 7.64167 C 6.24 g/m*3 7.64 C 3.46667 km/h
1268 27-03-2019 20:00:00 6.49167 C 6.12 g/m*3 6.49 C 3.86667 km/h
1269 27-03-2019 21:00:00 5.69167 C 6.04 g/m*3 5.69 C 1.33333 km/h
1270 27-03-2019 22:00:00 4.725 C 5.79 g/m*3 4.72 C 0.4 km/h
1271 27-03-2019 23:00:00 3.475 C 5.52 g/m*3 3.48 C 0 km/h
1272 28-03-2019 00:00:00 2.925 C 5.43 g/m*3 2.93 C 0.53333 km/h
1273 28-03-2019 01:00:00 2.475 C 5.3 g/m*3 2.48 C 0 km/h
1274 28-03-2019 02:00:00 1.975 C 5.16 g/m*3 1.98 C 0 km/h
1275 28-03-2019 03:00:00 1.60833 C 5.07 g/m*3 1.61 C 0 km/h
Sensor: Nr:Datum:Temp:Abs-Feuchte:Windchill:Wind:
Aussen-T/F 1276 28-03-2019 04:00:00 1.375 C 5.01 g/m*3 1.38 C 0.13333 km/h
1277 28-03-2019 05:00:00 1.13333 C 4.95 g/m*3 1.13 C 0 km/h
1278 28-03-2019 06:00:00 1.59167 C 5.13 g/m*3 1.59 C 0 km/h
1279 28-03-2019 07:00:00 2.11667 C 5.32 g/m*3 2.12 C 0.26667 km/h
1280 28-03-2019 08:00:00 2.79167 C 5.55 g/m*3 2.79 C 1.33333 km/h
1281 28-03-2019 09:00:00 4.425 C 6.07 g/m*3 4.43 C 2.66667 km/h
1282 28-03-2019 10:00:00 7.30833 C 6.69 g/m*3 7.31 C 0.4 km/h
1283 28-03-2019 11:00:00 10.325 C 7.27 g/m*3 10.33 C 3.475 km/h
1284 28-03-2019 12:00:00 12.53333 C 7.36 g/m*3 12.53 C 8.33333 km/h
1285 28-03-2019 13:00:00 13.21667 C 7.57 g/m*3 13.22 C 8.33333 km/h
1286 28-03-2019 14:00:00 13.5 C 7.52 g/m*3 13.5 C 10.75833 km/h
1287 28-03-2019 15:00:00 13.4 C 7.4 g/m*3 13.4 C 8.60833 km/h
1288 28-03-2019 16:00:00 13.45833 C 7.32 g/m*3 13.46 C 9.01667 km/h
1289 28-03-2019 17:00:00 13.19167 C 7.32 g/m*3 13.19 C 6.70833 km/h
1290 28-03-2019 18:00:00 12.16667 C 7.58 g/m*3 12.17 C 2.53333 km/h
1291 28-03-2019 19:00:00 10.36667 C 7.52 g/m*3 10.37 C 0.93333 km/h
1292 28-03-2019 20:00:00 10.23333 C 7.49 g/m*3 10.23 C 0.53333 km/h
1293 28-03-2019 21:00:00 9.50833 C 7.27 g/m*3 9.51 C 0 km/h
1294 28-03-2019 22:00:00 7.88333 C 6.88 g/m*3 7.88 C 0.53333 km/h
1295 28-03-2019 23:00:00 6.3 C 6.5 g/m*3 6.3 C 0 km/h
1296 29-03-2019 00:00:00 5.28333 C 6.27 g/m*3 5.28 C 0 km/h
1297 29-03-2019 01:00:00 4.35 C 6 g/m*3 4.35 C 0 km/h
1298 29-03-2019 02:00:00 3.85833 C 5.89 g/m*3 3.86 C 0 km/h
1299 29-03-2019 03:00:00 3.05833 C 5.61 g/m*3 3.06 C 0 km/h
1300 29-03-2019 04:00:00 2.89167 C 5.61 g/m*3 2.89 C 0 km/h
Sensor: Nr:Datum:Temp:Abs-Feuchte:Windchill:Wind:
Aussen-T/F 1301 29-03-2019 05:00:00 2.18333 C 5.34 g/m*3 2.18 C 0 km/h
1302 29-03-2019 06:00:00 2.075 C 5.31 g/m*3 2.08 C 0 km/h
1303 29-03-2019 07:00:00 2.175 C 5.39 g/m*3 2.17 C 0 km/h
1304 29-03-2019 08:00:00 2.93333 C 5.69 g/m*3 2.93 C 0 km/h
1305 29-03-2019 09:00:00 4.94167 C 6.56 g/m*3 4.94 C 0 km/h
1306 29-03-2019 10:00:00 8.09167 C 7.98 g/m*3 8.09 C 0.53333 km/h
1307 29-03-2019 11:00:00 12.48333 C 8.54 g/m*3 12.48 C 9.79167 km/h
1308 29-03-2019 12:00:00 14.475 C 8.29 g/m*3 14.48 C 8.46667 km/h
1309 29-03-2019 13:00:00 15.93333 C 8.14 g/m*3 15.93 C 10.225 km/h
1310 29-03-2019 14:00:00 16.83333 C 7.91 g/m*3 16.83 C 10.89167 km/h
1311 29-03-2019 15:00:00 17.475 C 7.8 g/m*3 17.48 C 9.68333 km/h
1312 29-03-2019 16:00:00 18.41667 C 7.82 g/m*3 18.42 C 8.71667 km/h
1313 29-03-2019 17:00:00 18.94167 C 7.7 g/m*3 18.94 C 4.53333 km/h
1314 29-03-2019 18:00:00 16.95833 C 7.77 g/m*3 16.96 C 2.675 km/h
1315 29-03-2019 19:00:00 11.55 C 7.26 g/m*3 11.55 C 5.46667 km/h
1316 29-03-2019 20:00:00 9.86667 C 7.1 g/m*3 9.87 C 1.6 km/h
1317 29-03-2019 21:00:00 8.10833 C 6.77 g/m*3 8.11 C 0 km/h
1318 29-03-2019 22:00:00 6.7 C 6.42 g/m*3 6.7 C 0 km/h
1319 29-03-2019 23:00:00 5.575 C 6.15 g/m*3 5.58 C 0 km/h
1320 30-03-2019 00:00:00 4.59167 C 5.94 g/m*3 4.59 C 0 km/h
1321 30-03-2019 01:00:00 4 C 5.82 g/m*3 4 C 0 km/h
1322 30-03-2019 02:00:00 3.45 C 5.66 g/m*3 3.45 C 0 km/h
1323 30-03-2019 03:00:00 2.8 C 5.49 g/m*3 2.8 C 0 km/h
1324 30-03-2019 04:00:00 2.48333 C 5.4 g/m*3 2.48 C 0 km/h
1325 30-03-2019 05:00:00 1.875 C 5.19 g/m*3 1.88 C 0 km/h
Sensor: Nr:Datum:Temp:Abs-Feuchte:Windchill:Wind:
Aussen-T/F 1326 30-03-2019 06:00:00 1.73333 C 5.18 g/m*3 1.73 C 0 km/h
1327 30-03-2019 07:00:00 2.11667 C 5.36 g/m*3 2.12 C 0.13333 km/h
1328 30-03-2019 08:00:00 3.35833 C 5.85 g/m*3 3.36 C 0.26667 km/h
1329 30-03-2019 09:00:00 5.45 C 6.77 g/m*3 5.45 C 0 km/h
1330 30-03-2019 10:00:00 8.84167 C 7.93 g/m*3 8.84 C 0 km/h
1331 30-03-2019 11:00:00 13.74167 C 8.36 g/m*3 13.74 C 5.225 km/h
1332 30-03-2019 12:00:00 17.6 C 7.5 g/m*3 17.6 C 14.76667 km/h
1333 30-03-2019 13:00:00 19.30833 C 6.85 g/m*3 19.31 C 14.76667 km/h
1334 30-03-2019 14:00:00 19.93333 C 6.57 g/m*3 19.93 C 16.63333 km/h
1335 30-03-2019 15:00:00 20.41667 C 6.55 g/m*3 20.42 C 13.96667 km/h
1336 30-03-2019 16:00:00 20.54167 C 6.94 g/m*3 20.54 C 8.85 km/h
1337 30-03-2019 17:00:00 19.46667 C 7.22 g/m*3 19.47 C 4.29167 km/h
1338 30-03-2019 18:00:00 17.30833 C 7.89 g/m*3 17.31 C 1.86667 km/h
1339 30-03-2019 19:00:00 14.88333 C 7.55 g/m*3 14.88 C 0.8 km/h
1340 30-03-2019 20:00:00 13.79167 C 7.66 g/m*3 13.79 C 2.66667 km/h
1341 30-03-2019 21:00:00 12.4 C 7.6 g/m*3 12.4 C 0.93333 km/h
1342 30-03-2019 22:00:00 11.125 C 7.57 g/m*3 11.13 C 0 km/h
1343 30-03-2019 23:00:00 10.80833 C 7.47 g/m*3 10.81 C 0 km/h
1344 31-03-2019 00:00:00 9.55833 C 7.04 g/m*3 9.56 C 0.4 km/h
1345 31-03-2019 01:00:00 8.38333 C 6.93 g/m*3 8.38 C 0 km/h
1346 31-03-2019 02:00:00 7.30833 C 6.64 g/m*3 7.31 C 0.4 km/h
1347 31-03-2019 04:00:00 6.45 C 6.42 g/m*3 6.45 C 0.13333 km/h
1348 31-03-2019 05:00:00 5.15 C 6.1 g/m*3 5.15 C 0.13333 km/h
1349 31-03-2019 06:00:00 4.95 C 6.13 g/m*3 4.95 C 0.4 km/h
1350 31-03-2019 07:00:00 4.78333 C 6.08 g/m*3 4.78 C 0.4 km/h
Sensor: Nr:Datum:Temp:Abs-Feuchte:Windchill:Wind:
Aussen-T/F 1351 31-03-2019 08:00:00 4.70833 C 6.13 g/m*3 4.71 C 0 km/h
1352 31-03-2019 09:00:00 5.50833 C 6.53 g/m*3 5.51 C 0 km/h
1353 31-03-2019 10:00:00 8 C 7.54 g/m*3 8 C 0 km/h
1354 31-03-2019 11:00:00 11.51667 C 8.13 g/m*3 11.52 C 0.26667 km/h
1355 31-03-2019 12:00:00 14.56667 C 8.23 g/m*3 14.57 C 3.2 km/h
1356 31-03-2019 13:00:00 16.74167 C 7.93 g/m*3 16.74 C 5.76667 km/h
1357 31-03-2019 14:00:00 18.34167 C 7.9 g/m*3 18.34 C 7.91667 km/h
1358 31-03-2019 15:00:00 18.825 C 7.77 g/m*3 18.83 C 9.81667 km/h
1359 31-03-2019 16:00:00 15.925 C 9.88 g/m*3 15.93 C 6.96667 km/h
1360 31-03-2019 17:00:00 14.2 C 10.95 g/m*3 14.2 C 1.86667 km/h
1361 31-03-2019 18:00:00 15.28333 C 9.93 g/m*3 15.28 C 4.95 km/h
1362 31-03-2019 19:00:00 12.74167 C 9 g/m*3 12.74 C 2.93333 km/h
1363 31-03-2019 20:00:00 10.11667 C 8.24 g/m*3 10.12 C 4.4 km/h
1364 31-03-2019 21:00:00 8.95 C 7.72 g/m*3 8.95 C 2.13333 km/h
1365 31-03-2019 22:00:00 8.04167 C 7.27 g/m*3 8.04 C 2 km/h
1366 31-03-2019 23:00:00 7.21667 C 6.92 g/m*3 7.22 C 0.8 km/h
1367 01-04-2019 00:00:00 6.36667 C 6.62 g/m*3 6.37 C 0 km/h
1368 01-04-2019 01:00:00 5.74167 C 6.37 g/m*3 5.74 C 0.26667 km/h
1369 01-04-2019 02:00:00 5.25 C 6.22 g/m*3 5.25 C 1.86667 km/h
1370 01-04-2019 03:00:00 4.69167 C 6.04 g/m*3 4.69 C 2.8 km/h
1371 01-04-2019 04:00:00 4.31667 C 5.9 g/m*3 4.32 C 1.73333 km/h
1372 01-04-2019 05:00:00 3.975 C 5.78 g/m*3 3.98 C 0.8 km/h
1373 01-04-2019 06:00:00 3.56667 C 5.67 g/m*3 3.57 C 0.4 km/h
1374 01-04-2019 07:00:00 3.15 C 5.54 g/m*3 3.15 C 0.8 km/h
1375 01-04-2019 08:00:00 3.16667 C 5.61 g/m*3 3.17 C 0 km/h
Sensor: Nr:Datum:Temp:Abs-Feuchte:Windchill:Wind:
Aussen-T/F 1376 01-04-2019 09:00:00 4.29167 C 6.01 g/m*3 4.29 C 0.66667 km/h
1377 01-04-2019 10:00:00 6.65 C 6.32 g/m*3 5.52 C 6.31667 km/h
1378 01-04-2019 11:00:00 9.53333 C 6.5 g/m*3 8.18 C 9.40833 km/h
1379 01-04-2019 12:00:00 11.28333 C 6.7 g/m*3 11.28 C 10.08333 km/h
1380 01-04-2019 13:00:00 13.00833 C 6.96 g/m*3 13.01 C 9.15833 km/h
1381 01-04-2019 14:00:00 14.91667 C 7.26 g/m*3 14.92 C 10.63333 km/h
1382 01-04-2019 15:00:00 16.39167 C 7.5 g/m*3 16.39 C 8.73333 km/h
1383 01-04-2019 16:00:00 17.5 C 7.53 g/m*3 17.5 C 6.15833 km/h
1384 01-04-2019 17:00:00 18.275 C 7.44 g/m*3 18.27 C 8.46667 km/h
1385 01-04-2019 18:00:00 17.875 C 7.22 g/m*3 17.88 C 7.65833 km/h
1386 01-04-2019 19:00:00 16 C 7.62 g/m*3 16 C 4.01667 km/h
1387 01-04-2019 20:00:00 11.775 C 7.41 g/m*3 11.78 C 5.2 km/h
1388 01-04-2019 21:00:00 10.15833 C 7.18 g/m*3 10.16 C 4.66667 km/h
1389 01-04-2019 22:00:00 9.35 C 6.95 g/m*3 9.35 C 2.26667 km/h
1390 01-04-2019 23:00:00 8.79167 C 6.73 g/m*3 8.79 C 1.86667 km/h
1391 02-04-2019 00:00:00 7.93333 C 6.63 g/m*3 7.93 C 0 km/h
1392 02-04-2019 01:00:00 7.04167 C 6.46 g/m*3 7.04 C 0 km/h
1393 02-04-2019 02:00:00 6.3 C 6.27 g/m*3 6.3 C 0 km/h
1394 02-04-2019 03:00:00 5.09167 C 5.98 g/m*3 5.09 C 0 km/h
1395 02-04-2019 04:00:00 4.39167 C 5.88 g/m*3 4.39 C 0 km/h
1396 02-04-2019 05:00:00 3.96667 C 5.78 g/m*3 3.97 C 0 km/h
1397 02-04-2019 06:00:00 3.88333 C 5.81 g/m*3 3.88 C 0 km/h
1398 02-04-2019 07:00:00 4.00833 C 5.91 g/m*3 4.01 C 0 km/h
1399 02-04-2019 08:00:00 4.98333 C 6.31 g/m*3 4.98 C 0 km/h
1400 02-04-2019 09:00:00 6.53333 C 6.71 g/m*3 6.53 C 0 km/h
Sensor: Nr:Datum:Temp:Abs-Feuchte:Windchill:Wind:
Aussen-T/F 1401 02-04-2019 10:00:00 8.71667 C 7.1 g/m*3 8.72 C 0 km/h
1402 02-04-2019 11:00:00 11.95 C 7.96 g/m*3 11.95 C 2.8 km/h
1403 02-04-2019 12:00:00 15.01667 C 8.57 g/m*3 15.02 C 4.01667 km/h
1404 02-04-2019 13:00:00 16.80833 C 8.7 g/m*3 16.81 C 6.175 km/h
1405 02-04-2019 14:00:00 17.975 C 8.91 g/m*3 17.98 C 9.55833 km/h
1406 02-04-2019 15:00:00 16.725 C 9.1 g/m*3 16.73 C 12.625 km/h
1407 02-04-2019 16:00:00 17.46667 C 8.58 g/m*3 17.47 C 16.36667 km/h
1408 02-04-2019 17:00:00 16.00833 C 8.99 g/m*3 16.01 C 9.15 km/h
1409 02-04-2019 18:00:00 16.08333 C 8.71 g/m*3 16.08 C 6.71667 km/h
1410 02-04-2019 19:00:00 15.35833 C 8.65 g/m*3 15.36 C 4.00833 km/h
1411 02-04-2019 20:00:00 14.03333 C 8.59 g/m*3 14.03 C 7.11667 km/h
1412 02-04-2019 21:00:00 13.50833 C 8.12 g/m*3 13.51 C 8.325 km/h
1413 02-04-2019 22:00:00 12.66667 C 7.79 g/m*3 12.67 C 6.84167 km/h
1414 02-04-2019 23:00:00 11.4 C 7.6 g/m*3 11.4 C 0.66667 km/h
1415 03-04-2019 00:00:00 10.50833 C 7.64 g/m*3 10.51 C 0.66667 km/h
1416 03-04-2019 01:00:00 10.275 C 7.62 g/m*3 10.28 C 0 km/h
1417 03-04-2019 02:00:00 9.90833 C 7.61 g/m*3 9.91 C 0 km/h
1418 03-04-2019 03:00:00 8.91667 C 7.43 g/m*3 8.92 C 0 km/h
1419 03-04-2019 04:00:00 8.875 C 7.54 g/m*3 8.88 C 0 km/h
1420 03-04-2019 05:00:00 8.6 C 7.44 g/m*3 8.6 C 0 km/h
1421 03-04-2019 06:00:00 8.075 C 7.3 g/m*3 8.07 C 0.53333 km/h
1422 03-04-2019 07:00:00 8.64167 C 7.32 g/m*3 8.64 C 0.53333 km/h
1423 03-04-2019 08:00:00 8.86667 C 7.52 g/m*3 8.87 C 3.35833 km/h
1424 03-04-2019 09:00:00 7.66667 C 7.32 g/m*3 5.96 C 9.4 km/h
1425 03-04-2019 10:00:00 7.025 C 7.11 g/m*3 7.03 C 2.80833 km/h
Sensor: Nr:Datum:Temp:Abs-Feuchte:Windchill:Wind:
Aussen-T/F 1426 03-04-2019 11:00:00 7.44167 C 7.33 g/m*3 7.44 C 1.2 km/h
1427 03-04-2019 12:00:00 8.33333 C 7.51 g/m*3 8.33 C 3.60833 km/h
1428 03-04-2019 13:00:00 9.475 C 7.56 g/m*3 9.48 C 3.6 km/h
1429 03-04-2019 14:00:00 9.43333 C 7.37 g/m*3 9.43 C 4.54167 km/h
1430 03-04-2019 15:00:00 10.05 C 7.52 g/m*3 9.35 C 6.7 km/h
1431 03-04-2019 16:00:00 10.2 C 7.47 g/m*3 10.2 C 4.675 km/h
1432 03-04-2019 17:00:00 9.45833 C 7.47 g/m*3 9.46 C 2.93333 km/h
1433 03-04-2019 18:00:00 7.93333 C 7.42 g/m*3 7.93 C 1.6 km/h
1434 03-04-2019 19:00:00 7.025 C 7.2 g/m*3 7.03 C 0.26667 km/h
1435 03-04-2019 20:00:00 6.45 C 7 g/m*3 6.45 C 0 km/h
1436 03-04-2019 21:00:00 6.23333 C 6.98 g/m*3 6.23 C 0 km/h
1437 03-04-2019 22:00:00 5.875 C 6.84 g/m*3 5.88 C 0.13333 km/h
1438 03-04-2019 23:00:00 5.63333 C 6.73 g/m*3 5.63 C 0.13333 km/h
1439 04-04-2019 00:00:00 5.65 C 6.77 g/m*3 5.65 C 0.4 km/h
1440 04-04-2019 01:00:00 5.325 C 6.64 g/m*3 5.33 C 1.06667 km/h
1441 04-04-2019 02:00:00 5.41667 C 6.71 g/m*3 5.42 C 2.13333 km/h
1442 04-04-2019 03:00:00 5.6 C 6.79 g/m*3 5.6 C 0 km/h
1443 04-04-2019 04:00:00 5.54167 C 6.76 g/m*3 5.54 C 0 km/h
1444 04-04-2019 05:00:00 5.60833 C 6.79 g/m*3 5.61 C 0 km/h
1445 04-04-2019 06:00:00 5.475 C 6.73 g/m*3 5.48 C 0 km/h
1446 04-04-2019 07:00:00 5.34167 C 6.67 g/m*3 5.34 C 0 km/h
1447 04-04-2019 08:00:00 5.61667 C 6.79 g/m*3 5.62 C 0 km/h
1448 04-04-2019 09:00:00 5.93333 C 6.97 g/m*3 5.93 C 0.66667 km/h
1449 04-04-2019 10:00:00 6.075 C 7 g/m*3 6.08 C 1.46667 km/h
1450 04-04-2019 11:00:00 6.65833 C 7.07 g/m*3 6.66 C 2.26667 km/h
Sensor: Nr:Datum:Temp:Abs-Feuchte:Windchill:Wind:
Aussen-T/F 1451 04-04-2019 12:00:00 6.95 C 6.91 g/m*3 6.17 C 5.375 km/h
1452 04-04-2019 13:00:00 6.69167 C 6.96 g/m*3 6.69 C 2.80833 km/h
1453 04-04-2019 14:00:00 6.4 C 6.84 g/m*3 6.4 C 4.14167 km/h
1454 04-04-2019 15:00:00 6.85833 C 6.99 g/m*3 6.86 C 0.4 km/h
1455 04-04-2019 16:00:00 7.08333 C 7.09 g/m*3 7.08 C 1.73333 km/h
1456 04-04-2019 17:00:00 7.43333 C 7.03 g/m*3 7.43 C 4.55 km/h
1457 04-04-2019 18:00:00 7.56667 C 6.85 g/m*3 7.57 C 3.475 km/h
1458 04-04-2019 19:00:00 7.25833 C 6.86 g/m*3 7.26 C 1.33333 km/h
1459 04-04-2019 20:00:00 5.95833 C 6.64 g/m*3 5.96 C 1.46667 km/h
1460 04-04-2019 21:00:00 5.29167 C 6.48 g/m*3 5.29 C 1.33333 km/h
1461 04-04-2019 22:00:00 5.08333 C 6.45 g/m*3 5.08 C 0.53333 km/h
1462 04-04-2019 23:00:00 4.575 C 6.24 g/m*3 4.58 C 0 km/h
1463 05-04-2019 00:00:00 4.10833 C 6.08 g/m*3 4.11 C 0 km/h
1464 05-04-2019 01:00:00 3.525 C 5.87 g/m*3 3.53 C 0 km/h
1465 05-04-2019 02:00:00 3.775 C 6.01 g/m*3 3.78 C 0 km/h
1466 05-04-2019 03:00:00 3.85833 C 6.05 g/m*3 3.86 C 0 km/h
1467 05-04-2019 04:00:00 4.06667 C 6.13 g/m*3 4.07 C 0 km/h
1468 05-04-2019 05:00:00 3.93333 C 6.08 g/m*3 3.93 C 0 km/h
1469 05-04-2019 06:00:00 3.9 C 6.06 g/m*3 3.9 C 0 km/h
1470 05-04-2019 07:00:00 4.13333 C 6.2 g/m*3 4.13 C 0 km/h
1471 05-04-2019 08:00:00 4.64167 C 6.44 g/m*3 4.64 C 0 km/h
1472 05-04-2019 09:00:00 5.3 C 6.72 g/m*3 5.3 C 3.06667 km/h
1473 05-04-2019 10:00:00 5.89167 C 6.89 g/m*3 5.89 C 1.2 km/h
1474 05-04-2019 11:00:00 7.16667 C 7.06 g/m*3 6.34 C 5.60833 km/h
1475 05-04-2019 12:00:00 8.025 C 7.1 g/m*3 6.87 C 7.23333 km/h
Sensor: Nr:Datum:Temp:Abs-Feuchte:Windchill:Wind:
Aussen-T/F 1476 05-04-2019 13:00:00 8.19167 C 7.07 g/m*3 8.19 C 4.54167 km/h
1477 05-04-2019 14:00:00 8.41667 C 7.1 g/m*3 8.42 C 3.46667 km/h
1478 05-04-2019 15:00:00 8.55 C 7.21 g/m*3 8.55 C 4.40833 km/h
1479 05-04-2019 16:00:00 8.58333 C 7.32 g/m*3 8.08 C 5.20833 km/h
1480 05-04-2019 17:00:00 8.41667 C 7.4 g/m*3 8.42 C 4.14167 km/h
1481 05-04-2019 18:00:00 8.3 C 7.49 g/m*3 8.3 C 2.94167 km/h
1482 05-04-2019 19:00:00 8.19167 C 7.55 g/m*3 8.19 C 0 km/h
1483 05-04-2019 20:00:00 7.925 C 7.55 g/m*3 7.93 C 0 km/h
1484 05-04-2019 21:00:00 7.69167 C 7.54 g/m*3 7.69 C 0 km/h
1485 05-04-2019 22:00:00 7.61667 C 7.58 g/m*3 7.62 C 0 km/h
1486 05-04-2019 23:00:00 7.6 C 7.61 g/m*3 7.6 C 0 km/h
1487 06-04-2019 00:00:00 7.45833 C 7.58 g/m*3 7.46 C 0 km/h
1488 06-04-2019 01:00:00 7.40833 C 7.63 g/m*3 7.41 C 0 km/h
1489 06-04-2019 02:00:00 7.225 C 7.54 g/m*3 7.23 C 0 km/h
1490 06-04-2019 03:00:00 6.14167 C 6.97 g/m*3 6.14 C 2.93333 km/h
1491 06-04-2019 04:00:00 5.15833 C 6.57 g/m*3 5.16 C 0.13333 km/h
1492 06-04-2019 05:00:00 5.01667 C 6.53 g/m*3 5.02 C 0 km/h
1493 06-04-2019 06:00:00 4.675 C 6.4 g/m*3 4.68 C 0 km/h
1494 06-04-2019 07:00:00 5.13333 C 6.63 g/m*3 5.13 C 0 km/h
1495 06-04-2019 08:00:00 5.71667 C 6.91 g/m*3 5.72 C 0.4 km/h
1496 06-04-2019 09:00:00 6.025 C 7.05 g/m*3 6.03 C 0.53333 km/h
1497 06-04-2019 10:00:00 7.325 C 7.69 g/m*3 7.33 C 0 km/h
1498 06-04-2019 11:00:00 9.825 C 8.4 g/m*3 9.09 C 6.70833 km/h
1499 06-04-2019 12:00:00 12.51667 C 8.42 g/m*3 12.52 C 5.89167 km/h
1500 06-04-2019 13:00:00 14.375 C 8.5 g/m*3 14.38 C 8.325 km/h
Sensor: Nr:Datum:Temp:Abs-Feuchte:Windchill:Wind:
Aussen-T/F 1501 06-04-2019 14:00:00 16.04167 C 8.47 g/m*3 16.04 C 8.85 km/h
1502 06-04-2019 15:00:00 15.96667 C 8.24 g/m*3 15.97 C 9.40833 km/h
1503 06-04-2019 16:00:00 15.81667 C 8.31 g/m*3 15.82 C 7.925 km/h
1504 06-04-2019 17:00:00 16.30833 C 8.41 g/m*3 16.31 C 8.05833 km/h
1505 06-04-2019 18:00:00 17.31667 C 8.61 g/m*3 17.32 C 6.175 km/h
1506 06-04-2019 19:00:00 16.46667 C 9.06 g/m*3 16.47 C 0.53333 km/h
1507 06-04-2019 20:00:00 12.50833 C 8.76 g/m*3 12.51 C 0 km/h
1508 06-04-2019 21:00:00 11.1 C 8.53 g/m*3 11.1 C 0 km/h
1509 06-04-2019 22:00:00 10.05 C 8.28 g/m*3 10.05 C 0 km/h
1510 06-04-2019 23:00:00 9.3 C 8.04 g/m*3 9.3 C 0 km/h
1511 07-04-2019 00:00:00 8.40833 C 7.77 g/m*3 8.41 C 0 km/h
1512 07-04-2019 01:00:00 7.75833 C 7.54 g/m*3 7.76 C 0 km/h
1513 07-04-2019 02:00:00 7.175 C 7.34 g/m*3 7.18 C 0 km/h
1514 07-04-2019 03:00:00 6.775 C 7.23 g/m*3 6.78 C 0 km/h
1515 07-04-2019 04:00:00 6.09167 C 6.91 g/m*3 6.09 C 0 km/h
1516 07-04-2019 05:00:00 5.68333 C 6.75 g/m*3 5.68 C 0 km/h
1517 07-04-2019 06:00:00 5.43333 C 6.71 g/m*3 5.43 C 0 km/h
1518 07-04-2019 07:00:00 4.68333 C 6.37 g/m*3 4.68 C 0 km/h
1519 07-04-2019 08:00:00 5.23333 C 6.64 g/m*3 5.23 C 0 km/h
1520 07-04-2019 09:00:00 6.14167 C 7.11 g/m*3 6.14 C 0.4 km/h
1521 07-04-2019 10:00:00 8.25 C 8.16 g/m*3 8.25 C 0.4 km/h
1522 07-04-2019 11:00:00 12.725 C 8.8 g/m*3 12.73 C 10.08333 km/h
1523 07-04-2019 12:00:00 15.79167 C 7.95 g/m*3 15.79 C 12.75833 km/h
1524 07-04-2019 13:00:00 17.00833 C 7.47 g/m*3 17.01 C 11.15833 km/h
1525 07-04-2019 14:00:00 18.25833 C 7.16 g/m*3 18.26 C 16.9 km/h
Sensor: Nr:Datum:Temp:Abs-Feuchte:Windchill:Wind:
Aussen-T/F 1526 07-04-2019 15:00:00 19.13333 C 6.83 g/m*3 19.13 C 12.225 km/h
1527 07-04-2019 16:00:00 20 C 6.81 g/m*3 20 C 11.68333 km/h
1528 07-04-2019 17:00:00 20.88333 C 7.02 g/m*3 20.88 C 8.31667 km/h
1529 07-04-2019 18:00:00 19.09167 C 7.91 g/m*3 19.09 C 5.775 km/h
1530 07-04-2019 19:00:00 16.95 C 8.97 g/m*3 16.95 C 0.13333 km/h
1531 07-04-2019 20:00:00 15.14167 C 8.86 g/m*3 15.14 C 2.8 km/h
1532 07-04-2019 21:00:00 14.49167 C 8.9 g/m*3 14.49 C 0.8 km/h
1533 07-04-2019 22:00:00 13.95 C 8.9 g/m*3 13.95 C 0 km/h
1534 07-04-2019 23:00:00 13.44167 C 9.12 g/m*3 13.44 C 0 km/h
1535 08-04-2019 00:00:00 12.95 C 9.18 g/m*3 12.95 C 0.13333 km/h
1536 08-04-2019 01:00:00 12.53333 C 9.12 g/m*3 12.53 C 0.13333 km/h
1537 08-04-2019 02:00:00 11.975 C 8.98 g/m*3 11.98 C 0.26667 km/h
1538 08-04-2019 03:00:00 11.60833 C 8.9 g/m*3 11.61 C 0.8 km/h
1539 08-04-2019 04:00:00 11.23333 C 8.83 g/m*3 11.23 C 0.13333 km/h
1540 08-04-2019 05:00:00 11.06667 C 8.85 g/m*3 11.07 C 0.13333 km/h
1541 08-04-2019 06:00:00 10.66667 C 8.69 g/m*3 10.67 C 0.13333 km/h
1542 08-04-2019 07:00:00 10.025 C 8.5 g/m*3 10.03 C 0 km/h
1543 08-04-2019 08:00:00 10.425 C 8.87 g/m*3 10.43 C 0 km/h
1544 08-04-2019 09:00:00 11.5 C 9.16 g/m*3 11.5 C 1.46667 km/h
1545 08-04-2019 10:00:00 12.45833 C 9.29 g/m*3 12.46 C 1.6 km/h
1546 08-04-2019 11:00:00 13.16667 C 9.47 g/m*3 13.17 C 1.46667 km/h
1547 08-04-2019 12:00:00 13.15 C 9.54 g/m*3 13.15 C 1.2 km/h
1548 08-04-2019 13:00:00 13.48333 C 9.73 g/m*3 13.48 C 1.06667 km/h
1549 08-04-2019 14:00:00 15.05 C 9.93 g/m*3 15.05 C 3.73333 km/h
1550 08-04-2019 15:00:00 16.80833 C 9.88 g/m*3 16.81 C 6.55833 km/h
Sensor: Nr:Datum:Temp:Abs-Feuchte:Windchill:Wind:
Aussen-T/F 1551 08-04-2019 16:00:00 17.05833 C 9.84 g/m*3 17.06 C 2.93333 km/h
1552 08-04-2019 17:00:00 15.05 C 10.8 g/m*3 15.05 C 0.53333 km/h
1553 08-04-2019 18:00:00 14.35833 C 10.75 g/m*3 14.36 C 0.93333 km/h
1554 08-04-2019 19:00:00 13.84167 C 10.29 g/m*3 13.84 C 1.6 km/h
1555 08-04-2019 20:00:00 12.875 C 10.06 g/m*3 12.88 C 0.4 km/h
1556 08-04-2019 21:00:00 11.425 C 9.52 g/m*3 11.43 C 3.86667 km/h
1557 08-04-2019 22:00:00 11.1 C 9.53 g/m*3 11.1 C 1.06667 km/h
1558 08-04-2019 23:00:00 10.93333 C 9.45 g/m*3 10.93 C 0.53333 km/h
1559 09-04-2019 00:00:00 10.20833 C 9.04 g/m*3 10.21 C 0.93333 km/h
1560 09-04-2019 01:00:00 10.16667 C 9.08 g/m*3 10.17 C 0.26667 km/h
1561 09-04-2019 02:00:00 10.44167 C 9.28 g/m*3 10.44 C 0 km/h
1562 09-04-2019 03:00:00 10.15833 C 9.11 g/m*3 10.16 C 0 km/h
1563 09-04-2019 04:00:00 9.73333 C 8.87 g/m*3 9.73 C 0 km/h
1564 09-04-2019 05:00:00 9.025 C 8.48 g/m*3 9.03 C 0 km/h
1565 09-04-2019 06:00:00 8.94167 C 8.47 g/m*3 8.94 C 0 km/h
1566 09-04-2019 07:00:00 9.30833 C 8.72 g/m*3 9.31 C 0 km/h
1567 09-04-2019 08:00:00 9.875 C 9.04 g/m*3 9.88 C 0 km/h
1568 09-04-2019 09:00:00 10.50833 C 9.41 g/m*3 10.51 C 0.53333 km/h
1569 09-04-2019 10:00:00 11.09167 C 9.65 g/m*3 11.09 C 1.2 km/h
1570 09-04-2019 11:00:00 11.90833 C 10.03 g/m*3 11.91 C 2.13333 km/h
1571 09-04-2019 12:00:00 12.83333 C 10.38 g/m*3 12.83 C 1.2 km/h
1572 09-04-2019 13:00:00 14.475 C 10.69 g/m*3 14.48 C 3.2 km/h
1573 09-04-2019 14:00:00 16.075 C 10.8 g/m*3 16.08 C 6.83333 km/h
1574 09-04-2019 15:00:00 16.325 C 10.83 g/m*3 16.33 C 5.49167 km/h
1575 09-04-2019 16:00:00 16.08333 C 10.79 g/m*3 16.08 C 5.475 km/h
Sensor: Nr:Datum:Temp:Abs-Feuchte:Windchill:Wind:
Aussen-T/F 1576 09-04-2019 17:00:00 15.85 C 10.69 g/m*3 15.85 C 0.66667 km/h
1577 09-04-2019 18:00:00 15.4 C 10.9 g/m*3 15.4 C 0.13333 km/h
1578 09-04-2019 19:00:00 14.58333 C 10.17 g/m*3 14.58 C 2.80833 km/h
1579 09-04-2019 20:00:00 13.625 C 9.69 g/m*3 13.63 C 0.93333 km/h
1580 09-04-2019 21:00:00 12.48333 C 9.24 g/m*3 12.48 C 0.4 km/h
1581 09-04-2019 22:00:00 12.36667 C 8.16 g/m*3 12.37 C 4.53333 km/h
1582 09-04-2019 23:00:00 12.16667 C 7.6 g/m*3 12.17 C 7.38333 km/h
1583 10-04-2019 00:00:00 10.925 C 7.85 g/m*3 10.93 C 2.94167 km/h
1584 10-04-2019 01:00:00 10.36667 C 7.52 g/m*3 10.37 C 4.28333 km/h
1585 10-04-2019 02:00:00 9.91667 C 7.56 g/m*3 9.92 C 1.6 km/h
1586 10-04-2019 03:00:00 9.775 C 7.29 g/m*3 9.78 C 3.35 km/h
1587 10-04-2019 04:00:00 8.79167 C 7.06 g/m*3 8.79 C 0.53333 km/h
1588 10-04-2019 05:00:00 7.34167 C 6.71 g/m*3 7.34 C 0.53333 km/h
1589 10-04-2019 06:00:00 6.50833 C 6.47 g/m*3 6.51 C 0.66667 km/h
1590 10-04-2019 07:00:00 6.6 C 6.37 g/m*3 6.6 C 0.26667 km/h
1591 10-04-2019 08:00:00 7.675 C 6.24 g/m*3 6.99 C 5.36667 km/h
1592 10-04-2019 09:00:00 8.50833 C 6.14 g/m*3 6.74 C 10.625 km/h
1593 10-04-2019 10:00:00 9.575 C 6.31 g/m*3 7.82 C 11.83333 km/h
1594 10-04-2019 11:00:00 11.18333 C 6.41 g/m*3 11.18 C 12.9 km/h
1595 10-04-2019 12:00:00 12.16667 C 6.12 g/m*3 12.17 C 11.01667 km/h
1596 10-04-2019 13:00:00 13.425 C 6.32 g/m*3 13.43 C 9.94167 km/h
1597 10-04-2019 14:00:00 14.24167 C 6.08 g/m*3 14.24 C 12.76667 km/h
1598 10-04-2019 15:00:00 15.1 C 6.04 g/m*3 15.1 C 13.43333 km/h
1599 10-04-2019 16:00:00 16.075 C 6.01 g/m*3 16.08 C 13.825 km/h
1600 10-04-2019 17:00:00 16.6 C 5.79 g/m*3 16.6 C 12.35833 km/h
Sensor: Nr:Datum:Temp:Abs-Feuchte:Windchill:Wind:
Aussen-T/F 1601 10-04-2019 18:00:00 15.94167 C 5.17 g/m*3 15.94 C 14.5 km/h
1602 10-04-2019 19:00:00 14.4 C 5.28 g/m*3 14.4 C 14.9 km/h
1603 10-04-2019 20:00:00 11.34167 C 5.8 g/m*3 11.34 C 3.20833 km/h
1604 10-04-2019 21:00:00 8.9 C 5.88 g/m*3 8.9 C 2.13333 km/h
1605 10-04-2019 22:00:00 7.38333 C 5.81 g/m*3 7.38 C 0.4 km/h
1606 10-04-2019 23:00:00 6.46667 C 5.71 g/m*3 6.47 C 0.66667 km/h
1607 11-04-2019 00:00:00 5.75 C 5.52 g/m*3 5.75 C 1.34167 km/h
1608 11-04-2019 01:00:00 5.03333 C 5.31 g/m*3 5.03 C 0.53333 km/h
1609 11-04-2019 02:00:00 4.4 C 5.15 g/m*3 4.4 C 1.2 km/h
1610 11-04-2019 03:00:00 3.85833 C 4.98 g/m*3 3.86 C 0 km/h
1611 11-04-2019 04:00:00 2.9 C 4.76 g/m*3 2.9 C 0 km/h
1612 11-04-2019 05:00:00 2.30833 C 4.64 g/m*3 2.31 C 0.26667 km/h
1613 11-04-2019 06:00:00 1.71667 C 4.54 g/m*3 1.72 C 0 km/h
1614 11-04-2019 07:00:00 1.21667 C 4.49 g/m*3 1.22 C 0 km/h
1615 11-04-2019 08:00:00 1.8 C 4.69 g/m*3 1.8 C 0 km/h
1616 11-04-2019 09:00:00 3.9 C 4.89 g/m*3 3.9 C 4.69167 km/h
1617 11-04-2019 10:00:00 6.76667 C 4.43 g/m*3 3.92 C 15.03333 km/h
1618 11-04-2019 11:00:00 8.1 C 4.14 g/m*3 5.23 C 17.70833 km/h
1619 11-04-2019 12:00:00 8.91667 C 4.03 g/m*3 6.41 C 16.36667 km/h
1620 11-04-2019 13:00:00 9.875 C 4.05 g/m*3 7.86 C 14.23333 km/h
1621 11-04-2019 14:00:00 11.01667 C 4.09 g/m*3 11.02 C 16.5 km/h
1622 11-04-2019 15:00:00 12 C 4.13 g/m*3 12 C 17.175 km/h
1623 11-04-2019 16:00:00 12.76667 C 4.04 g/m*3 12.77 C 16.36667 km/h
1624 11-04-2019 17:00:00 13.31667 C 4.02 g/m*3 13.32 C 14.76667 km/h
1625 11-04-2019 18:00:00 13.025 C 3.99 g/m*3 13.03 C 11.41667 km/h
Sensor: Nr:Datum:Temp:Abs-Feuchte:Windchill:Wind:
Aussen-T/F 1626 11-04-2019 19:00:00 11.95833 C 4.06 g/m*3 11.96 C 7.65833 km/h
1627 11-04-2019 20:00:00 8.95 C 4.36 g/m*3 8.95 C 2.4 km/h
1628 11-04-2019 21:00:00 6.225 C 4.52 g/m*3 6.23 C 2.26667 km/h
1629 11-04-2019 22:00:00 5.35 C 4.45 g/m*3 5.35 C 2.80833 km/h
1630 11-04-2019 23:00:00 5.48333 C 4.26 g/m*3 5.48 C 3.75 km/h
1631 12-04-2019 00:00:00 4.46667 C 4.12 g/m*3 3.34 C 5.35 km/h
1632 12-04-2019 01:00:00 3.54167 C 4.03 g/m*3 3.54 C 3.34167 km/h
1633 12-04-2019 02:00:00 2.15833 C 4.03 g/m*3 2.16 C 2.53333 km/h
1634 12-04-2019 03:00:00 1.60833 C 3.98 g/m*3 1.61 C 3.06667 km/h
1635 12-04-2019 04:00:00 2.15833 C 4.23 g/m*3 2.16 C 0.66667 km/h
1636 12-04-2019 05:00:00 2.70833 C 4.27 g/m*3 2.71 C 0 km/h
1637 12-04-2019 06:00:00 2.98333 C 4.21 g/m*3 2.98 C 0 km/h
1638 12-04-2019 07:00:00 3.475 C 4.1 g/m*3 3.48 C 3.075 km/h
1639 12-04-2019 08:00:00 4.63333 C 3.85 g/m*3 1.97 C 11.16667 km/h
1640 12-04-2019 09:00:00 5.03333 C 3.82 g/m*3 2.3 C 11.95833 km/h
1641 12-04-2019 10:00:00 5.49167 C 3.74 g/m*3 1.91 C 18.23333 km/h
1642 12-04-2019 11:00:00 5.98333 C 3.76 g/m*3 2.37 C 19.43333 km/h
1643 12-04-2019 12:00:00 6.78333 C 3.82 g/m*3 4.08 C 14.09167 km/h
1644 12-04-2019 13:00:00 7.15833 C 3.74 g/m*3 4.9 C 11.825 km/h
1645 12-04-2019 14:00:00 7.26667 C 3.69 g/m*3 4.83 C 13.03333 km/h
1646 12-04-2019 15:00:00 7.56667 C 3.73 g/m*3 5.26 C 12.63333 km/h
1647 12-04-2019 16:00:00 7.3 C 3.74 g/m*3 5.16 C 11.3 km/h
1648 12-04-2019 17:00:00 7.1 C 3.64 g/m*3 5.46 C 8.61667 km/h
1649 12-04-2019 18:00:00 6.83333 C 3.76 g/m*3 4.53 C 11.7 km/h
1650 12-04-2019 19:00:00 6.525 C 3.91 g/m*3 4.41 C 10.35833 km/h
Sensor: Nr:Datum:Temp:Abs-Feuchte:Windchill:Wind:
Aussen-T/F 1651 12-04-2019 20:00:00 6.06667 C 4 g/m*3 4.3 C 8.34167 km/h
1652 12-04-2019 21:00:00 5.55 C 4.25 g/m*3 4.34 C 6.04167 km/h
1653 12-04-2019 22:00:00 4.39167 C 4.34 g/m*3 4.39 C 0.26667 km/h
1654 12-04-2019 23:00:00 3.58333 C 4.25 g/m*3 3.58 C 0.13333 km/h
1655 13-04-2019 00:00:00 2.95 C 4.3 g/m*3 2.95 C 0.66667 km/h
1656 13-04-2019 01:00:00 2.875 C 4.31 g/m*3 2.88 C 2.13333 km/h
1657 13-04-2019 02:00:00 2.61667 C 4.39 g/m*3 2.62 C 1.6 km/h
1658 13-04-2019 03:00:00 2.30833 C 4.42 g/m*3 2.31 C 0.26667 km/h
1659 13-04-2019 04:00:00 2.6 C 4.48 g/m*3 2.6 C 2.275 km/h
1660 13-04-2019 05:00:00 2.54167 C 4.5 g/m*3 2.54 C 0.4 km/h
1661 13-04-2019 06:00:00 2.28333 C 4.56 g/m*3 2.28 C 0.93333 km/h
1662 13-04-2019 07:00:00 2.5 C 4.6 g/m*3 2.5 C 2 km/h
1663 13-04-2019 08:00:00 3.125 C 4.63 g/m*3 1.24 C 6.975 km/h
1664 13-04-2019 09:00:00 3.60833 C 4.54 g/m*3 1.68 C 7.375 km/h
1665 13-04-2019 10:00:00 4.75833 C 4.42 g/m*3 2.83 C 8.075 km/h
1666 13-04-2019 11:00:00 5.36667 C 4.25 g/m*3 3.66 C 7.65 km/h
1667 13-04-2019 12:00:00 5.96667 C 4.15 g/m*3 3.58 C 11.15 km/h
1668 13-04-2019 13:00:00 5.75833 C 4.51 g/m*3 3.55 C 10.075 km/h
1669 13-04-2019 14:00:00 4.69167 C 5.15 g/m*3 2.3 C 9.93333 km/h
1670 13-04-2019 15:00:00 5.61667 C 5.3 g/m*3 3.85 C 8.05 km/h
1671 13-04-2019 16:00:00 6.21667 C 5.06 g/m*3 3.51 C 13.29167 km/h
1672 13-04-2019 17:00:00 4.55 C 5.59 g/m*3 3.33 C 5.63333 km/h
1673 13-04-2019 18:00:00 6.29167 C 5.7 g/m*3 6.29 C 4.28333 km/h
1674 13-04-2019 19:00:00 5.59167 C 5.48 g/m*3 5.59 C 1.73333 km/h
1675 13-04-2019 20:00:00 4.63333 C 5.35 g/m*3 4.63 C 2.54167 km/h
Sensor: Nr:Datum:Temp:Abs-Feuchte:Windchill:Wind:
Aussen-T/F 1676 13-04-2019 21:00:00 3.075 C 5 g/m*3 3.08 C 0 km/h
1677 13-04-2019 22:00:00 1.56667 C 4.72 g/m*3 1.57 C 0 km/h
1678 13-04-2019 23:00:00 1.04167 C 4.68 g/m*3 1.04 C 0 km/h
1679 14-04-2019 00:00:00 0.475 C 4.56 g/m*3 0.48 C 0 km/h
1680 14-04-2019 01:00:00 0.45 C 4.63 g/m*3 0.45 C 0 km/h
1681 14-04-2019 02:00:00 1.23333 C 4.92 g/m*3 1.23 C 0.13333 km/h
1682 14-04-2019 03:00:00 1.575 C 5.02 g/m*3 1.58 C 0.53333 km/h
1683 14-04-2019 04:00:00 1.63333 C 5.04 g/m*3 1.63 C 0.26667 km/h
1684 14-04-2019 05:00:00 1.56667 C 5.05 g/m*3 1.57 C 0.66667 km/h
1685 14-04-2019 06:00:00 1.25833 C 4.97 g/m*3 1.26 C 0 km/h
1686 14-04-2019 07:00:00 1.225 C 5.01 g/m*3 1.23 C 0 km/h
1687 14-04-2019 08:00:00 1.5 C 5.11 g/m*3 1.5 C 0 km/h
1688 14-04-2019 09:00:00 2.66667 C 5.57 g/m*3 2.67 C 0.13333 km/h
1689 14-04-2019 10:00:00 4.15 C 6.06 g/m*3 4.15 C 4.69167 km/h
1690 14-04-2019 11:00:00 6.00833 C 6.14 g/m*3 4.71 C 6.575 km/h
1691 14-04-2019 12:00:00 7.71667 C 5.62 g/m*3 5.62 C 11.55833 km/h
1692 14-04-2019 13:00:00 8.99167 C 5.14 g/m*3 7.21 C 11.275 km/h
1693 14-04-2019 14:00:00 10.43333 C 5.05 g/m*3 8.63 C 13.56667 km/h
1694 14-04-2019 15:00:00 11.46667 C 4.99 g/m*3 11.47 C 12.89167 km/h
1695 14-04-2019 16:00:00 12.08333 C 4.9 g/m*3 12.08 C 12.63333 km/h
1696 14-04-2019 17:00:00 12.50833 C 4.81 g/m*3 12.51 C 13.69167 km/h
1697 14-04-2019 18:00:00 12.06667 C 4.87 g/m*3 12.07 C 12.625 km/h
1698 14-04-2019 19:00:00 10.99167 C 5.18 g/m*3 9.87 C 9.66667 km/h
1699 14-04-2019 20:00:00 8.25 C 5.41 g/m*3 8.25 C 2.40833 km/h
1700 14-04-2019 21:00:00 5.925 C 5.5 g/m*3 5.93 C 2.14167 km/h
Sensor: Nr:Datum:Temp:Abs-Feuchte:Windchill:Wind:
Aussen-T/F 1701 14-04-2019 22:00:00 4.61667 C 5.42 g/m*3 4.62 C 1.86667 km/h
1702 14-04-2019 23:00:00 4.06667 C 5.39 g/m*3 4.07 C 1.6 km/h
1703 15-04-2019 00:00:00 4.11667 C 5.51 g/m*3 4.12 C 0.93333 km/h
1704 15-04-2019 01:00:00 5.075 C 5.83 g/m*3 5.08 C 0.53333 km/h
1705 15-04-2019 02:00:00 5.64167 C 5.91 g/m*3 5.64 C 0.26667 km/h
1706 15-04-2019 03:00:00 4.81667 C 5.71 g/m*3 4.82 C 0.66667 km/h
1707 15-04-2019 04:00:00 4.78333 C 5.81 g/m*3 4.78 C 0 km/h
1708 15-04-2019 05:00:00 4.26667 C 5.68 g/m*3 4.27 C 0.4 km/h
1709 15-04-2019 06:00:00 4.48333 C 5.87 g/m*3 4.48 C 0 km/h
1710 15-04-2019 07:00:00 5.1 C 6.13 g/m*3 5.1 C 0 km/h
1711 15-04-2019 08:00:00 5.98333 C 6.38 g/m*3 5.98 C 2.14167 km/h
1712 15-04-2019 09:00:00 7.175 C 6.61 g/m*3 5.98 C 6.84167 km/h
1713 15-04-2019 10:00:00 8.34167 C 6.78 g/m*3 6.68 C 9.83333 km/h
1714 15-04-2019 11:00:00 10.15833 C 7.1 g/m*3 9.48 C 6.70833 km/h
1715 15-04-2019 12:00:00 12.475 C 7.23 g/m*3 12.48 C 13.025 km/h
1716 15-04-2019 13:00:00 14.29167 C 7.15 g/m*3 14.29 C 15.16667 km/h
1717 15-04-2019 14:00:00 16.025 C 7.25 g/m*3 16.02 C 14.23333 km/h
1718 15-04-2019 15:00:00 17.53333 C 6.95 g/m*3 17.53 C 16.63333 km/h
1719 15-04-2019 16:00:00 18.31667 C 7 g/m*3 18.32 C 14.75833 km/h
1720 15-04-2019 17:00:00 18.95833 C 6.68 g/m*3 18.96 C 11.7 km/h
1721 15-04-2019 18:00:00 19.13333 C 6.32 g/m*3 19.13 C 11.95833 km/h
1722 15-04-2019 19:00:00 18.19167 C 6.42 g/m*3 18.19 C 5.89167 km/h
1723 15-04-2019 20:00:00 14.2 C 6.99 g/m*3 14.2 C 3.6 km/h
1724 15-04-2019 21:00:00 11.575 C 6.81 g/m*3 11.58 C 3.6 km/h
1725 15-04-2019 22:00:00 10.24167 C 6.5 g/m*3 10.24 C 0.53333 km/h
Sensor: Nr:Datum:Temp:Abs-Feuchte:Windchill:Wind:
Aussen-T/F 1726 15-04-2019 23:00:00 9.24167 C 6.19 g/m*3 9.24 C 3.6 km/h
1727 16-04-2019 00:00:00 8.16667 C 5.98 g/m*3 8.17 C 4.66667 km/h
1728 16-04-2019 01:00:00 7.25833 C 5.82 g/m*3 7.26 C 2.93333 km/h
1729 16-04-2019 02:00:00 6.48333 C 5.69 g/m*3 6.48 C 2.53333 km/h
1730 16-04-2019 03:00:00 6.06667 C 5.55 g/m*3 6.07 C 2 km/h
1731 16-04-2019 04:00:00 5.83333 C 5.4 g/m*3 5.83 C 2.66667 km/h
1732 16-04-2019 05:00:00 5.50833 C 5.35 g/m*3 5.51 C 2.93333 km/h
1733 16-04-2019 06:00:00 4.99167 C 5.27 g/m*3 4.99 C 1.46667 km/h
1734 16-04-2019 07:00:00 3.91667 C 5.23 g/m*3 3.92 C 0 km/h
1735 16-04-2019 08:00:00 4.51667 C 5.48 g/m*3 4.52 C 0.4 km/h
1736 16-04-2019 09:00:00 6.2 C 5.94 g/m*3 6.2 C 0.66667 km/h
1737 16-04-2019 10:00:00 10.39167 C 6.13 g/m*3 10.39 C 3.875 km/h
1738 16-04-2019 11:00:00 13.69167 C 6.06 g/m*3 13.69 C 6.85833 km/h
1739 16-04-2019 12:00:00 15.59167 C 6.26 g/m*3 15.59 C 9.28333 km/h
1740 16-04-2019 13:00:00 17.025 C 6.68 g/m*3 17.02 C 9.41667 km/h
1741 16-04-2019 14:00:00 18.3 C 7.24 g/m*3 18.3 C 9.14167 km/h
1742 16-04-2019 15:00:00 19.025 C 7.4 g/m*3 19.02 C 8.45833 km/h
1743 16-04-2019 16:00:00 18.85833 C 7.5 g/m*3 18.86 C 7.24167 km/h
1744 16-04-2019 17:00:00 18.09167 C 8.11 g/m*3 18.09 C 16.36667 km/h
1745 16-04-2019 18:00:00 15.5 C 8.21 g/m*3 15.5 C 12.1 km/h
1746 16-04-2019 19:00:00 14.63333 C 8.39 g/m*3 14.63 C 2.55 km/h
1747 16-04-2019 20:00:00 13.25833 C 8.37 g/m*3 13.26 C 0.13333 km/h
1748 16-04-2019 21:00:00 12.29167 C 8.25 g/m*3 12.29 C 0.8 km/h
1749 16-04-2019 22:00:00 11.825 C 8.35 g/m*3 11.83 C 0.66667 km/h
1750 16-04-2019 23:00:00 11.475 C 8.29 g/m*3 11.48 C 0 km/h
Sensor: Nr:Datum:Temp:Abs-Feuchte:Windchill:Wind:
Aussen-T/F 1751 17-04-2019 00:00:00 11.01667 C 8.31 g/m*3 11.02 C 0 km/h
1752 17-04-2019 01:00:00 10.725 C 8.68 g/m*3 10.73 C 1.86667 km/h
1753 17-04-2019 02:00:00 10.25833 C 8.74 g/m*3 10.26 C 0.26667 km/h
1754 17-04-2019 03:00:00 9.91667 C 8.72 g/m*3 9.92 C 0 km/h
1755 17-04-2019 04:00:00 9.73333 C 8.71 g/m*3 9.73 C 0 km/h
1756 17-04-2019 05:00:00 9.60833 C 8.71 g/m*3 9.61 C 0 km/h
1757 17-04-2019 06:00:00 9.66667 C 8.77 g/m*3 9.67 C 0 km/h
1758 17-04-2019 07:00:00 10 C 9.02 g/m*3 10 C 0.4 km/h
1759 17-04-2019 08:00:00 10.64167 C 9.39 g/m*3 10.64 C 2.275 km/h
1760 17-04-2019 09:00:00 11.36667 C 9.81 g/m*3 11.37 C 3.2 km/h
1761 17-04-2019 10:00:00 12.30833 C 10.16 g/m*3 12.31 C 2.675 km/h
1762 17-04-2019 11:00:00 13.04167 C 10.32 g/m*3 13.04 C 4.80833 km/h
1763 17-04-2019 12:00:00 13.675 C 10.3 g/m*3 13.68 C 5.23333 km/h
1764 17-04-2019 13:00:00 14.88333 C 10.47 g/m*3 14.88 C 6.98333 km/h
1765 17-04-2019 14:00:00 16.18333 C 10.25 g/m*3 16.18 C 7.24167 km/h
1766 17-04-2019 15:00:00 17.19167 C 10.21 g/m*3 17.19 C 7.9 km/h
1767 17-04-2019 16:00:00 18.00833 C 9.67 g/m*3 18.01 C 13.01667 km/h
1768 17-04-2019 17:00:00 18.225 C 9.74 g/m*3 18.23 C 7.91667 km/h
1769 17-04-2019 18:00:00 18.16667 C 9.51 g/m*3 18.17 C 5.24167 km/h
1770 17-04-2019 19:00:00 16.38333 C 10.26 g/m*3 16.38 C 0 km/h
1771 17-04-2019 20:00:00 13.575 C 9.15 g/m*3 13.58 C 2.13333 km/h
1772 17-04-2019 21:00:00 11.65 C 8.36 g/m*3 11.65 C 3.2 km/h
1773 17-04-2019 22:00:00 10.36667 C 8 g/m*3 10.37 C 0 km/h
1774 17-04-2019 23:00:00 9.375 C 7.68 g/m*3 9.38 C 0 km/h
1775 18-04-2019 00:00:00 8.70833 C 7.58 g/m*3 8.71 C 0 km/h
Sensor: Nr:Datum:Temp:Abs-Feuchte:Windchill:Wind:
Aussen-T/F 1776 18-04-2019 01:00:00 8.75833 C 7.65 g/m*3 8.76 C 0 km/h
1777 18-04-2019 02:00:00 8.55 C 7.51 g/m*3 8.55 C 0 km/h
1778 18-04-2019 03:00:00 8.01667 C 7.15 g/m*3 8.02 C 0 km/h
1779 18-04-2019 04:00:00 7.16667 C 6.89 g/m*3 7.17 C 0 km/h
1780 18-04-2019 05:00:00 6.875 C 6.9 g/m*3 6.88 C 0 km/h
1781 18-04-2019 06:00:00 6.76667 C 6.9 g/m*3 6.77 C 0 km/h
1782 18-04-2019 07:00:00 7.44167 C 7.08 g/m*3 7.44 C 0 km/h
1783 18-04-2019 08:00:00 8.475 C 7.49 g/m*3 8.48 C 0 km/h
1784 18-04-2019 09:00:00 9.88333 C 7.78 g/m*3 9.88 C 2 km/h
1785 18-04-2019 10:00:00 12.95 C 8.06 g/m*3 12.95 C 7.38333 km/h
1786 18-04-2019 11:00:00 16.38333 C 7.92 g/m*3 16.38 C 10.60833 km/h
1787 18-04-2019 12:00:00 17.65833 C 7.83 g/m*3 17.66 C 12.20833 km/h
1788 18-04-2019 13:00:00 18.76667 C 7.61 g/m*3 18.77 C 12.76667 km/h
1789 18-04-2019 14:00:00 19.91667 C 7.29 g/m*3 19.92 C 15.03333 km/h
1790 18-04-2019 15:00:00 21.35 C 7.23 g/m*3 21.35 C 14.63333 km/h
1791 18-04-2019 16:00:00 22.525 C 6.83 g/m*3 22.53 C 13.7 km/h
1792 18-04-2019 17:00:00 23.375 C 6.88 g/m*3 23.38 C 12.35833 km/h
1793 18-04-2019 18:00:00 23.40833 C 6.89 g/m*3 23.41 C 10.48333 km/h
1794 18-04-2019 19:00:00 22.28333 C 7.18 g/m*3 22.28 C 6.04167 km/h
1795 18-04-2019 20:00:00 18.05833 C 8.09 g/m*3 18.06 C 4 km/h
1796 18-04-2019 21:00:00 15.33333 C 7.77 g/m*3 15.33 C 4.8 km/h
1797 18-04-2019 22:00:00 14.23333 C 7.54 g/m*3 14.23 C 4.8 km/h
1798 18-04-2019 23:00:00 13.08333 C 7.44 g/m*3 13.08 C 2.4 km/h
1799 19-04-2019 00:00:00 11.55833 C 7.45 g/m*3 11.56 C 0 km/h
1800 19-04-2019 01:00:00 10.70833 C 7.37 g/m*3 10.71 C 0.26667 km/h
Sensor: Nr:Datum:Temp:Abs-Feuchte:Windchill:Wind:
Aussen-T/F 1801 19-04-2019 02:00:00 11.01667 C 7.17 g/m*3 11.02 C 3.33333 km/h
1802 19-04-2019 03:00:00 10.29167 C 7.05 g/m*3 10.29 C 1.86667 km/h
1803 19-04-2019 04:00:00 9.61667 C 6.99 g/m*3 9.62 C 0.13333 km/h
1804 19-04-2019 05:00:00 8.24167 C 6.84 g/m*3 8.24 C 0 km/h
1805 19-04-2019 06:00:00 7.04167 C 6.51 g/m*3 7.04 C 0 km/h
1806 19-04-2019 07:00:00 6.65 C 6.58 g/m*3 6.65 C 0 km/h
1807 19-04-2019 08:00:00 6.85 C 6.8 g/m*3 6.85 C 0 km/h
1808 19-04-2019 09:00:00 8.975 C 7.61 g/m*3 8.98 C 0.66667 km/h
1809 19-04-2019 10:00:00 13.525 C 7.82 g/m*3 13.53 C 7.66667 km/h
1810 19-04-2019 11:00:00 17.95833 C 7.47 g/m*3 17.96 C 14.1 km/h
1811 19-04-2019 12:00:00 19.9 C 7.13 g/m*3 19.9 C 13.7 km/h
1812 19-04-2019 13:00:00 21.36667 C 6.41 g/m*3 21.37 C 12.35 km/h
1813 19-04-2019 14:00:00 22.44167 C 6.24 g/m*3 22.44 C 15.43333 km/h
1814 19-04-2019 15:00:00 23.675 C 5.75 g/m*3 23.68 C 14.63333 km/h
1815 19-04-2019 16:00:00 24.89167 C 5.51 g/m*3 24.89 C 13.825 km/h
1816 19-04-2019 17:00:00 25.28333 C 5.26 g/m*3 25.28 C 12.76667 km/h
1817 19-04-2019 18:00:00 25.50833 C 5.29 g/m*3 25.51 C 9.83333 km/h
1818 19-04-2019 19:00:00 24.25 C 5.77 g/m*3 24.25 C 4.95833 km/h
1819 19-04-2019 20:00:00 19.21667 C 6.74 g/m*3 19.22 C 4.66667 km/h
1820 19-04-2019 21:00:00 15.875 C 6.68 g/m*3 15.88 C 2.93333 km/h
1821 19-04-2019 22:00:00 13.33333 C 6.74 g/m*3 13.33 C 0.8 km/h
1822 19-04-2019 23:00:00 11.73333 C 6.73 g/m*3 11.73 C 1.2 km/h
1823 20-04-2019 00:00:00 10.40833 C 6.81 g/m*3 10.41 C 0.4 km/h
1824 20-04-2019 01:00:00 9.45833 C 6.91 g/m*3 9.46 C 0 km/h
1825 20-04-2019 02:00:00 8.55833 C 6.93 g/m*3 8.56 C 0 km/h
Sensor: Nr:Datum:Temp:Abs-Feuchte:Windchill:Wind:
Aussen-T/F 1826 20-04-2019 03:00:00 7.64167 C 6.79 g/m*3 7.64 C 0 km/h
1827 20-04-2019 04:00:00 6.85 C 6.68 g/m*3 6.85 C 0 km/h
1828 20-04-2019 05:00:00 6.23333 C 6.58 g/m*3 6.23 C 0 km/h
1829 20-04-2019 06:00:00 5.775 C 6.48 g/m*3 5.78 C 0 km/h
1830 20-04-2019 07:00:00 5.85833 C 6.61 g/m*3 5.86 C 0.13333 km/h
1831 20-04-2019 08:00:00 6.48333 C 6.92 g/m*3 6.48 C 0 km/h
1832 20-04-2019 09:00:00 8.16667 C 7.71 g/m*3 8.17 C 0 km/h
1833 20-04-2019 10:00:00 11.68333 C 8.74 g/m*3 11.68 C 1.33333 km/h
1834 20-04-2019 11:00:00 16.725 C 9.1 g/m*3 16.73 C 3.46667 km/h
1835 20-04-2019 12:00:00 20.225 C 8.22 g/m*3 20.23 C 6.7 km/h
1836 20-04-2019 13:00:00 22.05 C 7.07 g/m*3 22.05 C 10.61667 km/h
1837 20-04-2019 14:00:00 23.275 C 6.04 g/m*3 23.28 C 11.95 km/h
1838 20-04-2019 15:00:00 24.25833 C 6.13 g/m*3 24.26 C 11.96667 km/h
1839 20-04-2019 16:00:00 25.21667 C 6.21 g/m*3 25.22 C 12.36667 km/h
1840 20-04-2019 17:00:00 25.30833 C 5.89 g/m*3 25.31 C 14.1 km/h
1841 20-04-2019 18:00:00 25.39167 C 5.55 g/m*3 25.39 C 10.89167 km/h
1842 20-04-2019 19:00:00 24.575 C 6.03 g/m*3 24.58 C 5.5 km/h
1843 20-04-2019 20:00:00 19.875 C 7.41 g/m*3 19.88 C 3.6 km/h
1844 20-04-2019 21:00:00 16.175 C 7.52 g/m*3 16.18 C 0.66667 km/h
1845 20-04-2019 22:00:00 13.81667 C 7.54 g/m*3 13.82 C 0 km/h
1846 20-04-2019 23:00:00 12.90833 C 7.4 g/m*3 12.91 C 0 km/h
1847 21-04-2019 00:00:00 12.84167 C 7.27 g/m*3 12.84 C 0 km/h
1848 21-04-2019 01:00:00 12.48333 C 7.18 g/m*3 12.48 C 0 km/h
1849 21-04-2019 02:00:00 11.36667 C 7.19 g/m*3 11.37 C 0 km/h
1850 21-04-2019 03:00:00 10.81667 C 7.23 g/m*3 10.82 C 0 km/h
Sensor: Nr:Datum:Temp:Abs-Feuchte:Windchill:Wind:
Aussen-T/F 1851 21-04-2019 04:00:00 9.23333 C 7.01 g/m*3 9.23 C 0 km/h
1852 21-04-2019 05:00:00 7.375 C 6.74 g/m*3 7.38 C 0 km/h
1853 21-04-2019 06:00:00 6.45 C 6.56 g/m*3 6.45 C 0 km/h
1854 21-04-2019 07:00:00 6.68333 C 6.77 g/m*3 6.68 C 0 km/h
1855 21-04-2019 08:00:00 7.16667 C 7.04 g/m*3 7.17 C 0 km/h
1856 21-04-2019 09:00:00 8.675 C 7.73 g/m*3 8.68 C 0 km/h
1857 21-04-2019 10:00:00 11.98333 C 8.67 g/m*3 11.98 C 0 km/h
1858 21-04-2019 11:00:00 16.48333 C 8.88 g/m*3 16.48 C 1.2 km/h
1859 21-04-2019 12:00:00 19.65833 C 7.65 g/m*3 19.66 C 5.08333 km/h
1860 21-04-2019 13:00:00 21.525 C 6.63 g/m*3 21.53 C 7.65833 km/h
1861 21-04-2019 14:00:00 22.98333 C 6.16 g/m*3 22.98 C 8.2 km/h
1862 21-04-2019 15:00:00 24.46667 C 6.78 g/m*3 24.47 C 9.81667 km/h
1863 21-04-2019 16:00:00 25.73333 C 6.32 g/m*3 25.73 C 11.41667 km/h
1864 21-04-2019 17:00:00 25.94167 C 5.95 g/m*3 25.94 C 11.825 km/h
1865 21-04-2019 18:00:00 26.13333 C 5.97 g/m*3 26.13 C 7.50833 km/h
1866 21-04-2019 19:00:00 24.58333 C 6.37 g/m*3 24.58 C 4.95 km/h
1867 21-04-2019 20:00:00 19.69167 C 6.89 g/m*3 19.69 C 3.6 km/h
1868 21-04-2019 21:00:00 16.725 C 7.21 g/m*3 16.73 C 2.26667 km/h
1869 21-04-2019 22:00:00 13.85833 C 7.54 g/m*3 13.86 C 0 km/h
1870 21-04-2019 23:00:00 12.21667 C 7.25 g/m*3 12.22 C 0 km/h
1871 22-04-2019 00:00:00 10.54167 C 7.03 g/m*3 10.54 C 0 km/h
1872 22-04-2019 01:00:00 9.24167 C 6.98 g/m*3 9.24 C 0 km/h
1873 22-04-2019 02:00:00 8.2 C 6.91 g/m*3 8.2 C 0.13333 km/h
1874 22-04-2019 03:00:00 7.56667 C 6.83 g/m*3 7.57 C 0.13333 km/h
1875 22-04-2019 04:00:00 6.64167 C 6.65 g/m*3 6.64 C 0 km/h
Sensor: Nr:Datum:Temp:Abs-Feuchte:Windchill:Wind:
Aussen-T/F 1876 22-04-2019 05:00:00 5.89167 C 6.51 g/m*3 5.89 C 0 km/h
1877 22-04-2019 06:00:00 5.475 C 6.43 g/m*3 5.48 C 0 km/h
1878 22-04-2019 07:00:00 5.74167 C 6.63 g/m*3 5.74 C 0 km/h
1879 22-04-2019 08:00:00 6.54167 C 6.99 g/m*3 6.54 C 0 km/h
1880 22-04-2019 09:00:00 8.40833 C 7.81 g/m*3 8.41 C 0.8 km/h
1881 22-04-2019 10:00:00 12.55 C 8.39 g/m*3 12.55 C 3.075 km/h
1882 22-04-2019 11:00:00 17.96667 C 7.52 g/m*3 17.97 C 11.825 km/h
1883 22-04-2019 12:00:00 20.89167 C 6.96 g/m*3 20.89 C 12.76667 km/h
1884 22-04-2019 13:00:00 22.65 C 5.99 g/m*3 22.65 C 14.36667 km/h
1885 22-04-2019 14:00:00 23.45 C 6.13 g/m*3 23.45 C 15.3 km/h
1886 22-04-2019 15:00:00 24.375 C 6.32 g/m*3 24.38 C 15.03333 km/h
1887 22-04-2019 16:00:00 25.49167 C 6.11 g/m*3 25.49 C 15.83333 km/h
1888 22-04-2019 17:00:00 25.70833 C 5.93 g/m*3 25.71 C 12.9 km/h
1889 22-04-2019 18:00:00 24.4 C 6.25 g/m*3 24.4 C 4.55833 km/h
1890 22-04-2019 19:00:00 21.4 C 7.8 g/m*3 21.4 C 2 km/h
1891 22-04-2019 20:00:00 19.55 C 7.24 g/m*3 19.55 C 5.50833 km/h
1892 22-04-2019 21:00:00 16.975 C 7.06 g/m*3 16.98 C 3.46667 km/h
1893 22-04-2019 22:00:00 15.15 C 6.63 g/m*3 15.15 C 3.74167 km/h
1894 22-04-2019 23:00:00 15.04167 C 6.34 g/m*3 15.04 C 5.36667 km/h
1895 23-04-2019 00:00:00 13.175 C 6.4 g/m*3 13.18 C 2.13333 km/h
1896 23-04-2019 01:00:00 11.55 C 6.45 g/m*3 11.55 C 0.53333 km/h
1897 23-04-2019 02:00:00 10.31667 C 6.42 g/m*3 10.32 C 0.66667 km/h
1898 23-04-2019 03:00:00 9.7 C 6.31 g/m*3 9.7 C 0 km/h
1899 23-04-2019 04:00:00 9.15833 C 6.39 g/m*3 9.16 C 0 km/h
1900 23-04-2019 05:00:00 8.83333 C 6.38 g/m*3 8.83 C 0 km/h
Sensor: Nr:Datum:Temp:Abs-Feuchte:Windchill:Wind:
Aussen-T/F 1901 23-04-2019 06:00:00 8.31667 C 6.41 g/m*3 8.32 C 0 km/h
1902 23-04-2019 07:00:00 8.99167 C 6.81 g/m*3 8.99 C 0 km/h
1903 23-04-2019 08:00:00 10.325 C 7.31 g/m*3 10.33 C 0 km/h
1904 23-04-2019 09:00:00 12.53333 C 7.04 g/m*3 12.53 C 7.94167 km/h
1905 23-04-2019 10:00:00 14.025 C 7.28 g/m*3 14.03 C 9.95833 km/h
1906 23-04-2019 11:00:00 15.475 C 7.58 g/m*3 15.48 C 12.76667 km/h
1907 23-04-2019 12:00:00 17.04167 C 8.01 g/m*3 17.04 C 11.56667 km/h
1908 23-04-2019 13:00:00 18.89167 C 8.29 g/m*3 18.89 C 14.36667 km/h
1909 23-04-2019 14:00:00 20.44167 C 8.5 g/m*3 20.44 C 13.16667 km/h
1910 23-04-2019 15:00:00 21.76667 C 8.55 g/m*3 21.77 C 14.76667 km/h
1911 23-04-2019 16:00:00 23.1 C 8.79 g/m*3 23.1 C 10.875 km/h
1912 23-04-2019 17:00:00 23.4 C 8.97 g/m*3 23.4 C 8.475 km/h
1913 23-04-2019 18:00:00 21.775 C 8.86 g/m*3 21.78 C 7.91667 km/h
1914 23-04-2019 19:00:00 20.31667 C 9.21 g/m*3 20.32 C 2.93333 km/h
1915 23-04-2019 20:00:00 17.975 C 9.41 g/m*3 17.98 C 0.53333 km/h
1916 23-04-2019 21:00:00 16.08333 C 9.45 g/m*3 16.08 C 0.13333 km/h
1917 23-04-2019 22:00:00 15.54167 C 9.44 g/m*3 15.54 C 0 km/h
1918 23-04-2019 23:00:00 15.08333 C 9.3 g/m*3 15.08 C 0 km/h
1919 24-04-2019 00:00:00 14.425 C 9.31 g/m*3 14.43 C 0 km/h
1920 24-04-2019 01:00:00 12.65833 C 8.71 g/m*3 12.66 C 0 km/h
1921 24-04-2019 02:00:00 11.325 C 8.48 g/m*3 11.33 C 0 km/h
1922 24-04-2019 03:00:00 10.39167 C 8.33 g/m*3 10.39 C 0 km/h
1923 24-04-2019 04:00:00 9.89167 C 8.28 g/m*3 9.89 C 0 km/h
1924 24-04-2019 05:00:00 9.35 C 8.12 g/m*3 9.35 C 0 km/h
1925 24-04-2019 06:00:00 9.1 C 8.13 g/m*3 9.1 C 0.26667 km/h
Sensor: Nr:Datum:Temp:Abs-Feuchte:Windchill:Wind:
Aussen-T/F 1926 24-04-2019 07:00:00 9.66667 C 8.51 g/m*3 9.67 C 0 km/h
1927 24-04-2019 08:00:00 11.55833 C 9.01 g/m*3 11.56 C 0 km/h
1928 24-04-2019 09:00:00 13.39167 C 9.57 g/m*3 13.39 C 0 km/h
1929 24-04-2019 10:00:00 16.14167 C 10.2 g/m*3 16.14 C 0 km/h
1930 24-04-2019 11:00:00 18.73333 C 10.71 g/m*3 18.73 C 1.74167 km/h
1931 24-04-2019 12:00:00 21.425 C 9.5 g/m*3 21.43 C 9.14167 km/h
1932 24-04-2019 13:00:00 22.38333 C 9.03 g/m*3 22.38 C 9.14167 km/h
1933 24-04-2019 14:00:00 23.45 C 9.01 g/m*3 23.45 C 6.05 km/h
1934 24-04-2019 15:00:00 24.80833 C 8.88 g/m*3 24.81 C 6.56667 km/h
1935 24-04-2019 16:00:00 25.20833 C 9.14 g/m*3 25.21 C 6.15833 km/h
1936 24-04-2019 17:00:00 25.675 C 9.78 g/m*3 25.68 C 6.16667 km/h
1937 24-04-2019 18:00:00 19.91667 C 9.77 g/m*3 19.92 C 24.66667 km/h
1938 24-04-2019 19:00:00 13.875 C 9.24 g/m*3 13.88 C 28.94167 km/h
1939 24-04-2019 20:00:00 11.34167 C 8.8 g/m*3 11.34 C 16.225 km/h
1940 24-04-2019 21:00:00 9.85 C 8.55 g/m*3 9.85 C 1.86667 km/h
1941 24-04-2019 22:00:00 9.16667 C 8.33 g/m*3 9.17 C 0 km/h
1942 24-04-2019 23:00:00 9.00833 C 8.37 g/m*3 9.01 C 0 km/h
1943 25-04-2019 00:00:00 8.85833 C 8.3 g/m*3 8.86 C 0.4 km/h
1944 25-04-2019 01:00:00 8.125 C 7.92 g/m*3 8.13 C 0.66667 km/h
1945 25-04-2019 02:00:00 7.45 C 7.6 g/m*3 7.45 C 0 km/h
1946 25-04-2019 03:00:00 7.2 C 7.54 g/m*3 7.2 C 0 km/h
1947 25-04-2019 04:00:00 7.05833 C 7.47 g/m*3 7.06 C 0 km/h
1948 25-04-2019 05:00:00 7.10833 C 7.49 g/m*3 7.11 C 0 km/h
1949 25-04-2019 06:00:00 7.05833 C 7.53 g/m*3 7.06 C 0.4 km/h
1950 25-04-2019 07:00:00 7.85833 C 7.95 g/m*3 7.86 C 0.53333 km/h
Sensor: Nr:Datum:Temp:Abs-Feuchte:Windchill:Wind:
Aussen-T/F 1951 25-04-2019 08:00:00 9.16667 C 8.64 g/m*3 9.17 C 3.06667 km/h
1952 25-04-2019 09:00:00 10.63333 C 9.49 g/m*3 10.63 C 0.13333 km/h
1953 25-04-2019 10:00:00 11.54167 C 9.93 g/m*3 11.54 C 1.75 km/h
1954 25-04-2019 11:00:00 14.14167 C 9.69 g/m*3 14.14 C 8.06667 km/h
1955 25-04-2019 12:00:00 16.96667 C 9.24 g/m*3 16.97 C 8.60833 km/h
1956 25-04-2019 13:00:00 18.6 C 9.35 g/m*3 18.6 C 8.61667 km/h
1957 25-04-2019 14:00:00 20.25833 C 9.3 g/m*3 20.26 C 7.39167 km/h
1958 25-04-2019 15:00:00 21.525 C 9.32 g/m*3 21.53 C 8.19167 km/h
1959 25-04-2019 16:00:00 22.125 C 10.75 g/m*3 22.13 C 3.21667 km/h
1960 25-04-2019 17:00:00 21.35 C 11.08 g/m*3 21.35 C 6.725 km/h
1961 25-04-2019 18:00:00 20.55833 C 9.8 g/m*3 20.56 C 13.95833 km/h
1962 25-04-2019 19:00:00 16.88333 C 8.82 g/m*3 16.88 C 17.45 km/h
1963 25-04-2019 20:00:00 15.125 C 8.62 g/m*3 15.13 C 12.61667 km/h
1964 25-04-2019 21:00:00 13.85 C 8.64 g/m*3 13.85 C 7.125 km/h
1965 25-04-2019 22:00:00 13.04167 C 8.49 g/m*3 13.04 C 2.4 km/h
1966 25-04-2019 23:00:00 12.425 C 8.57 g/m*3 12.43 C 0 km/h
1967 26-04-2019 00:00:00 11.39167 C 8.43 g/m*3 11.39 C 0 km/h
1968 26-04-2019 01:00:00 10.93333 C 8.5 g/m*3 10.93 C 0 km/h
1969 26-04-2019 02:00:00 11.00833 C 8.44 g/m*3 11.01 C 0 km/h
1970 26-04-2019 03:00:00 10.98333 C 8.31 g/m*3 10.98 C 0 km/h
1971 26-04-2019 04:00:00 10.8 C 8.27 g/m*3 10.8 C 2.80833 km/h
1972 26-04-2019 05:00:00 10.4 C 8.38 g/m*3 10.4 C 2.80833 km/h
1973 26-04-2019 06:00:00 9.625 C 8.44 g/m*3 9.63 C 0.93333 km/h
1974 26-04-2019 07:00:00 9.5 C 8.55 g/m*3 9.5 C 0.93333 km/h
1975 26-04-2019 08:00:00 9.50833 C 8.62 g/m*3 9.51 C 0.8 km/h
Sensor: Nr:Datum:Temp:Abs-Feuchte:Windchill:Wind:
Aussen-T/F 1976 26-04-2019 09:00:00 9.99167 C 8.92 g/m*3 9.99 C 3.08333 km/h
1977 26-04-2019 10:00:00 10.275 C 9.08 g/m*3 10.28 C 3.48333 km/h
1978 26-04-2019 11:00:00 10.88333 C 9.29 g/m*3 10.88 C 4.55833 km/h
1979 26-04-2019 12:00:00 11.95833 C 9.42 g/m*3 11.96 C 8.73333 km/h
1980 26-04-2019 13:00:00 13.00833 C 9.36 g/m*3 13.01 C 9.68333 km/h
1981 26-04-2019 14:00:00 13.53333 C 9.16 g/m*3 13.53 C 10.9 km/h
1982 26-04-2019 15:00:00 13.525 C 8.98 g/m*3 13.53 C 9 km/h
1983 26-04-2019 16:00:00 15.06667 C 9.1 g/m*3 15.07 C 8.74167 km/h
1984 26-04-2019 17:00:00 15.74167 C 8.85 g/m*3 15.74 C 6.025 km/h
1985 26-04-2019 18:00:00 16.925 C 8.93 g/m*3 16.93 C 3.60833 km/h
1986 26-04-2019 19:00:00 15.84167 C 9.71 g/m*3 15.84 C 0 km/h
1987 26-04-2019 20:00:00 12.575 C 8.92 g/m*3 12.58 C 7.89167 km/h
1988 26-04-2019 21:00:00 10.89167 C 8.66 g/m*3 10.89 C 2.13333 km/h
1989 26-04-2019 22:00:00 10.45833 C 8.59 g/m*3 10.46 C 0 km/h
1990 26-04-2019 23:00:00 10.00833 C 8.49 g/m*3 10.01 C 0 km/h
1991 27-04-2019 00:00:00 9.20833 C 8.21 g/m*3 9.21 C 0 km/h
1992 27-04-2019 01:00:00 9.14167 C 8.27 g/m*3 9.14 C 0 km/h
1993 27-04-2019 02:00:00 8.575 C 7.99 g/m*3 8.57 C 0.26667 km/h
1994 27-04-2019 03:00:00 7.875 C 7.71 g/m*3 7.88 C 0 km/h
1995 27-04-2019 04:00:00 7.18333 C 7.39 g/m*3 7.18 C 0 km/h
1996 27-04-2019 05:00:00 6.64167 C 7.18 g/m*3 6.64 C 0 km/h
1997 27-04-2019 06:00:00 6.425 C 7.12 g/m*3 6.43 C 0 km/h
1998 27-04-2019 07:00:00 7.15 C 7.51 g/m*3 7.15 C 0 km/h
1999 27-04-2019 08:00:00 8.66667 C 8.36 g/m*3 8.67 C 0 km/h
2000 27-04-2019 09:00:00 10.16667 C 9.01 g/m*3 10.17 C 1.33333 km/h
Sensor: Nr:Datum:Temp:Abs-Feuchte:Windchill:Wind:
Aussen-T/F 2001 27-04-2019 10:00:00 11.30833 C 8.95 g/m*3 11.31 C 3.075 km/h
2002 27-04-2019 11:00:00 12.64167 C 8.49 g/m*3 12.64 C 11.14167 km/h
2003 27-04-2019 12:00:00 12.69167 C 9.08 g/m*3 12.69 C 9.29167 km/h
2004 27-04-2019 13:00:00 13.025 C 8.85 g/m*3 13.03 C 14.90833 km/h
2005 27-04-2019 14:00:00 9.525 C 8.21 g/m*3 8.62 C 7.24167 km/h
2006 27-04-2019 15:00:00 10.46667 C 8.71 g/m*3 10.47 C 3.475 km/h
2007 27-04-2019 16:00:00 11.75 C 8.58 g/m*3 11.75 C 6.85 km/h
2008 27-04-2019 17:00:00 12.35 C 8.56 g/m*3 12.35 C 6.84167 km/h
2009 27-04-2019 18:00:00 11.34167 C 8.22 g/m*3 11.34 C 5.89167 km/h
2010 27-04-2019 19:00:00 9.55833 C 8.23 g/m*3 8.92 C 6.16667 km/h
2011 27-04-2019 20:00:00 7.725 C 7.49 g/m*3 7.73 C 3.33333 km/h
2012 27-04-2019 21:00:00 7.3 C 7.41 g/m*3 7.3 C 0.8 km/h
2013 27-04-2019 22:00:00 6.76667 C 7.22 g/m*3 6.77 C 1.33333 km/h
2014 27-04-2019 23:00:00 6.84167 C 7.28 g/m*3 6.84 C 4.55833 km/h
2015 28-04-2019 00:00:00 6.86667 C 7.2 g/m*3 6.87 C 4.15 km/h
2016 28-04-2019 01:00:00 6.875 C 7.09 g/m*3 5.87 C 6.025 km/h
2017 28-04-2019 02:00:00 6.43333 C 6.8 g/m*3 5.45 C 5.76667 km/h
2018 28-04-2019 03:00:00 6.19167 C 6.63 g/m*3 5 C 6.30833 km/h
2019 28-04-2019 04:00:00 6.41667 C 6.58 g/m*3 4.26 C 10.475 km/h
2020 28-04-2019 05:00:00 6.26667 C 6.55 g/m*3 4.13 C 10.20833 km/h
2021 28-04-2019 06:00:00 6.2 C 6.53 g/m*3 4.7 C 7.39167 km/h
2022 28-04-2019 07:00:00 6.80833 C 6.75 g/m*3 5.45 C 7.25833 km/h
2023 28-04-2019 08:00:00 7.575 C 6.92 g/m*3 6.24 C 7.65833 km/h
2024 28-04-2019 09:00:00 7.93333 C 7.13 g/m*3 7.93 C 4.28333 km/h
2025 28-04-2019 10:00:00 8.90833 C 7.27 g/m*3 8.18 C 6.15 km/h
Sensor: Nr:Datum:Temp:Abs-Feuchte:Windchill:Wind:
Aussen-T/F 2026 28-04-2019 11:00:00 10 C 6.98 g/m*3 8.42 C 11.3 km/h
2027 28-04-2019 12:00:00 10.325 C 6.77 g/m*3 9.12 C 9.39167 km/h
2028 28-04-2019 13:00:00 11.3 C 6.83 g/m*3 11.3 C 8.61667 km/h
2029 28-04-2019 14:00:00 12.35 C 7.24 g/m*3 12.35 C 7.125 km/h
2030 28-04-2019 15:00:00 11.50833 C 7.58 g/m*3 11.51 C 6.56667 km/h
2031 28-04-2019 16:00:00 10.375 C 8.07 g/m*3 10.11 C 5.23333 km/h
2032 28-04-2019 17:00:00 11.44167 C 8.14 g/m*3 11.44 C 2.54167 km/h
2033 28-04-2019 18:00:00 11.48333 C 7.7 g/m*3 11.48 C 6.73333 km/h
2034 28-04-2019 19:00:00 10.86667 C 7.54 g/m*3 10.24 C 6.975 km/h
2035 28-04-2019 20:00:00 9.65 C 7.37 g/m*3 9.65 C 1.475 km/h
2036 28-04-2019 21:00:00 7.30833 C 6.87 g/m*3 7.31 C 0 km/h
2037 28-04-2019 22:00:00 5.96667 C 6.55 g/m*3 5.97 C 0 km/h
2038 28-04-2019 23:00:00 5 C 6.27 g/m*3 5 C 0 km/h
2039 29-04-2019 00:00:00 4.41667 C 6.12 g/m*3 4.42 C 0 km/h
2040 29-04-2019 01:00:00 4.03333 C 5.99 g/m*3 4.03 C 0 km/h
2041 29-04-2019 02:00:00 3.425 C 5.8 g/m*3 3.43 C 0 km/h
2042 29-04-2019 03:00:00 3.675 C 5.91 g/m*3 3.68 C 0 km/h
2043 29-04-2019 04:00:00 3.54167 C 5.89 g/m*3 3.54 C 0 km/h
2044 29-04-2019 05:00:00 3.35833 C 5.85 g/m*3 3.36 C 4.26667 km/h
2045 29-04-2019 06:00:00 3.15 C 5.77 g/m*3 3.15 C 1.46667 km/h
2046 29-04-2019 07:00:00 3.225 C 5.79 g/m*3 3.23 C 1.73333 km/h
2047 29-04-2019 08:00:00 3.85833 C 6.07 g/m*3 3.86 C 4.26667 km/h
2048 29-04-2019 09:00:00 4.99167 C 6.59 g/m*3 4.99 C 4.13333 km/h
2049 29-04-2019 10:00:00 6.51667 C 7.15 g/m*3 6.52 C 2.4 km/h
2050 29-04-2019 11:00:00 8.7 C 7.85 g/m*3 8.7 C 2.4 km/h
Sensor: Nr:Datum:Temp:Abs-Feuchte:Windchill:Wind:
Aussen-T/F 2051 29-04-2019 12:00:00 11.925 C 8.18 g/m*3 11.93 C 5.48333 km/h
2052 29-04-2019 13:00:00 13.975 C 7.63 g/m*3 13.98 C 9.025 km/h
2053 29-04-2019 14:00:00 14.83333 C 7.25 g/m*3 14.83 C 9.69167 km/h
2054 29-04-2019 15:00:00 15.29167 C 7.35 g/m*3 15.29 C 9.68333 km/h
2055 29-04-2019 16:00:00 15.31667 C 7.23 g/m*3 15.32 C 11.43333 km/h
2056 29-04-2019 17:00:00 15.31667 C 7.29 g/m*3 15.32 C 11.7 km/h
2057 29-04-2019 18:00:00 13.69167 C 8.13 g/m*3 13.69 C 7.26667 km/h
2058 29-04-2019 19:00:00 11.075 C 8.86 g/m*3 11.08 C 1.2 km/h
2059 29-04-2019 20:00:00 10.25 C 8.74 g/m*3 10.25 C 0 km/h
2060 29-04-2019 21:00:00 10.13333 C 8.75 g/m*3 10.13 C 0.4 km/h
2061 29-04-2019 22:00:00 10.25833 C 8.76 g/m*3 10.26 C 2.675 km/h
2062 29-04-2019 23:00:00 10.65833 C 8.78 g/m*3 10.66 C 1.73333 km/h
2063 30-04-2019 00:00:00 10.98333 C 8.73 g/m*3 10.98 C 3.48333 km/h
2064 30-04-2019 01:00:00 11.16667 C 8.72 g/m*3 11.17 C 5.09167 km/h
2065 30-04-2019 02:00:00 10.85 C 8.73 g/m*3 10.85 C 4.01667 km/h
2066 30-04-2019 03:00:00 10.59167 C 8.68 g/m*3 10.59 C 2.94167 km/h
2067 30-04-2019 04:00:00 10.30833 C 8.52 g/m*3 10.31 C 2.275 km/h
2068 30-04-2019 05:00:00 10.18333 C 8.37 g/m*3 9.9 C 5.225 km/h
2069 30-04-2019 06:00:00 10.05833 C 8.38 g/m*3 10.06 C 3.89167 km/h
2070 30-04-2019 07:00:00 10.075 C 8.38 g/m*3 9.62 C 5.775 km/h
2071 30-04-2019 08:00:00 10.725 C 8.26 g/m*3 9.87 C 7.925 km/h
2072 30-04-2019 09:00:00 11.51667 C 7.94 g/m*3 11.52 C 10.225 km/h
2073 30-04-2019 10:00:00 12.61667 C 7.76 g/m*3 12.62 C 10.76667 km/h
2074 30-04-2019 11:00:00 13.60833 C 7.39 g/m*3 13.61 C 10.34167 km/h
2075 30-04-2019 12:00:00 14.5 C 7.26 g/m*3 14.5 C 12.225 km/h
Sensor: Nr:Datum:Temp:Abs-Feuchte:Windchill:Wind:
Aussen-T/F 2076 30-04-2019 13:00:00 15.65833 C 7.11 g/m*3 15.66 C 11.29167 km/h
2077 30-04-2019 14:00:00 16.86667 C 6.96 g/m*3 16.87 C 10.35 km/h
2078 30-04-2019 15:00:00 18.59167 C 7.21 g/m*3 18.59 C 12.9 km/h
2079 30-04-2019 16:00:00 20.025 C 7.07 g/m*3 20.02 C 12.23333 km/h
2080 30-04-2019 17:00:00 20.46667 C 7.37 g/m*3 20.47 C 11.425 km/h
2081 30-04-2019 18:00:00 20.24167 C 7.51 g/m*3 20.24 C 10.075 km/h
2082 30-04-2019 19:00:00 18.90833 C 7.92 g/m*3 18.91 C 10.09167 km/h
2083 30-04-2019 20:00:00 16.95833 C 8.22 g/m*3 16.96 C 6.96667 km/h
2084 30-04-2019 21:00:00 15.48333 C 8.56 g/m*3 15.48 C 5.625 km/h
2085 30-04-2019 22:00:00 14.225 C 8.66 g/m*3 14.23 C 7.925 km/h
2086 30-04-2019 23:00:00 12.65833 C 8.65 g/m*3 12.66 C 2.81667 km/h
2087 01-05-2019 00:00:00 11.25833 C 8.45 g/m*3 11.26 C 0.8 km/h
2088 01-05-2019 01:00:00 10.36667 C 8.22 g/m*3 10.37 C 0.66667 km/h
2089 01-05-2019 02:00:00 9.26667 C 7.91 g/m*3 9.27 C 0 km/h
2090 01-05-2019 03:00:00 8.45833 C 7.73 g/m*3 8.46 C 0.13333 km/h
2091 01-05-2019 04:00:00 8.075 C 7.62 g/m*3 8.07 C 0.4 km/h
2092 01-05-2019 05:00:00 6.95833 C 7.13 g/m*3 6.96 C 0 km/h
2093 01-05-2019 06:00:00 6.275 C 6.92 g/m*3 6.28 C 0.13333 km/h
2094 01-05-2019 07:00:00 6.79167 C 7.26 g/m*3 6.79 C 0.53333 km/h
2095 01-05-2019 08:00:00 7.9 C 7.79 g/m*3 7.9 C 0.8 km/h
2096 01-05-2019 09:00:00 8.89167 C 8.14 g/m*3 8.89 C 1.46667 km/h
2097 01-05-2019 10:00:00 10.11667 C 8.5 g/m*3 10.12 C 3.06667 km/h
2098 01-05-2019 11:00:00 11.40833 C 8.86 g/m*3 11.41 C 3.06667 km/h
2099 01-05-2019 12:00:00 13.80833 C 9.43 g/m*3 13.81 C 4.40833 km/h
2100 01-05-2019 13:00:00 16.03333 C 9.07 g/m*3 16.03 C 7.54167 km/h
Sensor: Nr:Datum:Temp:Abs-Feuchte:Windchill:Wind:
Aussen-T/F 2101 01-05-2019 14:00:00 17.69167 C 8.31 g/m*3 17.69 C 9.15833 km/h
2102 01-05-2019 15:00:00 19.35 C 8.11 g/m*3 19.35 C 9.40833 km/h
2103 01-05-2019 16:00:00 21.31667 C 8.18 g/m*3 21.32 C 7.40833 km/h
2104 01-05-2019 17:00:00 21.48333 C 8.34 g/m*3 21.48 C 8.05833 km/h
2105 01-05-2019 18:00:00 20.325 C 9.25 g/m*3 20.33 C 10.225 km/h
2106 01-05-2019 19:00:00 18.21667 C 9.06 g/m*3 18.22 C 7.65833 km/h
2107 01-05-2019 20:00:00 15.65833 C 8.45 g/m*3 15.66 C 3.475 km/h
2108 01-05-2019 21:00:00 13.53333 C 8.59 g/m*3 13.53 C 5.90833 km/h
2109 01-05-2019 22:00:00 12.76667 C 8.71 g/m*3 12.77 C 2.81667 km/h
2110 01-05-2019 23:00:00 10.80833 C 8.45 g/m*3 10.81 C 0 km/h
2111 02-05-2019 00:00:00 9.98333 C 8.29 g/m*3 9.98 C 0 km/h
2112 02-05-2019 01:00:00 8.96667 C 7.95 g/m*3 8.97 C 0 km/h
2113 02-05-2019 02:00:00 8.23333 C 7.78 g/m*3 8.23 C 0 km/h
2114 02-05-2019 03:00:00 7.73333 C 7.6 g/m*3 7.73 C 0 km/h
2115 02-05-2019 04:00:00 7.025 C 7.3 g/m*3 7.03 C 0 km/h
2116 02-05-2019 05:00:00 6.325 C 6.99 g/m*3 6.33 C 0 km/h
2117 02-05-2019 06:00:00 5.89167 C 6.85 g/m*3 5.89 C 0 km/h
2118 02-05-2019 07:00:00 6.84167 C 7.36 g/m*3 6.84 C 0.8 km/h
2119 02-05-2019 08:00:00 8.325 C 8.08 g/m*3 8.32 C 2.13333 km/h
2120 02-05-2019 09:00:00 9.075 C 8.18 g/m*3 9.07 C 1.73333 km/h
2121 02-05-2019 10:00:00 10.725 C 8.12 g/m*3 10.73 C 3.2 km/h
2122 02-05-2019 11:00:00 12.15833 C 8.24 g/m*3 12.16 C 5.21667 km/h
2123 02-05-2019 12:00:00 12.925 C 8.35 g/m*3 12.93 C 6.98333 km/h
2124 02-05-2019 13:00:00 14.15 C 8.46 g/m*3 14.15 C 7.25833 km/h
2125 02-05-2019 14:00:00 15.85 C 8.81 g/m*3 15.85 C 6.96667 km/h
Sensor: Nr:Datum:Temp:Abs-Feuchte:Windchill:Wind:
Aussen-T/F 2126 02-05-2019 15:00:00 16.58333 C 8.62 g/m*3 16.58 C 9.69167 km/h
2127 02-05-2019 16:00:00 17.225 C 8.51 g/m*3 17.23 C 8.86667 km/h
2128 02-05-2019 17:00:00 17.75 C 7.79 g/m*3 17.75 C 9.28333 km/h
2129 02-05-2019 18:00:00 17.96667 C 7.18 g/m*3 17.97 C 9.425 km/h
2130 02-05-2019 19:00:00 15.54167 C 7.98 g/m*3 15.54 C 12.9 km/h
2131 02-05-2019 20:00:00 12.78333 C 8.61 g/m*3 12.78 C 8.175 km/h
2132 02-05-2019 21:00:00 11.44167 C 9.11 g/m*3 11.44 C 0.4 km/h
2133 02-05-2019 22:00:00 10.75833 C 8.96 g/m*3 10.76 C 2.93333 km/h
2134 02-05-2019 23:00:00 10.7 C 9.01 g/m*3 10.7 C 0.53333 km/h
2135 03-05-2019 00:00:00 10.6 C 9.01 g/m*3 10.6 C 2.93333 km/h
2136 03-05-2019 01:00:00 10.51667 C 8.41 g/m*3 9.44 C 8.88333 km/h
2137 03-05-2019 02:00:00 9.85 C 7.83 g/m*3 9.32 C 5.91667 km/h
2138 03-05-2019 03:00:00 9.375 C 7.74 g/m*3 9.38 C 2.675 km/h
2139 03-05-2019 04:00:00 9.16667 C 7.81 g/m*3 9.17 C 0.53333 km/h
2140 03-05-2019 05:00:00 9.28333 C 7.9 g/m*3 9.28 C 3.46667 km/h
2141 03-05-2019 06:00:00 9.25 C 7.86 g/m*3 9.25 C 3.475 km/h
2142 03-05-2019 07:00:00 9.25 C 7.67 g/m*3 8.71 C 5.63333 km/h
2143 03-05-2019 08:00:00 9.65833 C 7.68 g/m*3 9.14 C 5.76667 km/h
2144 03-05-2019 09:00:00 10.10833 C 7.52 g/m*3 8.86 C 9.425 km/h
2145 03-05-2019 10:00:00 10.78333 C 7.28 g/m*3 9.39 C 11.15833 km/h
2146 03-05-2019 11:00:00 11.16667 C 6.99 g/m*3 11.17 C 10.625 km/h
2147 03-05-2019 12:00:00 11.34167 C 7.05 g/m*3 11.34 C 8.61667 km/h
2148 03-05-2019 13:00:00 12.075 C 7.02 g/m*3 12.08 C 9.95 km/h
2149 03-05-2019 14:00:00 12.98333 C 6.74 g/m*3 12.98 C 14.9 km/h
2150 03-05-2019 15:00:00 14.38333 C 6.53 g/m*3 14.38 C 15.03333 km/h
Sensor: Nr:Datum:Temp:Abs-Feuchte:Windchill:Wind:
Aussen-T/F 2151 03-05-2019 16:00:00 15 C 6.54 g/m*3 15 C 13.16667 km/h
2152 03-05-2019 17:00:00 14.125 C 6.55 g/m*3 14.13 C 13.56667 km/h
2153 03-05-2019 18:00:00 13.64167 C 6.65 g/m*3 13.64 C 10.225 km/h
2154 03-05-2019 19:00:00 12.4 C 6.56 g/m*3 12.4 C 8.06667 km/h
2155 03-05-2019 20:00:00 11.18333 C 6.51 g/m*3 11.18 C 7.25 km/h
2156 03-05-2019 21:00:00 9.875 C 6.54 g/m*3 9.88 C 4.81667 km/h
2157 03-05-2019 22:00:00 9.375 C 6.71 g/m*3 9.38 C 3.075 km/h
2158 03-05-2019 23:00:00 8.65833 C 6.78 g/m*3 8.66 C 0.8 km/h
2159 04-05-2019 00:00:00 8.05833 C 6.78 g/m*3 8.06 C 0 km/h
2160 04-05-2019 01:00:00 7.625 C 6.71 g/m*3 7.63 C 0 km/h
2161 04-05-2019 02:00:00 7.575 C 6.82 g/m*3 7.58 C 0 km/h
2162 04-05-2019 03:00:00 7.43333 C 6.91 g/m*3 7.43 C 0 km/h
2163 04-05-2019 04:00:00 7.4 C 7.16 g/m*3 6.28 C 6.7 km/h
2164 04-05-2019 05:00:00 5.025 C 6.22 g/m*3 2.08 C 13.16667 km/h
2165 04-05-2019 06:00:00 3.74167 C 5.77 g/m*3 1.07 C 10.36667 km/h
2166 04-05-2019 07:00:00 3.23333 C 5.62 g/m*3 1.54 C 6.425 km/h
2167 04-05-2019 08:00:00 3.26667 C 5.68 g/m*3 2.08 C 5.08333 km/h
2168 04-05-2019 09:00:00 3.99167 C 5.97 g/m*3 3.99 C 3.74167 km/h
2169 04-05-2019 10:00:00 4.64167 C 6.04 g/m*3 2.92 C 7.25 km/h
2170 04-05-2019 11:00:00 5.00833 C 6.06 g/m*3 3.16 C 7.93333 km/h
2171 04-05-2019 12:00:00 5.93333 C 6.19 g/m*3 4.05 C 8.75 km/h
2172 04-05-2019 13:00:00 7.25833 C 6.17 g/m*3 5.59 C 8.88333 km/h
2173 04-05-2019 14:00:00 7.44167 C 6.19 g/m*3 4.75 C 15.04167 km/h
2174 04-05-2019 15:00:00 4.74167 C 5.96 g/m*3 3.2 C 6.70833 km/h
2175 04-05-2019 16:00:00 7.80833 C 6.95 g/m*3 6.87 C 6.3 km/h
Sensor: Nr:Datum:Temp:Abs-Feuchte:Windchill:Wind:
Aussen-T/F 2176 04-05-2019 17:00:00 10.13333 C 7.32 g/m*3 9.42 C 6.85 km/h
2177 04-05-2019 18:00:00 10.36667 C 5.83 g/m*3 8.33 C 15.3 km/h
2178 04-05-2019 19:00:00 9.3 C 6.04 g/m*3 7.26 C 13.43333 km/h
2179 04-05-2019 20:00:00 7.475 C 5.99 g/m*3 6.81 C 5.23333 km/h
2180 04-05-2019 21:00:00 6.49167 C 5.93 g/m*3 5.52 C 5.75833 km/h
2181 04-05-2019 22:00:00 5.00833 C 5.78 g/m*3 5.01 C 3.48333 km/h
2182 04-05-2019 23:00:00 3.8 C 5.63 g/m*3 3.8 C 2.94167 km/h
2183 05-05-2019 00:00:00 3.71667 C 5.72 g/m*3 3.72 C 2.14167 km/h
2184 05-05-2019 01:00:00 3.80833 C 5.82 g/m*3 3.81 C 0.53333 km/h
2185 05-05-2019 02:00:00 3.45833 C 5.68 g/m*3 3.46 C 0.8 km/h
2186 05-05-2019 03:00:00 3.68333 C 5.84 g/m*3 3.68 C 1.06667 km/h
2187 05-05-2019 04:00:00 3.69167 C 5.78 g/m*3 3.69 C 2.8 km/h
2188 05-05-2019 05:00:00 3.33333 C 5.59 g/m*3 3.33 C 3.625 km/h
2189 05-05-2019 06:00:00 2.73333 C 5.38 g/m*3 2.73 C 0.4 km/h
2190 05-05-2019 07:00:00 2.46667 C 5.35 g/m*3 2.47 C 0.26667 km/h
2191 05-05-2019 08:00:00 3.35833 C 5.73 g/m*3 2.03 C 5.475 km/h
2192 05-05-2019 09:00:00 4.73333 C 6.07 g/m*3 4.73 C 4.28333 km/h
2193 05-05-2019 10:00:00 5.84167 C 6.21 g/m*3 4.64 C 6.175 km/h
2194 05-05-2019 11:00:00 6.98333 C 6.46 g/m*3 5.66 C 7.23333 km/h
2195 05-05-2019 12:00:00 7.63333 C 6.51 g/m*3 6.25 C 7.90833 km/h
2196 05-05-2019 13:00:00 8.91667 C 6.42 g/m*3 7.45 C 9.4 km/h
2197 05-05-2019 14:00:00 9.29167 C 6.35 g/m*3 7.42 C 12.23333 km/h
2198 05-05-2019 15:00:00 9.86667 C 6.42 g/m*3 9.2 C 6.44167 km/h
2199 05-05-2019 16:00:00 12.39167 C 6.29 g/m*3 12.39 C 12.5 km/h
2200 05-05-2019 17:00:00 12.55833 C 6.48 g/m*3 12.56 C 11.83333 km/h
Sensor: Nr:Datum:Temp:Abs-Feuchte:Windchill:Wind:
Aussen-T/F 2201 05-05-2019 18:00:00 11.3 C 6.59 g/m*3 11.3 C 10.75 km/h
2202 05-05-2019 19:00:00 9.66667 C 6.45 g/m*3 8.75 C 7.39167 km/h
2203 05-05-2019 20:00:00 9.19167 C 6.42 g/m*3 8.08 C 7.90833 km/h
2204 05-05-2019 21:00:00 8.26667 C 6.4 g/m*3 7.76 C 5.075 km/h
2205 05-05-2019 22:00:00 7.15 C 6.27 g/m*3 7.15 C 2.54167 km/h
2206 05-05-2019 23:00:00 6.25 C 6.3 g/m*3 6.25 C 0.4 km/h
2207 06-05-2019 00:00:00 6.11667 C 6.33 g/m*3 6.12 C 0.26667 km/h
2208 06-05-2019 01:00:00 5.90833 C 6.32 g/m*3 5.91 C 2 km/h
2209 06-05-2019 02:00:00 5.1 C 6.01 g/m*3 5.1 C 1.6 km/h
2210 06-05-2019 03:00:00 4.25833 C 5.85 g/m*3 4.26 C 0.26667 km/h
2211 06-05-2019 04:00:00 3.59167 C 5.65 g/m*3 3.59 C 0 km/h
2212 06-05-2019 05:00:00 3.01667 C 5.5 g/m*3 3.02 C 0.4 km/h
2213 06-05-2019 06:00:00 3.14167 C 5.63 g/m*3 3.14 C 2 km/h
2214 06-05-2019 07:00:00 3.70833 C 5.86 g/m*3 3.71 C 4.81667 km/h
2215 06-05-2019 08:00:00 4.56667 C 6.1 g/m*3 4.57 C 4 km/h
2216 06-05-2019 09:00:00 6.31667 C 6.24 g/m*3 6.32 C 4.275 km/h
2217 06-05-2019 10:00:00 8.01667 C 6.11 g/m*3 7.18 C 6.04167 km/h
2218 06-05-2019 11:00:00 9.33333 C 6.01 g/m*3 9.33 C 4.275 km/h
2219 06-05-2019 12:00:00 10.05 C 5.61 g/m*3 9.29 C 6.975 km/h
2220 06-05-2019 13:00:00 10.95 C 5.6 g/m*3 9.96 C 8.86667 km/h
2221 06-05-2019 14:00:00 11.24167 C 5.59 g/m*3 11.24 C 9.26667 km/h
2222 06-05-2019 15:00:00 11.29167 C 5.83 g/m*3 11.29 C 9.15833 km/h
2223 06-05-2019 16:00:00 11.01667 C 6.05 g/m*3 11.02 C 9.14167 km/h
2224 06-05-2019 17:00:00 10.675 C 6 g/m*3 10.35 C 5.61667 km/h
2225 06-05-2019 18:00:00 11.425 C 6.3 g/m*3 11.43 C 4.275 km/h
Sensor: Nr:Datum:Temp:Abs-Feuchte:Windchill:Wind:
Aussen-T/F 2226 06-05-2019 19:00:00 10.75833 C 6.73 g/m*3 10.76 C 1.60833 km/h
2227 06-05-2019 20:00:00 9.18333 C 6.73 g/m*3 9.18 C 3.48333 km/h
2228 06-05-2019 21:00:00 8.26667 C 6.9 g/m*3 8.27 C 0.13333 km/h
2229 06-05-2019 22:00:00 7.75 C 6.96 g/m*3 7.75 C 0.26667 km/h
2230 06-05-2019 23:00:00 7.30833 C 6.86 g/m*3 7.31 C 0 km/h
2231 07-05-2019 00:00:00 7.29167 C 6.99 g/m*3 7.29 C 0.26667 km/h
2232 07-05-2019 01:00:00 7.04167 C 6.93 g/m*3 7.04 C 0 km/h
2233 07-05-2019 02:00:00 6.7 C 6.84 g/m*3 6.7 C 0 km/h
2234 07-05-2019 03:00:00 6.64167 C 6.81 g/m*3 6.64 C 0 km/h
2235 07-05-2019 04:00:00 6.35 C 6.7 g/m*3 6.35 C 0 km/h
2236 07-05-2019 05:00:00 6.16667 C 6.68 g/m*3 6.17 C 0 km/h
2237 07-05-2019 06:00:00 5.85833 C 6.57 g/m*3 5.86 C 0 km/h
2238 07-05-2019 07:00:00 6.38333 C 6.85 g/m*3 6.38 C 0 km/h
2239 07-05-2019 08:00:00 7.30833 C 7.06 g/m*3 7.31 C 0.26667 km/h
2240 07-05-2019 09:00:00 8.475 C 7.31 g/m*3 8.48 C 1.6 km/h
2241 07-05-2019 10:00:00 9.60833 C 7.32 g/m*3 9.13 C 5.6 km/h
2242 07-05-2019 11:00:00 10.575 C 6.99 g/m*3 10.58 C 4.53333 km/h
2243 07-05-2019 12:00:00 11.88333 C 6.4 g/m*3 11.88 C 7.11667 km/h
2244 07-05-2019 13:00:00 11.86667 C 6.2 g/m*3 11.87 C 6.14167 km/h
2245 07-05-2019 14:00:00 12.76667 C 6.17 g/m*3 12.77 C 6.83333 km/h
2246 07-05-2019 15:00:00 13.05833 C 5.99 g/m*3 13.06 C 9.81667 km/h
2247 07-05-2019 16:00:00 14.13333 C 6.16 g/m*3 14.13 C 6.71667 km/h
2248 07-05-2019 17:00:00 14.9 C 6.04 g/m*3 14.9 C 5.49167 km/h
2249 07-05-2019 18:00:00 14.94167 C 5.88 g/m*3 14.94 C 5.75 km/h
2250 07-05-2019 19:00:00 13.4 C 7.19 g/m*3 13.4 C 0.13333 km/h
Sensor: Nr:Datum:Temp:Abs-Feuchte:Windchill:Wind:
Aussen-T/F 2251 07-05-2019 20:00:00 11.275 C 6.41 g/m*3 11.28 C 0.8 km/h
2252 07-05-2019 21:00:00 9.01667 C 6.03 g/m*3 9.02 C 0 km/h
2253 07-05-2019 22:00:00 7.98333 C 6.27 g/m*3 7.98 C 0 km/h
2254 07-05-2019 23:00:00 6.93333 C 6.23 g/m*3 6.93 C 0 km/h
2255 08-05-2019 00:00:00 6.325 C 6.15 g/m*3 6.33 C 0 km/h
2256 08-05-2019 01:00:00 5.75 C 6.03 g/m*3 5.75 C 0 km/h
2257 08-05-2019 02:00:00 5.15 C 5.97 g/m*3 5.15 C 0 km/h
2258 08-05-2019 03:00:00 4.7 C 5.96 g/m*3 4.7 C 0 km/h
2259 08-05-2019 04:00:00 4.95 C 6.16 g/m*3 4.95 C 0 km/h
2260 08-05-2019 05:00:00 5.25 C 6.29 g/m*3 5.25 C 0 km/h
2261 08-05-2019 06:00:00 5.49167 C 6.41 g/m*3 5.49 C 0 km/h
2262 08-05-2019 07:00:00 6.21667 C 6.66 g/m*3 6.22 C 0.53333 km/h
2263 08-05-2019 08:00:00 7.49167 C 7.03 g/m*3 7.49 C 2 km/h
2264 08-05-2019 09:00:00 8.85 C 7.21 g/m*3 8.85 C 3.48333 km/h
2265 08-05-2019 10:00:00 9.025 C 7.7 g/m*3 9.03 C 1.46667 km/h
2266 08-05-2019 11:00:00 9.69167 C 8.24 g/m*3 9.69 C 0.8 km/h
2267 08-05-2019 12:00:00 11.325 C 9.05 g/m*3 11.33 C 4.41667 km/h
2268 08-05-2019 13:00:00 13.61667 C 9.77 g/m*3 13.62 C 5.89167 km/h
2269 08-05-2019 14:00:00 14.7 C 9.91 g/m*3 14.7 C 5.875 km/h
2270 08-05-2019 15:00:00 14.56667 C 9.86 g/m*3 14.57 C 5.35 km/h
2271 08-05-2019 16:00:00 13.39167 C 10.08 g/m*3 13.39 C 5.35 km/h
2272 08-05-2019 17:00:00 12.51667 C 10.05 g/m*3 12.52 C 3.06667 km/h
2273 08-05-2019 18:00:00 12.5 C 10.22 g/m*3 12.5 C 2 km/h
2274 08-05-2019 19:00:00 12.25833 C 10.13 g/m*3 12.26 C 0.13333 km/h
2275 08-05-2019 20:00:00 11.71667 C 9.84 g/m*3 11.72 C 0.4 km/h
Sensor: Nr:Datum:Temp:Abs-Feuchte:Windchill:Wind:
Aussen-T/F 2276 08-05-2019 21:00:00 10.95833 C 9.43 g/m*3 10.96 C 0.13333 km/h
2277 08-05-2019 22:00:00 10.14167 C 9 g/m*3 10.14 C 1.6 km/h
2278 08-05-2019 23:00:00 9.41667 C 8.56 g/m*3 9.42 C 2.53333 km/h
2279 09-05-2019 00:00:00 8.78333 C 8.22 g/m*3 8.78 C 3.48333 km/h
2280 09-05-2019 01:00:00 8.31667 C 7.99 g/m*3 8.32 C 1.6 km/h
2281 09-05-2019 02:00:00 7.425 C 7.55 g/m*3 7.43 C 0.13333 km/h
2282 09-05-2019 03:00:00 7.31667 C 7.57 g/m*3 7.32 C 0.26667 km/h
2283 09-05-2019 04:00:00 7.75833 C 7.81 g/m*3 7.76 C 1.475 km/h
2284 09-05-2019 05:00:00 7.80833 C 7.84 g/m*3 7.81 C 0 km/h
2285 09-05-2019 06:00:00 7.46667 C 7.63 g/m*3 7.47 C 0 km/h
2286 09-05-2019 07:00:00 8.7 C 8.33 g/m*3 8.7 C 0.13333 km/h
2287 09-05-2019 08:00:00 9.9 C 8.72 g/m*3 9.9 C 2.4 km/h
2288 09-05-2019 09:00:00 11.4 C 8.97 g/m*3 11.4 C 2.8 km/h
2289 09-05-2019 10:00:00 11.6 C 9.17 g/m*3 11.6 C 5.475 km/h
2290 09-05-2019 11:00:00 12.78333 C 9.4 g/m*3 12.78 C 6.56667 km/h
2291 09-05-2019 12:00:00 13.21667 C 9.7 g/m*3 13.22 C 6.43333 km/h
2292 09-05-2019 13:00:00 13.26667 C 9.67 g/m*3 13.27 C 8.60833 km/h
2293 09-05-2019 14:00:00 13.60833 C 9.43 g/m*3 13.61 C 5.35 km/h
2294 09-05-2019 15:00:00 13.43333 C 9.64 g/m*3 13.43 C 4.80833 km/h
2295 09-05-2019 16:00:00 13.80833 C 9.68 g/m*3 13.81 C 4.4 km/h
2296 09-05-2019 17:00:00 14.375 C 10.05 g/m*3 14.38 C 2.66667 km/h
2297 09-05-2019 18:00:00 15.625 C 10.57 g/m*3 15.63 C 5.76667 km/h
2298 09-05-2019 19:00:00 15.4 C 10.41 g/m*3 15.4 C 3.89167 km/h
2299 09-05-2019 20:00:00 13.70833 C 10.14 g/m*3 13.71 C 0.93333 km/h
2300 09-05-2019 21:00:00 11.66667 C 9.47 g/m*3 11.67 C 7.09167 km/h
Sensor: Nr:Datum:Temp:Abs-Feuchte:Windchill:Wind:
Aussen-T/F 2301 09-05-2019 22:00:00 10.89167 C 9.36 g/m*3 10.89 C 1.86667 km/h
2302 09-05-2019 23:00:00 10.76667 C 9.37 g/m*3 10.77 C 3.88333 km/h
2303 10-05-2019 00:00:00 10.525 C 9.23 g/m*3 10.53 C 1.2 km/h
2304 10-05-2019 01:00:00 9.51667 C 8.66 g/m*3 9.52 C 0.26667 km/h
2305 10-05-2019 02:00:00 8.85833 C 8.34 g/m*3 8.86 C 0.13333 km/h
2306 10-05-2019 03:00:00 8.16667 C 7.97 g/m*3 8.17 C 0 km/h
2307 10-05-2019 04:00:00 8.56667 C 8.25 g/m*3 8.57 C 0 km/h
2308 10-05-2019 05:00:00 8.28333 C 8.08 g/m*3 7.49 C 6.03333 km/h
2309 10-05-2019 06:00:00 8.40833 C 8.15 g/m*3 7.63 C 6.03333 km/h
2310 10-05-2019 07:00:00 8.75 C 8.29 g/m*3 8.75 C 2.675 km/h
2311 10-05-2019 08:00:00 9.175 C 8.39 g/m*3 8.71 C 5.36667 km/h
2312 10-05-2019 09:00:00 10.7 C 8.59 g/m*3 9.13 C 12.225 km/h
2313 10-05-2019 10:00:00 12.1 C 8.73 g/m*3 12.1 C 11.03333 km/h
2314 10-05-2019 11:00:00 13.23333 C 8.72 g/m*3 13.23 C 11.025 km/h
2315 10-05-2019 12:00:00 14.35 C 8.31 g/m*3 14.35 C 12.9 km/h
2316 10-05-2019 13:00:00 15.44167 C 7.9 g/m*3 15.44 C 12.23333 km/h
2317 10-05-2019 14:00:00 16.75 C 7.76 g/m*3 16.75 C 13.83333 km/h
2318 10-05-2019 15:00:00 17.21667 C 7.7 g/m*3 17.22 C 10.9 km/h
2319 10-05-2019 16:00:00 17.93333 C 7.55 g/m*3 17.93 C 8.05 km/h
2320 10-05-2019 17:00:00 17.6 C 7.32 g/m*3 17.6 C 9.80833 km/h
2321 10-05-2019 18:00:00 17.25 C 7.43 g/m*3 17.25 C 5.36667 km/h
2322 10-05-2019 19:00:00 17.18333 C 9.07 g/m*3 17.18 C 0.66667 km/h
2323 10-05-2019 20:00:00 14.175 C 8.72 g/m*3 14.18 C 0 km/h
2324 10-05-2019 21:00:00 12.35 C 8.43 g/m*3 12.35 C 0 km/h
2325 10-05-2019 22:00:00 11.76667 C 8.54 g/m*3 11.77 C 0 km/h
Sensor: Nr:Datum:Temp:Abs-Feuchte:Windchill:Wind:
Aussen-T/F 2326 10-05-2019 23:00:00 11.53333 C 8.62 g/m*3 11.53 C 0 km/h
2327 11-05-2019 00:00:00 11.04167 C 8.69 g/m*3 11.04 C 0.4 km/h
2328 11-05-2019 01:00:00 10.36667 C 8.77 g/m*3 10.37 C 0.13333 km/h
2329 11-05-2019 02:00:00 10.1 C 8.83 g/m*3 10.1 C 0 km/h
2330 11-05-2019 03:00:00 9.925 C 8.81 g/m*3 9.93 C 0.13333 km/h
2331 11-05-2019 04:00:00 9.7 C 8.76 g/m*3 9.7 C 0 km/h
2332 11-05-2019 05:00:00 9.775 C 8.87 g/m*3 9.78 C 0.26667 km/h
2333 11-05-2019 06:00:00 9.7 C 8.85 g/m*3 9.7 C 0.26667 km/h
2334 11-05-2019 07:00:00 9.7 C 8.85 g/m*3 9.7 C 0.4 km/h
2335 11-05-2019 08:00:00 9.65833 C 8.83 g/m*3 9.66 C 2.80833 km/h
2336 11-05-2019 09:00:00 9.70833 C 8.85 g/m*3 9.71 C 4.95 km/h
2337 11-05-2019 10:00:00 9.85833 C 8.94 g/m*3 9.49 C 5.35 km/h
2338 11-05-2019 11:00:00 10.13333 C 9.1 g/m*3 10.13 C 4.95 km/h
2339 11-05-2019 12:00:00 10.36667 C 9.1 g/m*3 9.27 C 8.875 km/h
2340 11-05-2019 13:00:00 9.79167 C 8.72 g/m*3 8.61 C 8.73333 km/h
2341 11-05-2019 14:00:00 9.76667 C 8.79 g/m*3 9.77 C 1.86667 km/h
2342 11-05-2019 15:00:00 9.91667 C 8.88 g/m*3 9.92 C 3.475 km/h
2343 11-05-2019 16:00:00 10.31667 C 9.2 g/m*3 10.32 C 1.6 km/h
2344 11-05-2019 17:00:00 10.95833 C 9.53 g/m*3 10.96 C 2.94167 km/h
2345 11-05-2019 18:00:00 11.79167 C 9.33 g/m*3 11.79 C 11.96667 km/h
2346 11-05-2019 19:00:00 12.1 C 8.75 g/m*3 12.1 C 14.36667 km/h
2347 11-05-2019 20:00:00 11.3 C 8.59 g/m*3 11.3 C 3.89167 km/h
2348 11-05-2019 21:00:00 9.44167 C 8.27 g/m*3 9.44 C 0 km/h
2349 11-05-2019 22:00:00 8.33333 C 7.84 g/m*3 8.33 C 0 km/h
2350 11-05-2019 23:00:00 7.65 C 7.62 g/m*3 7.65 C 0 km/h
Sensor: Nr:Datum:Temp:Abs-Feuchte:Windchill:Wind:
Aussen-T/F 2351 12-05-2019 00:00:00 7.41667 C 7.56 g/m*3 7.42 C 0.4 km/h
2352 12-05-2019 01:00:00 6.75 C 7.24 g/m*3 6.75 C 1.46667 km/h
2353 12-05-2019 02:00:00 6.43333 C 7 g/m*3 6.43 C 3.86667 km/h
2354 12-05-2019 03:00:00 5.66667 C 6.6 g/m*3 5.67 C 1.46667 km/h
2355 12-05-2019 04:00:00 4.70833 C 6.25 g/m*3 4.71 C 0.13333 km/h
2356 12-05-2019 05:00:00 4.225 C 6.11 g/m*3 4.22 C 0 km/h
2357 12-05-2019 06:00:00 4.45833 C 6.23 g/m*3 4.46 C 0.93333 km/h
2358 12-05-2019 07:00:00 5.68333 C 6.53 g/m*3 4.77 C 5.225 km/h
2359 12-05-2019 08:00:00 6.98333 C 6.62 g/m*3 5.69 C 7.1 km/h
2360 12-05-2019 09:00:00 8.125 C 6.56 g/m*3 6.03 C 12.09167 km/h
2361 12-05-2019 10:00:00 8.83333 C 6.48 g/m*3 6.89 C 12.1 km/h
2362 12-05-2019 11:00:00 9.58333 C 6.35 g/m*3 7.68 C 12.89167 km/h
2363 12-05-2019 12:00:00 10.54167 C 6.3 g/m*3 9.07 C 11.3 km/h
2364 12-05-2019 13:00:00 11.66667 C 6.28 g/m*3 11.67 C 12.76667 km/h
2365 12-05-2019 14:00:00 12.83333 C 6.15 g/m*3 12.83 C 12.1 km/h
2366 12-05-2019 15:00:00 14.13333 C 6.19 g/m*3 14.13 C 12.76667 km/h
2367 12-05-2019 16:00:00 15.25833 C 5.99 g/m*3 15.26 C 12.23333 km/h
2368 12-05-2019 17:00:00 14.83333 C 5.78 g/m*3 14.83 C 11.43333 km/h
2369 12-05-2019 18:00:00 15.19167 C 5.65 g/m*3 15.19 C 14.1 km/h
2370 12-05-2019 19:00:00 13.96667 C 5.43 g/m*3 13.97 C 12.35833 km/h
2371 12-05-2019 20:00:00 13.09167 C 5.62 g/m*3 13.09 C 5.775 km/h
2372 12-05-2019 21:00:00 9.68333 C 6.57 g/m*3 9.68 C 0.66667 km/h
2373 12-05-2019 22:00:00 8.375 C 6.5 g/m*3 8.38 C 0.26667 km/h
2374 12-05-2019 23:00:00 7.30833 C 6.21 g/m*3 7.31 C 0.53333 km/h
2375 13-05-2019 00:00:00 6.45 C 6.14 g/m*3 6.45 C 0 km/h
Sensor: Nr:Datum:Temp:Abs-Feuchte:Windchill:Wind:
Aussen-T/F 2376 13-05-2019 01:00:00 5.11667 C 6 g/m*3 5.12 C 0 km/h
2377 13-05-2019 02:00:00 4.15 C 5.82 g/m*3 4.15 C 0 km/h
2378 13-05-2019 03:00:00 3.60833 C 5.71 g/m*3 3.61 C 0 km/h
2379 13-05-2019 04:00:00 3.075 C 5.57 g/m*3 3.08 C 0.13333 km/h
2380 13-05-2019 05:00:00 2.64167 C 5.46 g/m*3 2.64 C 0.13333 km/h
2381 13-05-2019 06:00:00 2.30833 C 5.36 g/m*3 2.31 C 0 km/h
2382 13-05-2019 07:00:00 2.63333 C 5.52 g/m*3 2.63 C 0 km/h
2383 13-05-2019 08:00:00 4.26667 C 6.21 g/m*3 4.27 C 0 km/h
2384 13-05-2019 09:00:00 6.13333 C 6.62 g/m*3 6.13 C 0.53333 km/h
2385 13-05-2019 10:00:00 9.69167 C 5.33 g/m*3 9.11 C 6.04167 km/h
2386 13-05-2019 11:00:00 11.4 C 5 g/m*3 11.4 C 4.54167 km/h
2387 13-05-2019 12:00:00 13.43333 C 3.8 g/m*3 13.43 C 15.7 km/h
2388 13-05-2019 13:00:00 14.6 C 3.74 g/m*3 14.6 C 12.36667 km/h
2389 13-05-2019 14:00:00 15.575 C 4.12 g/m*3 15.58 C 11.025 km/h
2390 13-05-2019 15:00:00 17.19167 C 4.33 g/m*3 17.19 C 11.025 km/h
2391 13-05-2019 16:00:00 18.43333 C 4.56 g/m*3 18.43 C 15.56667 km/h
2392 13-05-2019 17:00:00 18.6 C 4.52 g/m*3 18.6 C 16.1 km/h
2393 13-05-2019 18:00:00 18.08333 C 4.45 g/m*3 18.08 C 16.36667 km/h
2394 13-05-2019 19:00:00 16.95833 C 4.74 g/m*3 16.96 C 17.03333 km/h
2395 13-05-2019 20:00:00 15.41667 C 4.57 g/m*3 15.42 C 12.76667 km/h
2396 13-05-2019 21:00:00 12.25 C 5.46 g/m*3 12.25 C 1.74167 km/h
2397 13-05-2019 22:00:00 9.325 C 5.48 g/m*3 9.32 C 0.13333 km/h
2398 13-05-2019 23:00:00 7.875 C 5.69 g/m*3 7.88 C 0 km/h
2399 14-05-2019 00:00:00 6.7 C 5.69 g/m*3 6.7 C 0 km/h
2400 14-05-2019 01:00:00 5.76667 C 5.54 g/m*3 5.77 C 0 km/h
Sensor: Nr:Datum:Temp:Abs-Feuchte:Windchill:Wind:
Aussen-T/F 2401 14-05-2019 02:00:00 4.74167 C 5.43 g/m*3 4.74 C 0 km/h
2402 14-05-2019 03:00:00 3.83333 C 5.32 g/m*3 3.83 C 0 km/h
2403 14-05-2019 04:00:00 3.18333 C 5.24 g/m*3 3.18 C 0 km/h
2404 14-05-2019 05:00:00 2.66667 C 5.17 g/m*3 2.67 C 0 km/h
2405 14-05-2019 06:00:00 2.41667 C 5.19 g/m*3 2.42 C 0 km/h
2406 14-05-2019 07:00:00 2.825 C 5.44 g/m*3 2.83 C 0 km/h
2407 14-05-2019 08:00:00 4.2 C 5.97 g/m*3 4.2 C 0 km/h
2408 14-05-2019 09:00:00 6.50833 C 6.44 g/m*3 6.51 C 1.46667 km/h
2409 14-05-2019 10:00:00 9.575 C 6.34 g/m*3 8.9 C 6.30833 km/h
2410 14-05-2019 11:00:00 12.65 C 5.64 g/m*3 12.65 C 15.7 km/h
2411 14-05-2019 12:00:00 13.45833 C 5.35 g/m*3 13.46 C 13.83333 km/h
2412 14-05-2019 13:00:00 14.21667 C 5.35 g/m*3 14.22 C 15.7 km/h
2413 14-05-2019 14:00:00 14.79167 C 5.44 g/m*3 14.79 C 15.83333 km/h
2414 14-05-2019 15:00:00 16.00833 C 5.43 g/m*3 16.01 C 13.96667 km/h
2415 14-05-2019 16:00:00 16.59167 C 5.24 g/m*3 16.59 C 15.69167 km/h
2416 14-05-2019 17:00:00 16.8 C 5.21 g/m*3 16.8 C 14.75833 km/h
2417 14-05-2019 18:00:00 16.475 C 5.22 g/m*3 16.48 C 9.53333 km/h
2418 14-05-2019 19:00:00 16.075 C 5.22 g/m*3 16.08 C 7.50833 km/h
2419 14-05-2019 20:00:00 13.73333 C 5.8 g/m*3 13.73 C 4.15833 km/h
2420 14-05-2019 21:00:00 10.35 C 5.82 g/m*3 10.35 C 0.53333 km/h
2421 14-05-2019 22:00:00 8.73333 C 5.89 g/m*3 8.73 C 0 km/h
2422 14-05-2019 23:00:00 7.69167 C 5.83 g/m*3 7.69 C 0 km/h
2423 15-05-2019 00:00:00 6.88333 C 5.65 g/m*3 6.88 C 0 km/h
2424 15-05-2019 01:00:00 5.89167 C 5.57 g/m*3 5.89 C 0 km/h
2425 15-05-2019 02:00:00 4.74167 C 5.44 g/m*3 4.74 C 0 km/h
Sensor: Nr:Datum:Temp:Abs-Feuchte:Windchill:Wind:
Aussen-T/F 2426 15-05-2019 03:00:00 3.98333 C 5.37 g/m*3 3.98 C 0 km/h
2427 15-05-2019 04:00:00 3.15 C 5.25 g/m*3 3.15 C 0 km/h
2428 15-05-2019 05:00:00 2.60833 C 5.15 g/m*3 2.61 C 0 km/h
2429 15-05-2019 06:00:00 2.325 C 5.17 g/m*3 2.33 C 0 km/h
2430 15-05-2019 07:00:00 2.75833 C 5.41 g/m*3 2.76 C 0 km/h
2431 15-05-2019 08:00:00 3.775 C 5.81 g/m*3 3.78 C 0 km/h
2432 15-05-2019 09:00:00 5.99167 C 6.19 g/m*3 5.99 C 2.81667 km/h
2433 15-05-2019 10:00:00 10.15833 C 5.19 g/m*3 9.15 C 8.19167 km/h
2434 15-05-2019 11:00:00 12.05 C 4.88 g/m*3 12.05 C 10.225 km/h
2435 15-05-2019 12:00:00 12.95 C 4.63 g/m*3 12.95 C 8.85833 km/h
2436 15-05-2019 13:00:00 14.08333 C 4.35 g/m*3 14.08 C 13.56667 km/h
2437 15-05-2019 14:00:00 14.95 C 4.75 g/m*3 14.95 C 15.96667 km/h
2438 15-05-2019 15:00:00 15.975 C 4.64 g/m*3 15.98 C 17.83333 km/h
2439 15-05-2019 16:00:00 17.19167 C 5.03 g/m*3 17.19 C 12.1 km/h
2440 15-05-2019 17:00:00 17.58333 C 4.96 g/m*3 17.58 C 14.1 km/h
2441 15-05-2019 18:00:00 17.38333 C 5.02 g/m*3 17.38 C 13.55833 km/h
2442 15-05-2019 19:00:00 16.55833 C 4.97 g/m*3 16.56 C 11.55 km/h
2443 15-05-2019 20:00:00 15.10833 C 5.45 g/m*3 15.11 C 4.69167 km/h
2444 15-05-2019 21:00:00 11.45833 C 5.85 g/m*3 11.46 C 1.74167 km/h
2445 15-05-2019 22:00:00 9.525 C 5.5 g/m*3 9.53 C 0.53333 km/h
2446 15-05-2019 23:00:00 8.09167 C 5.32 g/m*3 8.09 C 0.93333 km/h
2447 16-05-2019 00:00:00 7.39167 C 5.29 g/m*3 7.39 C 1.6 km/h
2448 16-05-2019 01:00:00 6.64167 C 5.56 g/m*3 6.64 C 0 km/h
2449 16-05-2019 02:00:00 5.725 C 5.61 g/m*3 5.73 C 0 km/h
2450 16-05-2019 03:00:00 5.58333 C 5.8 g/m*3 5.58 C 0 km/h
Sensor: Nr:Datum:Temp:Abs-Feuchte:Windchill:Wind:
Aussen-T/F 2451 16-05-2019 04:00:00 5.71667 C 5.95 g/m*3 5.72 C 0 km/h
2452 16-05-2019 05:00:00 5.83333 C 6.04 g/m*3 5.83 C 0 km/h
2453 16-05-2019 06:00:00 5.95 C 6.18 g/m*3 5.95 C 0.13333 km/h
2454 16-05-2019 07:00:00 6.64167 C 6.45 g/m*3 6.64 C 0 km/h
2455 16-05-2019 08:00:00 7.98333 C 6.84 g/m*3 7.98 C 0.13333 km/h
2456 16-05-2019 09:00:00 9.95 C 6.81 g/m*3 9.95 C 4.15 km/h
2457 16-05-2019 10:00:00 11.65833 C 6.56 g/m*3 11.66 C 8.45833 km/h
2458 16-05-2019 11:00:00 12.20833 C 6.32 g/m*3 12.21 C 8.33333 km/h
2459 16-05-2019 12:00:00 13.13333 C 6.73 g/m*3 13.13 C 8.875 km/h
2460 16-05-2019 13:00:00 14.68333 C 7.13 g/m*3 14.68 C 10.76667 km/h
2461 16-05-2019 14:00:00 15.4 C 7.34 g/m*3 15.4 C 10.48333 km/h
2462 16-05-2019 15:00:00 17.38333 C 7.71 g/m*3 17.38 C 10.08333 km/h
2463 16-05-2019 16:00:00 18.23333 C 7.73 g/m*3 18.23 C 8.45 km/h
2464 16-05-2019 17:00:00 16.90833 C 7.77 g/m*3 16.91 C 9.69167 km/h
2465 16-05-2019 18:00:00 15.44167 C 8.11 g/m*3 15.44 C 11.95 km/h
2466 16-05-2019 19:00:00 14.075 C 8.25 g/m*3 14.08 C 4.41667 km/h
2467 16-05-2019 20:00:00 12.56667 C 8.08 g/m*3 12.57 C 6.70833 km/h
2468 16-05-2019 21:00:00 11.175 C 7.69 g/m*3 11.18 C 8.21667 km/h
2469 16-05-2019 22:00:00 10.23333 C 7.8 g/m*3 10.23 C 4.29167 km/h
2470 16-05-2019 23:00:00 9.60833 C 7.91 g/m*3 9.61 C 0.66667 km/h
2471 17-05-2019 00:00:00 9.08333 C 8.06 g/m*3 9.08 C 0 km/h
2472 17-05-2019 01:00:00 8.79167 C 8.05 g/m*3 8.79 C 0 km/h
2473 17-05-2019 02:00:00 8.7 C 8.1 g/m*3 8.7 C 0 km/h
2474 17-05-2019 03:00:00 8.63333 C 8.11 g/m*3 8.63 C 0.53333 km/h
2475 17-05-2019 04:00:00 8.475 C 8.09 g/m*3 8.48 C 0.13333 km/h
Sensor: Nr:Datum:Temp:Abs-Feuchte:Windchill:Wind:
Aussen-T/F 2476 17-05-2019 05:00:00 8.36667 C 8.04 g/m*3 8.37 C 0 km/h
2477 17-05-2019 06:00:00 8.45 C 8.13 g/m*3 8.45 C 0 km/h
2478 17-05-2019 07:00:00 8.71667 C 8.31 g/m*3 8.72 C 0.4 km/h
2479 17-05-2019 08:00:00 8.96667 C 8.45 g/m*3 8.97 C 1.73333 km/h
2480 17-05-2019 09:00:00 9.29167 C 8.62 g/m*3 9.29 C 1.86667 km/h
2481 17-05-2019 10:00:00 9.625 C 8.81 g/m*3 9.63 C 4.825 km/h
2482 17-05-2019 11:00:00 10.2 C 9.05 g/m*3 10.2 C 3.86667 km/h
2483 17-05-2019 12:00:00 11.175 C 9.49 g/m*3 11.18 C 6.425 km/h
2484 17-05-2019 13:00:00 12.825 C 10 g/m*3 12.83 C 8.625 km/h
2485 17-05-2019 14:00:00 14.44167 C 10.43 g/m*3 14.44 C 6.58333 km/h
2486 17-05-2019 15:00:00 15.54167 C 10.58 g/m*3 15.54 C 7.26667 km/h
2487 17-05-2019 16:00:00 16.35 C 10.47 g/m*3 16.35 C 7.65833 km/h
2488 17-05-2019 17:00:00 17.35 C 10.47 g/m*3 17.35 C 6.70833 km/h
2489 17-05-2019 18:00:00 16.8 C 11.2 g/m*3 16.8 C 2 km/h
2490 17-05-2019 19:00:00 16.625 C 11.34 g/m*3 16.63 C 0.26667 km/h
2491 17-05-2019 20:00:00 13.975 C 10.28 g/m*3 13.98 C 0.26667 km/h
2492 17-05-2019 21:00:00 12.00833 C 9.56 g/m*3 12.01 C 0.26667 km/h
2493 17-05-2019 22:00:00 11.96667 C 9.78 g/m*3 11.97 C 0 km/h
2494 17-05-2019 23:00:00 12.05833 C 9.99 g/m*3 12.06 C 0.4 km/h
2495 18-05-2019 00:00:00 11.6 C 9.77 g/m*3 11.6 C 0 km/h
2496 18-05-2019 01:00:00 10.44167 C 9.12 g/m*3 10.44 C 0.4 km/h
2497 18-05-2019 02:00:00 10.58333 C 9.34 g/m*3 10.58 C 0 km/h
2498 18-05-2019 03:00:00 10.43333 C 9.26 g/m*3 10.43 C 0 km/h
2499 18-05-2019 04:00:00 9.925 C 8.98 g/m*3 9.93 C 0 km/h
2500 18-05-2019 05:00:00 9.31667 C 8.64 g/m*3 9.32 C 0 km/h
Sensor: Nr:Datum:Temp:Abs-Feuchte:Windchill:Wind:
Aussen-T/F 2501 18-05-2019 06:00:00 9.35833 C 8.7 g/m*3 9.36 C 0 km/h
2502 18-05-2019 07:00:00 10.23333 C 9.25 g/m*3 10.23 C 0.13333 km/h
2503 18-05-2019 08:00:00 11.2 C 9.82 g/m*3 11.2 C 1.6 km/h
2504 18-05-2019 09:00:00 12.275 C 10.26 g/m*3 12.28 C 0.66667 km/h
2505 18-05-2019 10:00:00 14.16667 C 11.13 g/m*3 14.17 C 1.2 km/h
2506 18-05-2019 11:00:00 16.9 C 11.11 g/m*3 16.9 C 4.675 km/h
2507 18-05-2019 12:00:00 18.14167 C 11.07 g/m*3 18.14 C 3.86667 km/h
2508 18-05-2019 13:00:00 19.01667 C 11.27 g/m*3 19.02 C 4.15833 km/h
2509 18-05-2019 14:00:00 20.34167 C 11.02 g/m*3 20.34 C 5.50833 km/h
2510 18-05-2019 15:00:00 21.05833 C 10.74 g/m*3 21.06 C 6.30833 km/h
2511 18-05-2019 16:00:00 22.41667 C 11.99 g/m*3 22.42 C 8.05833 km/h
2512 18-05-2019 17:00:00 21.04167 C 12.96 g/m*3 21.04 C 0.26667 km/h
2513 18-05-2019 18:00:00 18.54167 C 12.15 g/m*3 18.54 C 2 km/h
2514 18-05-2019 19:00:00 15.85 C 11.74 g/m*3 15.85 C 1.33333 km/h
2515 18-05-2019 20:00:00 14.79167 C 11.45 g/m*3 14.79 C 0 km/h
2516 18-05-2019 21:00:00 13.71667 C 10.91 g/m*3 13.72 C 0.26667 km/h
2517 18-05-2019 22:00:00 12.75 C 10.42 g/m*3 12.75 C 0.26667 km/h
2518 18-05-2019 23:00:00 12.53333 C 10.43 g/m*3 12.53 C 0.66667 km/h
2519 19-05-2019 00:00:00 12.79167 C 10.64 g/m*3 12.79 C 0 km/h
2520 19-05-2019 01:00:00 12.73333 C 10.6 g/m*3 12.73 C 0.4 km/h
2521 19-05-2019 02:00:00 12.26667 C 10.29 g/m*3 12.27 C 0 km/h
2522 19-05-2019 03:00:00 11.71667 C 10 g/m*3 11.72 C 0 km/h
2523 19-05-2019 04:00:00 11.625 C 9.99 g/m*3 11.63 C 0 km/h
2524 19-05-2019 05:00:00 11.38333 C 9.84 g/m*3 11.38 C 0 km/h
2525 19-05-2019 06:00:00 11.475 C 9.99 g/m*3 11.48 C 0.13333 km/h
Sensor: Nr:Datum:Temp:Abs-Feuchte:Windchill:Wind:
Aussen-T/F 2526 19-05-2019 07:00:00 12.13333 C 10.42 g/m*3 12.13 C 0.93333 km/h
2527 19-05-2019 08:00:00 12.825 C 10.88 g/m*3 12.83 C 2 km/h
2528 19-05-2019 09:00:00 13.73333 C 11.5 g/m*3 13.73 C 2.66667 km/h
2529 19-05-2019 10:00:00 15.11667 C 12.25 g/m*3 15.12 C 0.66667 km/h
2530 19-05-2019 11:00:00 16.26667 C 12.5 g/m*3 16.27 C 2.66667 km/h
2531 19-05-2019 12:00:00 17.99167 C 12.93 g/m*3 17.99 C 7.525 km/h
2532 19-05-2019 13:00:00 18.78333 C 12.47 g/m*3 18.78 C 8.88333 km/h
2533 19-05-2019 14:00:00 20.225 C 11.78 g/m*3 20.23 C 8.89167 km/h
2534 19-05-2019 15:00:00 22.54167 C 12.28 g/m*3 22.54 C 9.55833 km/h
2535 19-05-2019 16:00:00 23.4 C 12.28 g/m*3 23.4 C 11.69167 km/h
2536 19-05-2019 17:00:00 19.25833 C 10.48 g/m*3 19.26 C 9.525 km/h
2537 19-05-2019 18:00:00 19.96667 C 11.24 g/m*3 19.97 C 7.39167 km/h
2538 19-05-2019 19:00:00 20.475 C 11.22 g/m*3 20.48 C 3.73333 km/h
2539 19-05-2019 20:00:00 18.96667 C 11.15 g/m*3 18.97 C 0.4 km/h
2540 19-05-2019 21:00:00 15.7 C 10.82 g/m*3 15.7 C 0.13333 km/h
2541 19-05-2019 22:00:00 14.53333 C 10.74 g/m*3 14.53 C 1.06667 km/h
2542 19-05-2019 23:00:00 14.65833 C 10.64 g/m*3 14.66 C 2.40833 km/h
2543 20-05-2019 00:00:00 14.48333 C 10.64 g/m*3 14.48 C 4.14167 km/h
2544 20-05-2019 01:00:00 13.40833 C 10.39 g/m*3 13.41 C 1.06667 km/h
2545 20-05-2019 02:00:00 12.46667 C 10.05 g/m*3 12.47 C 0.66667 km/h
2546 20-05-2019 03:00:00 12.23333 C 10.07 g/m*3 12.23 C 1.33333 km/h
2547 20-05-2019 04:00:00 12.7 C 10.46 g/m*3 12.7 C 2.4 km/h
2548 20-05-2019 05:00:00 13.13333 C 10.63 g/m*3 13.13 C 3.73333 km/h
2549 20-05-2019 06:00:00 13.15 C 10.53 g/m*3 13.15 C 7.25 km/h
2550 20-05-2019 07:00:00 13.16667 C 10.54 g/m*3 13.17 C 1.33333 km/h
Sensor: Nr:Datum:Temp:Abs-Feuchte:Windchill:Wind:
Aussen-T/F 2551 20-05-2019 08:00:00 13.475 C 10.72 g/m*3 13.48 C 0.53333 km/h
2552 20-05-2019 09:00:00 13.95 C 10.81 g/m*3 13.95 C 4.55833 km/h
2553 20-05-2019 10:00:00 14.25833 C 10.92 g/m*3 14.26 C 5.775 km/h
2554 20-05-2019 11:00:00 14.125 C 11.17 g/m*3 14.13 C 3.61667 km/h
2555 20-05-2019 12:00:00 14.08333 C 11.16 g/m*3 14.08 C 7.93333 km/h
2556 20-05-2019 13:00:00 13.85833 C 11 g/m*3 13.86 C 9.125 km/h
2557 20-05-2019 14:00:00 14.29167 C 11.23 g/m*3 14.29 C 9.01667 km/h
2558 20-05-2019 15:00:00 14.6 C 11.17 g/m*3 14.6 C 7.1 km/h
2559 20-05-2019 16:00:00 14.84167 C 11.14 g/m*3 14.84 C 9.55 km/h
2560 20-05-2019 17:00:00 14.93333 C 11.11 g/m*3 14.93 C 8.08333 km/h
2561 20-05-2019 18:00:00 14.86667 C 10.95 g/m*3 14.87 C 11.95833 km/h
2562 20-05-2019 19:00:00 14.65 C 10.88 g/m*3 14.65 C 7.125 km/h
2563 20-05-2019 20:00:00 14.5 C 10.85 g/m*3 14.5 C 9.15833 km/h
2564 20-05-2019 21:00:00 14.19167 C 10.74 g/m*3 14.19 C 9.81667 km/h
2565 20-05-2019 22:00:00 14.1 C 10.68 g/m*3 14.1 C 7.93333 km/h
2566 20-05-2019 23:00:00 14.21667 C 10.58 g/m*3 14.22 C 6.575 km/h
2567 21-05-2019 00:00:00 14.23333 C 10.6 g/m*3 14.23 C 9.54167 km/h
2568 21-05-2019 01:00:00 13.8 C 10.66 g/m*3 13.8 C 9.55 km/h
2569 21-05-2019 02:00:00 13.56667 C 10.65 g/m*3 13.57 C 9.14167 km/h
2570 21-05-2019 03:00:00 13.275 C 10.55 g/m*3 13.28 C 7.51667 km/h
2571 21-05-2019 04:00:00 13.11667 C 10.39 g/m*3 13.12 C 7.65 km/h
2572 21-05-2019 05:00:00 12.71667 C 10.21 g/m*3 12.72 C 10.09167 km/h
2573 21-05-2019 06:00:00 12.21667 C 10.13 g/m*3 12.22 C 9.675 km/h
2574 21-05-2019 07:00:00 12.23333 C 10.16 g/m*3 12.23 C 9.25833 km/h
2575 21-05-2019 08:00:00 12.3 C 10.16 g/m*3 12.3 C 11.15833 km/h
Sensor: Nr:Datum:Temp:Abs-Feuchte:Windchill:Wind:
Aussen-T/F 2576 21-05-2019 09:00:00 12.3 C 10.16 g/m*3 12.3 C 12.9 km/h
2577 21-05-2019 10:00:00 12.23333 C 10.13 g/m*3 12.23 C 11.83333 km/h
2578 21-05-2019 11:00:00 12.15 C 10.01 g/m*3 12.15 C 15.44167 km/h
2579 21-05-2019 12:00:00 12.11667 C 10.07 g/m*3 12.12 C 11.025 km/h
2580 21-05-2019 13:00:00 12.225 C 10.16 g/m*3 12.23 C 5.75833 km/h
2581 21-05-2019 14:00:00 12.15 C 10.08 g/m*3 12.15 C 6.44167 km/h
2582 21-05-2019 15:00:00 12.15833 C 10.02 g/m*3 12.16 C 9.00833 km/h
2583 21-05-2019 16:00:00 12.09167 C 10.07 g/m*3 12.09 C 9.4 km/h
2584 21-05-2019 17:00:00 12.18333 C 10.14 g/m*3 12.18 C 7.51667 km/h
2585 21-05-2019 18:00:00 12.275 C 10.2 g/m*3 12.28 C 7.125 km/h
2586 21-05-2019 19:00:00 12.375 C 10.22 g/m*3 12.38 C 6.98333 km/h
2587 21-05-2019 20:00:00 12.21667 C 10.24 g/m*3 12.22 C 3.88333 km/h
2588 21-05-2019 21:00:00 12.1 C 10.19 g/m*3 12.1 C 3.46667 km/h
2589 21-05-2019 22:00:00 12.04167 C 10.19 g/m*3 12.04 C 3.875 km/h
2590 21-05-2019 23:00:00 11.85833 C 10.14 g/m*3 11.86 C 0 km/h
2591 22-05-2019 00:00:00 11.8 C 10.1 g/m*3 11.8 C 0 km/h
2592 22-05-2019 01:00:00 11.75 C 10.07 g/m*3 11.75 C 1.33333 km/h
2593 22-05-2019 02:00:00 11.56667 C 9.96 g/m*3 11.57 C 4.54167 km/h
2594 22-05-2019 03:00:00 11.575 C 9.96 g/m*3 11.58 C 2.66667 km/h
2595 22-05-2019 04:00:00 11.44167 C 9.8 g/m*3 11.44 C 6.43333 km/h
2596 22-05-2019 05:00:00 11.33333 C 9.71 g/m*3 11.33 C 6.025 km/h
2597 22-05-2019 06:00:00 11.05 C 9.44 g/m*3 11.05 C 8.60833 km/h
2598 22-05-2019 07:00:00 10.66667 C 9.15 g/m*3 9.44 C 9.94167 km/h
2599 22-05-2019 08:00:00 10.33333 C 8.82 g/m*3 9.44 C 7.79167 km/h
2600 22-05-2019 09:00:00 10.475 C 8.45 g/m*3 9.52 C 8.2 km/h
Sensor: Nr:Datum:Temp:Abs-Feuchte:Windchill:Wind:
Aussen-T/F 2601 22-05-2019 10:00:00 10.88333 C 8.29 g/m*3 9.98 C 8.33333 km/h
2602 22-05-2019 11:00:00 11.51667 C 8.51 g/m*3 11.52 C 8.88333 km/h
2603 22-05-2019 12:00:00 12.85 C 8.61 g/m*3 12.85 C 9.825 km/h
2604 22-05-2019 13:00:00 13.65833 C 8.69 g/m*3 13.66 C 8.2 km/h
2605 22-05-2019 14:00:00 15.01667 C 8.94 g/m*3 15.02 C 9.41667 km/h
2606 22-05-2019 15:00:00 17.08333 C 9.27 g/m*3 17.08 C 9.01667 km/h
2607 22-05-2019 16:00:00 18.625 C 9.4 g/m*3 18.63 C 6.7 km/h
2608 22-05-2019 17:00:00 18.24167 C 9.15 g/m*3 18.24 C 6.3 km/h
2609 22-05-2019 18:00:00 19.46667 C 9.06 g/m*3 19.47 C 7.10833 km/h
2610 22-05-2019 19:00:00 19.025 C 9.15 g/m*3 19.02 C 3.625 km/h
2611 22-05-2019 20:00:00 17.24167 C 10.41 g/m*3 17.24 C 0 km/h
2612 22-05-2019 21:00:00 13.73333 C 9.09 g/m*3 13.73 C 0 km/h
2613 22-05-2019 22:00:00 11.64167 C 8.92 g/m*3 11.64 C 0 km/h
2614 22-05-2019 23:00:00 10.33333 C 8.61 g/m*3 10.33 C 0 km/h
2615 23-05-2019 00:00:00 9.5 C 8.34 g/m*3 9.5 C 0 km/h
2616 23-05-2019 01:00:00 8.975 C 8.18 g/m*3 8.98 C 0 km/h
2617 23-05-2019 02:00:00 8.54167 C 8.02 g/m*3 8.54 C 0 km/h
2618 23-05-2019 03:00:00 8.35833 C 8.02 g/m*3 8.36 C 0 km/h
2619 23-05-2019 04:00:00 7.93333 C 7.82 g/m*3 7.93 C 0 km/h
2620 23-05-2019 05:00:00 7.71667 C 7.73 g/m*3 7.72 C 0.26667 km/h
2621 23-05-2019 06:00:00 7.9 C 7.89 g/m*3 7.9 C 0.26667 km/h
2622 23-05-2019 07:00:00 8.675 C 8.29 g/m*3 8.68 C 0.93333 km/h
2623 23-05-2019 08:00:00 9.59167 C 8.77 g/m*3 9.59 C 0.26667 km/h
2624 23-05-2019 09:00:00 11.05833 C 9.44 g/m*3 11.06 C 0 km/h
2625 23-05-2019 10:00:00 13.75 C 10.38 g/m*3 13.75 C 1.74167 km/h
Sensor: Nr:Datum:Temp:Abs-Feuchte:Windchill:Wind:
Aussen-T/F 2626 23-05-2019 11:00:00 17.49167 C 9.82 g/m*3 17.49 C 6.85 km/h
2627 23-05-2019 12:00:00 18.84167 C 9.34 g/m*3 18.84 C 6.95833 km/h
2628 23-05-2019 13:00:00 19.83333 C 9.66 g/m*3 19.83 C 5.35833 km/h
2629 23-05-2019 14:00:00 21.25833 C 9.08 g/m*3 21.26 C 7.79167 km/h
2630 23-05-2019 15:00:00 22.38333 C 9.14 g/m*3 22.38 C 4.55 km/h
2631 23-05-2019 16:00:00 24.39167 C 8.73 g/m*3 24.39 C 7.25833 km/h
2632 23-05-2019 17:00:00 24.78333 C 8.55 g/m*3 24.78 C 8.74167 km/h
2633 23-05-2019 18:00:00 24.96667 C 8.62 g/m*3 24.97 C 5.34167 km/h
2634 23-05-2019 19:00:00 22.80833 C 10.71 g/m*3 22.81 C 2.00833 km/h
2635 23-05-2019 20:00:00 19.33333 C 10.77 g/m*3 19.33 C 0 km/h
2636 23-05-2019 21:00:00 16.40833 C 10.35 g/m*3 16.41 C 0 km/h
2637 23-05-2019 22:00:00 14.68333 C 10.31 g/m*3 14.68 C 0 km/h
2638 23-05-2019 23:00:00 13.66667 C 9.9 g/m*3 13.67 C 0 km/h
2639 24-05-2019 00:00:00 12.84167 C 9.7 g/m*3 12.84 C 0.93333 km/h
2640 24-05-2019 01:00:00 12.36667 C 9.55 g/m*3 12.37 C 0 km/h
2641 24-05-2019 02:00:00 11.83333 C 9.41 g/m*3 11.83 C 0 km/h
2642 24-05-2019 03:00:00 11.40833 C 9.35 g/m*3 11.41 C 0 km/h
2643 24-05-2019 04:00:00 11.25 C 9.35 g/m*3 11.25 C 0 km/h
2644 24-05-2019 05:00:00 11.16667 C 9.31 g/m*3 11.17 C 0.13333 km/h
2645 24-05-2019 06:00:00 11 C 9.3 g/m*3 11 C 0 km/h
2646 24-05-2019 07:00:00 11.71667 C 9.71 g/m*3 11.72 C 0.53333 km/h
2647 24-05-2019 08:00:00 13.29167 C 10.19 g/m*3 13.29 C 0.53333 km/h
2648 24-05-2019 09:00:00 15.28333 C 10.47 g/m*3 15.28 C 1.2 km/h
2649 24-05-2019 10:00:00 16.80833 C 10.92 g/m*3 16.81 C 0.93333 km/h
2650 24-05-2019 11:00:00 18.925 C 11.06 g/m*3 18.93 C 3.2 km/h
Sensor: Nr:Datum:Temp:Abs-Feuchte:Windchill:Wind:
Aussen-T/F 2651 24-05-2019 12:00:00 20.75833 C 10.36 g/m*3 20.76 C 5.49167 km/h
2652 24-05-2019 13:00:00 22.09167 C 9.14 g/m*3 22.09 C 6.3 km/h
2653 24-05-2019 14:00:00 22.98333 C 8.88 g/m*3 22.98 C 7.125 km/h
2654 24-05-2019 15:00:00 23.45 C 8.54 g/m*3 23.45 C 8.86667 km/h
2655 24-05-2019 16:00:00 23.88333 C 8.79 g/m*3 23.88 C 5.34167 km/h
2656 24-05-2019 17:00:00 24.26667 C 9.37 g/m*3 24.27 C 4.40833 km/h
2657 24-05-2019 18:00:00 24.40833 C 9.15 g/m*3 24.41 C 6.025 km/h
2658 24-05-2019 19:00:00 21.04167 C 10.38 g/m*3 21.04 C 5.91667 km/h
2659 24-05-2019 20:00:00 19.475 C 10.35 g/m*3 19.48 C 2.68333 km/h
2660 24-05-2019 21:00:00 16.96667 C 10.33 g/m*3 16.97 C 0 km/h
2661 24-05-2019 22:00:00 15.14167 C 10.29 g/m*3 15.14 C 0 km/h
2662 24-05-2019 23:00:00 14.06667 C 10.17 g/m*3 14.07 C 0.53333 km/h
2663 25-05-2019 00:00:00 14.75833 C 9.94 g/m*3 14.76 C 1.6 km/h
2664 25-05-2019 01:00:00 13.875 C 9.31 g/m*3 13.88 C 0 km/h
2665 25-05-2019 02:00:00 13.125 C 8.69 g/m*3 13.13 C 0.53333 km/h
2666 25-05-2019 03:00:00 12.16667 C 8.19 g/m*3 12.17 C 0.13333 km/h
2667 25-05-2019 04:00:00 10.84167 C 7.48 g/m*3 10.84 C 0 km/h
2668 25-05-2019 05:00:00 10.2 C 7.35 g/m*3 10.2 C 0 km/h
2669 25-05-2019 06:00:00 9.525 C 7.62 g/m*3 9.53 C 0.13333 km/h
2670 25-05-2019 07:00:00 10.675 C 7.88 g/m*3 10.68 C 2.54167 km/h
2671 25-05-2019 08:00:00 13.04167 C 8.21 g/m*3 13.04 C 9.15833 km/h
2672 25-05-2019 09:00:00 14.025 C 8.66 g/m*3 14.03 C 5.88333 km/h
2673 25-05-2019 10:00:00 15.3 C 8.91 g/m*3 15.3 C 4.68333 km/h
2674 25-05-2019 11:00:00 16.25 C 8.78 g/m*3 16.25 C 6.96667 km/h
2675 25-05-2019 12:00:00 16.95833 C 9.3 g/m*3 16.96 C 9.68333 km/h
Sensor: Nr:Datum:Temp:Abs-Feuchte:Windchill:Wind:
Aussen-T/F 2676 25-05-2019 13:00:00 18.45 C 9.49 g/m*3 18.45 C 9.675 km/h
2677 25-05-2019 14:00:00 19.35833 C 9.17 g/m*3 19.36 C 11.425 km/h
2678 25-05-2019 15:00:00 21.01667 C 9.31 g/m*3 21.02 C 12.76667 km/h
2679 25-05-2019 16:00:00 22.06667 C 9.09 g/m*3 22.07 C 13.16667 km/h
2680 25-05-2019 17:00:00 21.73333 C 8.79 g/m*3 21.73 C 12.76667 km/h
2681 25-05-2019 18:00:00 19.95 C 8.44 g/m*3 19.95 C 7.91667 km/h
2682 25-05-2019 19:00:00 18.875 C 8.83 g/m*3 18.88 C 6.15833 km/h
2683 25-05-2019 20:00:00 17.98333 C 9.85 g/m*3 17.98 C 1.74167 km/h
2684 25-05-2019 21:00:00 16.03333 C 9.75 g/m*3 16.03 C 0.8 km/h
2685 25-05-2019 22:00:00 14.81667 C 9.54 g/m*3 14.82 C 0 km/h
2686 25-05-2019 23:00:00 13.38333 C 9.26 g/m*3 13.38 C 0.13333 km/h
2687 26-05-2019 00:00:00 11.85 C 8.97 g/m*3 11.85 C 0 km/h
2688 26-05-2019 01:00:00 10.775 C 8.77 g/m*3 10.78 C 0.4 km/h
2689 26-05-2019 02:00:00 10.13333 C 8.62 g/m*3 10.13 C 0.4 km/h
2690 26-05-2019 03:00:00 9.44167 C 8.37 g/m*3 9.44 C 0.13333 km/h
2691 26-05-2019 04:00:00 8.95 C 8.19 g/m*3 8.95 C 1.60833 km/h
2692 26-05-2019 05:00:00 8.825 C 8.23 g/m*3 8.82 C 0.4 km/h
2693 26-05-2019 06:00:00 9.36667 C 8.53 g/m*3 9.37 C 2.00833 km/h
2694 26-05-2019 07:00:00 9.9 C 8.75 g/m*3 9.9 C 4.425 km/h
2695 26-05-2019 08:00:00 11.21667 C 9.45 g/m*3 11.22 C 1.6 km/h
2696 26-05-2019 09:00:00 14.3 C 10.38 g/m*3 14.3 C 8.46667 km/h
2697 26-05-2019 10:00:00 16.83333 C 10.43 g/m*3 16.83 C 7.93333 km/h
2698 26-05-2019 11:00:00 18.16667 C 9.86 g/m*3 18.17 C 9.95 km/h
2699 26-05-2019 12:00:00 18.99167 C 9.91 g/m*3 18.99 C 11.43333 km/h
2700 26-05-2019 13:00:00 20.275 C 10.33 g/m*3 20.27 C 12.35833 km/h
Sensor: Nr:Datum:Temp:Abs-Feuchte:Windchill:Wind:
Aussen-T/F 2701 26-05-2019 14:00:00 21.68333 C 10.07 g/m*3 21.68 C 12.76667 km/h
2702 26-05-2019 15:00:00 23.43333 C 10.34 g/m*3 23.43 C 11.56667 km/h
2703 26-05-2019 16:00:00 23.725 C 10.39 g/m*3 23.73 C 11.83333 km/h
2704 26-05-2019 17:00:00 21.91667 C 10.77 g/m*3 21.92 C 9.56667 km/h
2705 26-05-2019 18:00:00 21.45833 C 10.97 g/m*3 21.46 C 6.85 km/h
2706 26-05-2019 19:00:00 19.93333 C 11.28 g/m*3 19.93 C 1.6 km/h
2707 26-05-2019 20:00:00 18.36667 C 11.34 g/m*3 18.37 C 0.13333 km/h
2708 26-05-2019 21:00:00 17.93333 C 10.82 g/m*3 17.93 C 4.55 km/h
2709 26-05-2019 22:00:00 17.68333 C 10.86 g/m*3 17.68 C 1.46667 km/h
2710 26-05-2019 23:00:00 16.925 C 10.84 g/m*3 16.93 C 1.2 km/h
2711 27-05-2019 00:00:00 16.29167 C 10.87 g/m*3 16.29 C 1.2 km/h
2712 27-05-2019 01:00:00 15.75 C 10.85 g/m*3 15.75 C 0.13333 km/h
2713 27-05-2019 02:00:00 14.7 C 10.48 g/m*3 14.7 C 1.475 km/h
2714 27-05-2019 03:00:00 14.1 C 10.25 g/m*3 14.1 C 0.26667 km/h
2715 27-05-2019 04:00:00 13.85 C 10.44 g/m*3 13.85 C 1.86667 km/h
2716 27-05-2019 05:00:00 14.19167 C 10.98 g/m*3 14.19 C 2.00833 km/h
2717 27-05-2019 06:00:00 13.94167 C 11.16 g/m*3 13.94 C 2.95 km/h
2718 27-05-2019 07:00:00 14.20833 C 11.48 g/m*3 14.21 C 2.66667 km/h
2719 27-05-2019 08:00:00 14.94167 C 11.91 g/m*3 14.94 C 4.00833 km/h
2720 27-05-2019 09:00:00 15.61667 C 12.34 g/m*3 15.62 C 1.875 km/h
2721 27-05-2019 10:00:00 15.925 C 12.4 g/m*3 15.93 C 4.95 km/h
2722 27-05-2019 11:00:00 15.25 C 11.92 g/m*3 15.25 C 4.7 km/h
2723 27-05-2019 12:00:00 15.00833 C 11.95 g/m*3 15.01 C 1.2 km/h
2724 27-05-2019 13:00:00 14.39167 C 11.55 g/m*3 14.39 C 2.80833 km/h
2725 27-05-2019 14:00:00 14.53333 C 11.76 g/m*3 14.53 C 0.53333 km/h
Sensor: Nr:Datum:Temp:Abs-Feuchte:Windchill:Wind:
Aussen-T/F 2726 27-05-2019 15:00:00 14.825 C 11.91 g/m*3 14.83 C 0.66667 km/h
2727 27-05-2019 16:00:00 15.475 C 12.4 g/m*3 15.48 C 0.4 km/h
2728 27-05-2019 17:00:00 16.075 C 12.67 g/m*3 16.08 C 0.66667 km/h
2729 27-05-2019 18:00:00 16.275 C 12.89 g/m*3 16.27 C 0 km/h
2730 27-05-2019 19:00:00 16.73333 C 13.23 g/m*3 16.73 C 0 km/h
2731 27-05-2019 20:00:00 15.78333 C 12.32 g/m*3 15.78 C 0 km/h
2732 27-05-2019 21:00:00 14.68333 C 11.71 g/m*3 14.68 C 0 km/h
2733 27-05-2019 22:00:00 13.79167 C 11.22 g/m*3 13.79 C 0 km/h
2734 27-05-2019 23:00:00 13.4 C 11.04 g/m*3 13.4 C 0 km/h
2735 28-05-2019 00:00:00 12.96667 C 10.83 g/m*3 12.97 C 0.26667 km/h
2736 28-05-2019 01:00:00 12.45 C 10.52 g/m*3 12.45 C 0 km/h
2737 28-05-2019 02:00:00 12.55 C 10.66 g/m*3 12.55 C 0 km/h
2738 28-05-2019 03:00:00 12.41667 C 10.56 g/m*3 12.42 C 0 km/h
2739 28-05-2019 04:00:00 11.55 C 9.99 g/m*3 11.55 C 0 km/h
2740 28-05-2019 05:00:00 11.80833 C 10.21 g/m*3 11.81 C 0 km/h
2741 28-05-2019 06:00:00 12.18333 C 10.46 g/m*3 12.18 C 0 km/h
2742 28-05-2019 07:00:00 12.51667 C 10.68 g/m*3 12.52 C 0 km/h
2743 28-05-2019 08:00:00 12.84167 C 10.89 g/m*3 12.84 C 2 km/h
2744 28-05-2019 09:00:00 13.425 C 11.13 g/m*3 13.43 C 5.20833 km/h
2745 28-05-2019 10:00:00 14.74167 C 11.04 g/m*3 14.74 C 8.875 km/h
2746 28-05-2019 11:00:00 15.65 C 10.78 g/m*3 15.65 C 12.625 km/h
2747 28-05-2019 12:00:00 16.05 C 10.22 g/m*3 16.05 C 13.16667 km/h
2748 28-05-2019 13:00:00 17.49167 C 9.9 g/m*3 17.49 C 12.9 km/h
2749 28-05-2019 14:00:00 16.04167 C 9.61 g/m*3 16.04 C 15.43333 km/h
2750 28-05-2019 15:00:00 13.65833 C 9.96 g/m*3 13.66 C 5.625 km/h
Sensor: Nr:Datum:Temp:Abs-Feuchte:Windchill:Wind:
Aussen-T/F 2751 28-05-2019 16:00:00 15.80833 C 10.34 g/m*3 15.81 C 7.925 km/h
2752 28-05-2019 17:00:00 16.80833 C 9.99 g/m*3 16.81 C 9.01667 km/h
2753 28-05-2019 18:00:00 16.78333 C 9.34 g/m*3 16.78 C 12.1 km/h
2754 28-05-2019 19:00:00 16.08333 C 9.31 g/m*3 16.08 C 10.89167 km/h
2755 28-05-2019 20:00:00 14.10833 C 9.2 g/m*3 14.11 C 3.33333 km/h
2756 28-05-2019 21:00:00 13.10833 C 9.32 g/m*3 13.11 C 5.5 km/h
2757 28-05-2019 22:00:00 12.15 C 9.41 g/m*3 12.15 C 0.26667 km/h
2758 28-05-2019 23:00:00 11.78333 C 9.33 g/m*3 11.78 C 2.675 km/h
2759 29-05-2019 00:00:00 11.70833 C 8.98 g/m*3 11.71 C 2.81667 km/h
2760 29-05-2019 01:00:00 11.73333 C 9.07 g/m*3 11.73 C 2.13333 km/h
2761 29-05-2019 02:00:00 11.875 C 9.07 g/m*3 11.88 C 5.1 km/h
2762 29-05-2019 03:00:00 11.675 C 9.09 g/m*3 11.68 C 2.8 km/h
2763 29-05-2019 04:00:00 11.44167 C 8.89 g/m*3 11.44 C 4.55 km/h
2764 29-05-2019 05:00:00 11.08333 C 8.71 g/m*3 11.08 C 3.06667 km/h
2765 29-05-2019 06:00:00 10.875 C 8.6 g/m*3 10.88 C 2.93333 km/h
2766 29-05-2019 07:00:00 10.81667 C 8.52 g/m*3 10.82 C 3.875 km/h
2767 29-05-2019 08:00:00 11.225 C 8.53 g/m*3 11.23 C 6.14167 km/h
2768 29-05-2019 09:00:00 12.225 C 8.68 g/m*3 12.23 C 4.40833 km/h
2769 29-05-2019 10:00:00 13.83333 C 8.49 g/m*3 13.83 C 4.95 km/h
2770 29-05-2019 11:00:00 15.09167 C 8.22 g/m*3 15.09 C 7.11667 km/h
2771 29-05-2019 12:00:00 15.725 C 8.05 g/m*3 15.73 C 7.11667 km/h
2772 29-05-2019 13:00:00 16.48333 C 7.59 g/m*3 16.48 C 7.38333 km/h
2773 29-05-2019 14:00:00 17.40833 C 7.18 g/m*3 17.41 C 8.05 km/h
2774 29-05-2019 15:00:00 18.99167 C 7.17 g/m*3 18.99 C 7.65 km/h
2775 29-05-2019 16:00:00 20.91667 C 6.91 g/m*3 20.92 C 6.16667 km/h
Sensor: Nr:Datum:Temp:Abs-Feuchte:Windchill:Wind:
Aussen-T/F 2776 29-05-2019 17:00:00 22.38333 C 6.94 g/m*3 22.38 C 6.98333 km/h
2777 29-05-2019 18:00:00 22.1 C 7.4 g/m*3 22.1 C 6.71667 km/h
2778 29-05-2019 19:00:00 21.55 C 8.49 g/m*3 21.55 C 3.33333 km/h
2779 29-05-2019 20:00:00 18.66667 C 9.84 g/m*3 18.67 C 0 km/h
2780 29-05-2019 21:00:00 15.49167 C 8.91 g/m*3 15.49 C 0.13333 km/h
2781 29-05-2019 22:00:00 13.29167 C 8.95 g/m*3 13.29 C 0 km/h
2782 29-05-2019 23:00:00 12.91667 C 8.94 g/m*3 12.92 C 0 km/h
2783 30-05-2019 00:00:00 12.05833 C 8.69 g/m*3 12.06 C 0 km/h
2784 30-05-2019 01:00:00 11.44167 C 8.69 g/m*3 11.44 C 0 km/h
2785 30-05-2019 02:00:00 10.88333 C 8.56 g/m*3 10.88 C 0.66667 km/h
2786 30-05-2019 03:00:00 9.95 C 8.3 g/m*3 9.95 C 0 km/h
2787 30-05-2019 04:00:00 9.56667 C 8.28 g/m*3 9.57 C 0 km/h
2788 30-05-2019 05:00:00 9.1 C 8.16 g/m*3 9.1 C 0 km/h
2789 30-05-2019 06:00:00 9.71667 C 8.63 g/m*3 9.72 C 0.13333 km/h
2790 30-05-2019 07:00:00 10.925 C 9.11 g/m*3 10.93 C 1.46667 km/h
2791 30-05-2019 08:00:00 12.375 C 9.37 g/m*3 12.38 C 3.20833 km/h
2792 30-05-2019 09:00:00 14.10833 C 9.89 g/m*3 14.11 C 2.13333 km/h
2793 30-05-2019 10:00:00 16.09167 C 10.45 g/m*3 16.09 C 4.00833 km/h
2794 30-05-2019 11:00:00 18.18333 C 10.16 g/m*3 18.18 C 10.63333 km/h
2795 30-05-2019 12:00:00 18.2 C 10.18 g/m*3 18.2 C 6.98333 km/h
2796 30-05-2019 13:00:00 18.23333 C 10.91 g/m*3 18.23 C 2.8 km/h
2797 30-05-2019 14:00:00 19.425 C 11.22 g/m*3 19.43 C 10.35 km/h
2798 30-05-2019 15:00:00 21.175 C 11.91 g/m*3 21.18 C 15.83333 km/h
2799 30-05-2019 16:00:00 21.95833 C 12.18 g/m*3 21.96 C 14.23333 km/h
2800 30-05-2019 17:00:00 21.625 C 12.3 g/m*3 21.63 C 13.7 km/h
Sensor: Nr:Datum:Temp:Abs-Feuchte:Windchill:Wind:
Aussen-T/F 2801 30-05-2019 18:00:00 20.95833 C 12.4 g/m*3 20.96 C 10.625 km/h
2802 30-05-2019 19:00:00 19.95 C 12.41 g/m*3 19.95 C 6.175 km/h
2803 30-05-2019 20:00:00 18.94167 C 12.53 g/m*3 18.94 C 1.06667 km/h
2804 30-05-2019 21:00:00 17.675 C 12.33 g/m*3 17.68 C 0.13333 km/h
2805 30-05-2019 22:00:00 16.54167 C 12.06 g/m*3 16.54 C 0 km/h
2806 30-05-2019 23:00:00 15.89167 C 11.91 g/m*3 15.89 C 0 km/h
2807 31-05-2019 00:00:00 15.65 C 11.99 g/m*3 15.65 C 0.66667 km/h
2808 31-05-2019 01:00:00 15.61667 C 12.09 g/m*3 15.62 C 1.33333 km/h
2809 31-05-2019 02:00:00 15.46667 C 11.98 g/m*3 15.47 C 1.2 km/h
2810 31-05-2019 03:00:00 14.41667 C 11.39 g/m*3 14.42 C 1.33333 km/h
2811 31-05-2019 04:00:00 13.56667 C 10.95 g/m*3 13.57 C 0 km/h
2812 31-05-2019 05:00:00 12.83333 C 10.61 g/m*3 12.83 C 0 km/h
2813 31-05-2019 06:00:00 12.75 C 10.61 g/m*3 12.75 C 0 km/h
2814 31-05-2019 07:00:00 13.1 C 10.95 g/m*3 13.1 C 0 km/h
2815 31-05-2019 08:00:00 14.175 C 11.67 g/m*3 14.18 C 0 km/h
2816 31-05-2019 09:00:00 16.24167 C 12.15 g/m*3 16.24 C 6.03333 km/h
2817 31-05-2019 10:00:00 18.69167 C 11.94 g/m*3 18.69 C 6.71667 km/h
2818 31-05-2019 11:00:00 20.225 C 11.95 g/m*3 20.23 C 6.84167 km/h
2819 31-05-2019 12:00:00 21.375 C 12.23 g/m*3 21.38 C 9.025 km/h
2820 31-05-2019 13:00:00 22.725 C 12.22 g/m*3 22.73 C 10.23333 km/h
2821 31-05-2019 14:00:00 23.925 C 12.02 g/m*3 23.93 C 12.1 km/h
2822 31-05-2019 15:00:00 25.28333 C 12.06 g/m*3 25.28 C 11.025 km/h
2823 31-05-2019 16:00:00 27.3 C 11.82 g/m*3 27.3 C 9.81667 km/h
2824 31-05-2019 17:00:00 27.50833 C 11.82 g/m*3 27.51 C 9.54167 km/h
2825 31-05-2019 18:00:00 27.58333 C 11.45 g/m*3 27.58 C 7.51667 km/h
Sensor: Nr:Datum:Temp:Abs-Feuchte:Windchill:Wind:
Aussen-T/F 2826 31-05-2019 19:00:00 25.63333 C 12.3 g/m*3 25.63 C 2.54167 km/h
2827 31-05-2019 20:00:00 23.64167 C 12.51 g/m*3 23.64 C 2 km/h
2828 31-05-2019 21:00:00 20.09167 C 12.47 g/m*3 20.09 C 0 km/h
2829 31-05-2019 22:00:00 17.725 C 11.89 g/m*3 17.73 C 0 km/h
2830 31-05-2019 23:00:00 15.91667 C 11.53 g/m*3 15.92 C 0 km/h
2831 01-06-2019 00:00:00 14.65 C 11.15 g/m*3 14.65 C 0 km/h
2832 01-06-2019 01:00:00 13.91667 C 10.99 g/m*3 13.92 C 0 km/h
2833 01-06-2019 02:00:00 13.325 C 10.72 g/m*3 13.33 C 0 km/h
2834 01-06-2019 03:00:00 12.83333 C 10.52 g/m*3 12.83 C 0 km/h
2835 01-06-2019 04:00:00 12.2 C 10.14 g/m*3 12.2 C 0.13333 km/h
2836 01-06-2019 05:00:00 11.75833 C 9.96 g/m*3 11.76 C 0.13333 km/h
2837 01-06-2019 06:00:00 11.825 C 10.05 g/m*3 11.83 C 0.4 km/h
2838 01-06-2019 07:00:00 12.61667 C 10.63 g/m*3 12.62 C 2.26667 km/h
2839 01-06-2019 08:00:00 13.875 C 11.34 g/m*3 13.88 C 1.6 km/h
2840 01-06-2019 09:00:00 15.45 C 12.08 g/m*3 15.45 C 1.06667 km/h
2841 01-06-2019 10:00:00 18.14167 C 13.09 g/m*3 18.14 C 0.4 km/h
2842 01-06-2019 11:00:00 20.91667 C 13.13 g/m*3 20.92 C 4.95833 km/h
2843 01-06-2019 12:00:00 23.01667 C 13.12 g/m*3 23.02 C 10.1 km/h
2844 01-06-2019 13:00:00 24.31667 C 13.14 g/m*3 24.32 C 9.29167 km/h
2845 01-06-2019 14:00:00 25.51667 C 13.19 g/m*3 25.52 C 9.01667 km/h
2846 01-06-2019 15:00:00 27.83333 C 13.34 g/m*3 27.83 C 9.14167 km/h
2847 01-06-2019 16:00:00 29.975 C 13.22 g/m*3 29.98 C 7.925 km/h
2848 01-06-2019 17:00:00 30.09167 C 12.85 g/m*3 30.09 C 6.98333 km/h
2849 01-06-2019 18:00:00 30.23333 C 13.31 g/m*3 30.23 C 5.225 km/h
2850 01-06-2019 19:00:00 29.675 C 15.12 g/m*3 29.68 C 2.66667 km/h
Sensor: Nr:Datum:Temp:Abs-Feuchte:Windchill:Wind:
Aussen-T/F 2851 01-06-2019 20:00:00 26.65833 C 14.88 g/m*3 26.66 C 0.26667 km/h
2852 01-06-2019 21:00:00 22.7 C 13.74 g/m*3 22.7 C 0 km/h
2853 01-06-2019 22:00:00 20.00833 C 13.16 g/m*3 20.01 C 0 km/h
2854 01-06-2019 23:00:00 18.20833 C 12.79 g/m*3 18.21 C 0 km/h
2855 02-06-2019 00:00:00 16.75833 C 12.34 g/m*3 16.76 C 0 km/h
2856 02-06-2019 01:00:00 15.66667 C 11.93 g/m*3 15.67 C 0 km/h
2857 02-06-2019 02:00:00 14.925 C 11.71 g/m*3 14.93 C 0 km/h
2858 02-06-2019 03:00:00 14.325 C 11.44 g/m*3 14.33 C 0 km/h
2859 02-06-2019 04:00:00 13.81667 C 11.2 g/m*3 13.82 C 0 km/h
2860 02-06-2019 05:00:00 13.29167 C 10.92 g/m*3 13.29 C 0 km/h
2861 02-06-2019 06:00:00 13.40833 C 11.09 g/m*3 13.41 C 0 km/h
2862 02-06-2019 07:00:00 13.95833 C 11.54 g/m*3 13.96 C 0.26667 km/h
2863 02-06-2019 08:00:00 15.03333 C 12.33 g/m*3 15.03 C 0.13333 km/h
2864 02-06-2019 09:00:00 16.60833 C 13.56 g/m*3 16.61 C 0 km/h
2865 02-06-2019 10:00:00 19.64167 C 15.01 g/m*3 19.64 C 0 km/h
2866 02-06-2019 11:00:00 23.11667 C 15.97 g/m*3 23.12 C 0.53333 km/h
2867 02-06-2019 12:00:00 26.66667 C 14.61 g/m*3 26.67 C 1.46667 km/h
2868 02-06-2019 13:00:00 27.96667 C 12.58 g/m*3 27.97 C 10.35 km/h
2869 02-06-2019 14:00:00 29.1 C 13.16 g/m*3 29.1 C 10.75833 km/h
2870 02-06-2019 15:00:00 31.04167 C 13.6 g/m*3 31.04 C 10.35833 km/h
2871 02-06-2019 16:00:00 32.76667 C 13.1 g/m*3 32.77 C 11.01667 km/h
2872 02-06-2019 17:00:00 33.1 C 13.33 g/m*3 33.1 C 8.2 km/h
2873 02-06-2019 18:00:00 33 C 13.5 g/m*3 33 C 6.84167 km/h
2874 02-06-2019 19:00:00 32.23333 C 13.67 g/m*3 32.23 C 2.675 km/h
2875 02-06-2019 20:00:00 28.7 C 13.99 g/m*3 28.7 C 1.2 km/h
Sensor: Nr:Datum:Temp:Abs-Feuchte:Windchill:Wind:
Aussen-T/F 2876 02-06-2019 21:00:00 24.375 C 12.96 g/m*3 24.38 C 0.8 km/h
2877 02-06-2019 22:00:00 21.35833 C 12.7 g/m*3 21.36 C 0.4 km/h
2878 02-06-2019 23:00:00 19.30833 C 12.42 g/m*3 19.31 C 0 km/h
2879 03-06-2019 00:00:00 17.75833 C 12.09 g/m*3 17.76 C 0 km/h
2880 03-06-2019 01:00:00 16.825 C 11.79 g/m*3 16.83 C 0 km/h
2881 03-06-2019 02:00:00 16.15 C 11.67 g/m*3 16.15 C 0 km/h
2882 03-06-2019 03:00:00 15.51667 C 11.59 g/m*3 15.52 C 0 km/h
2883 03-06-2019 04:00:00 14.84167 C 11.42 g/m*3 14.84 C 0 km/h
2884 03-06-2019 05:00:00 14.775 C 11.62 g/m*3 14.78 C 0 km/h
2885 03-06-2019 06:00:00 15.23333 C 11.97 g/m*3 15.23 C 0 km/h
2886 03-06-2019 07:00:00 16.11667 C 12.57 g/m*3 16.12 C 0 km/h
2887 03-06-2019 08:00:00 17.63333 C 13.32 g/m*3 17.63 C 0 km/h
2888 03-06-2019 09:00:00 20.30833 C 15 g/m*3 20.31 C 0 km/h
2889 03-06-2019 10:00:00 21.325 C 16.16 g/m*3 21.33 C 0 km/h
2890 03-06-2019 11:00:00 23.475 C 15.75 g/m*3 23.48 C 3.20833 km/h
2891 03-06-2019 12:00:00 26.39167 C 14.87 g/m*3 26.39 C 9.41667 km/h
2892 03-06-2019 13:00:00 27.69167 C 14.1 g/m*3 27.69 C 12.75833 km/h
2893 03-06-2019 14:00:00 28.44167 C 11.28 g/m*3 28.44 C 16.5 km/h
2894 03-06-2019 15:00:00 29.40833 C 10.28 g/m*3 29.41 C 15.83333 km/h
2895 03-06-2019 16:00:00 26.71667 C 11.68 g/m*3 26.72 C 5.36667 km/h
2896 03-06-2019 17:00:00 25.15833 C 13.45 g/m*3 25.16 C 9.29167 km/h
2897 03-06-2019 18:00:00 23.71667 C 13.68 g/m*3 23.72 C 8.75 km/h
2898 03-06-2019 19:00:00 22.66667 C 13.73 g/m*3 22.67 C 1.73333 km/h
2899 03-06-2019 20:00:00 22.29167 C 13.82 g/m*3 22.29 C 1.46667 km/h
2900 03-06-2019 21:00:00 20.63333 C 13.37 g/m*3 20.63 C 0 km/h
Sensor: Nr:Datum:Temp:Abs-Feuchte:Windchill:Wind:
Aussen-T/F 2901 03-06-2019 22:00:00 19.40833 C 12.98 g/m*3 19.41 C 0 km/h
2902 03-06-2019 23:00:00 18.06667 C 12.58 g/m*3 18.07 C 0 km/h
2903 04-06-2019 00:00:00 16.71667 C 12.31 g/m*3 16.72 C 0 km/h
2904 04-06-2019 01:00:00 15.84167 C 12.11 g/m*3 15.84 C 0 km/h
2905 04-06-2019 02:00:00 15.15 C 11.88 g/m*3 15.15 C 0 km/h
2906 04-06-2019 03:00:00 14.41667 C 11.5 g/m*3 14.42 C 0 km/h
2907 04-06-2019 04:00:00 13.65833 C 11.04 g/m*3 13.66 C 0 km/h
2908 04-06-2019 05:00:00 13.2 C 10.82 g/m*3 13.2 C 0.26667 km/h
2909 04-06-2019 06:00:00 13.275 C 10.98 g/m*3 13.28 C 0.13333 km/h
2910 04-06-2019 07:00:00 14.525 C 11.83 g/m*3 14.53 C 0 km/h
2911 04-06-2019 08:00:00 16.05 C 12.56 g/m*3 16.05 C 1.33333 km/h
2912 04-06-2019 09:00:00 17.45 C 13.18 g/m*3 17.45 C 2.13333 km/h
2913 04-06-2019 10:00:00 20.16667 C 13.73 g/m*3 20.17 C 7.65 km/h
2914 04-06-2019 11:00:00 22.35833 C 14.08 g/m*3 22.36 C 10.1 km/h
2915 04-06-2019 12:00:00 23.89167 C 14.74 g/m*3 23.89 C 9.28333 km/h
2916 04-06-2019 13:00:00 25.74167 C 14.5 g/m*3 25.74 C 9.00833 km/h
2917 04-06-2019 14:00:00 27.4 C 14.36 g/m*3 27.4 C 8.74167 km/h
2918 04-06-2019 15:00:00 28.7 C 14.76 g/m*3 28.7 C 7.36667 km/h
2919 04-06-2019 16:00:00 30.56667 C 15.5 g/m*3 30.57 C 7.93333 km/h
2920 04-06-2019 17:00:00 31.925 C 14.93 g/m*3 31.93 C 7.375 km/h
2921 04-06-2019 18:00:00 31.24167 C 15.37 g/m*3 31.24 C 6.175 km/h
2922 04-06-2019 19:00:00 29.25 C 15.99 g/m*3 29.25 C 2.8 km/h
2923 04-06-2019 20:00:00 26.51667 C 15.68 g/m*3 26.52 C 0.13333 km/h
2924 04-06-2019 21:00:00 23.36667 C 14.2 g/m*3 23.37 C 0 km/h
2925 04-06-2019 22:00:00 22.025 C 13.74 g/m*3 22.03 C 0.26667 km/h
Sensor: Nr:Datum:Temp:Abs-Feuchte:Windchill:Wind:
Aussen-T/F 2926 04-06-2019 23:00:00 22.70833 C 13.11 g/m*3 22.71 C 4.275 km/h
2927 05-06-2019 00:00:00 23.28333 C 13.16 g/m*3 23.28 C 3.48333 km/h
2928 05-06-2019 01:00:00 21.33333 C 13.06 g/m*3 21.33 C 0 km/h
2929 05-06-2019 02:00:00 20.575 C 13.25 g/m*3 20.58 C 0 km/h
2930 05-06-2019 03:00:00 19.35 C 12.95 g/m*3 19.35 C 0 km/h
2931 05-06-2019 04:00:00 18.80833 C 12.93 g/m*3 18.81 C 0.13333 km/h
2932 05-06-2019 05:00:00 17.44167 C 12.46 g/m*3 17.44 C 2.15 km/h
2933 05-06-2019 06:00:00 17.69167 C 12.86 g/m*3 17.69 C 3.475 km/h
2934 05-06-2019 07:00:00 17.98333 C 13.29 g/m*3 17.98 C 0 km/h
2935 05-06-2019 08:00:00 18.38333 C 13.83 g/m*3 18.38 C 0.26667 km/h
2936 05-06-2019 09:00:00 21.025 C 14.02 g/m*3 21.03 C 6.575 km/h
2937 05-06-2019 10:00:00 22.73333 C 14.29 g/m*3 22.73 C 3.73333 km/h
2938 05-06-2019 11:00:00 23.64167 C 14.14 g/m*3 23.64 C 3.46667 km/h
2939 05-06-2019 12:00:00 24.34167 C 14.03 g/m*3 24.34 C 4.81667 km/h
2940 05-06-2019 13:00:00 25.925 C 14.59 g/m*3 25.93 C 8.05833 km/h
2941 05-06-2019 14:00:00 27.25833 C 14.64 g/m*3 27.26 C 11.16667 km/h
2942 05-06-2019 15:00:00 29.5 C 14.63 g/m*3 29.5 C 9.41667 km/h
2943 05-06-2019 16:00:00 31.35 C 13.61 g/m*3 31.35 C 6.575 km/h
2944 05-06-2019 17:00:00 30.43333 C 14.51 g/m*3 30.43 C 3.46667 km/h
2945 05-06-2019 18:00:00 28.60833 C 15.79 g/m*3 28.61 C 0 km/h
2946 05-06-2019 19:00:00 29.73333 C 16.34 g/m*3 29.73 C 0 km/h
2947 05-06-2019 20:00:00 27.55833 C 15.02 g/m*3 27.56 C 0 km/h
2948 05-06-2019 21:00:00 23.44167 C 14.4 g/m*3 23.44 C 0 km/h
2949 05-06-2019 22:00:00 21.625 C 14.37 g/m*3 21.63 C 0 km/h
2950 05-06-2019 23:00:00 20.83333 C 14.01 g/m*3 20.83 C 0 km/h
Sensor: Nr:Datum:Temp:Abs-Feuchte:Windchill:Wind:
Aussen-T/F 2951 06-06-2019 00:00:00 21.575 C 13.11 g/m*3 21.58 C 15.69167 km/h
2952 06-06-2019 01:00:00 18.925 C 13.24 g/m*3 18.93 C 8.85 km/h
2953 06-06-2019 02:00:00 17.10833 C 13.39 g/m*3 17.11 C 0.8 km/h
2954 06-06-2019 03:00:00 16.70833 C 13.32 g/m*3 16.71 C 0.8 km/h
2955 06-06-2019 04:00:00 16.48333 C 13.27 g/m*3 16.48 C 0.66667 km/h
2956 06-06-2019 05:00:00 15.51667 C 12.39 g/m*3 15.52 C 12.89167 km/h
2957 06-06-2019 06:00:00 13.94167 C 11.1 g/m*3 13.94 C 14.36667 km/h
2958 06-06-2019 07:00:00 13.19167 C 10.29 g/m*3 13.19 C 11.29167 km/h
2959 06-06-2019 08:00:00 13.325 C 9.79 g/m*3 13.33 C 14.75833 km/h
2960 06-06-2019 09:00:00 13.10833 C 9.27 g/m*3 13.11 C 10.06667 km/h
2961 06-06-2019 10:00:00 13.80833 C 9.54 g/m*3 13.81 C 7.65 km/h
2962 06-06-2019 11:00:00 14.93333 C 9.64 g/m*3 14.93 C 8.6 km/h
2963 06-06-2019 12:00:00 15.40833 C 9.63 g/m*3 15.41 C 11.3 km/h
2964 06-06-2019 13:00:00 16.49167 C 9.73 g/m*3 16.49 C 13.03333 km/h
2965 06-06-2019 14:00:00 17.025 C 9.88 g/m*3 17.02 C 11.29167 km/h
2966 06-06-2019 15:00:00 17.75833 C 10.06 g/m*3 17.76 C 12.76667 km/h
2967 06-06-2019 16:00:00 18 C 10.06 g/m*3 18 C 11.56667 km/h
2968 06-06-2019 17:00:00 16.73333 C 9.85 g/m*3 16.73 C 9.4 km/h
2969 06-06-2019 18:00:00 16.975 C 10.1 g/m*3 16.98 C 9.55 km/h
2970 06-06-2019 19:00:00 18.26667 C 9.92 g/m*3 18.27 C 9.425 km/h
2971 06-06-2019 20:00:00 17.725 C 9.87 g/m*3 17.73 C 4.41667 km/h
2972 06-06-2019 21:00:00 15.43333 C 9.93 g/m*3 15.43 C 0 km/h
2973 06-06-2019 22:00:00 12.75 C 9.36 g/m*3 12.75 C 0 km/h
2974 06-06-2019 23:00:00 11.43333 C 9 g/m*3 11.43 C 0 km/h
2975 07-06-2019 00:00:00 10.475 C 8.76 g/m*3 10.48 C 0 km/h
Sensor: Nr:Datum:Temp:Abs-Feuchte:Windchill:Wind:
Aussen-T/F 2976 07-06-2019 01:00:00 9.875 C 8.59 g/m*3 9.88 C 0 km/h
2977 07-06-2019 02:00:00 9.425 C 8.43 g/m*3 9.43 C 0 km/h
2978 07-06-2019 03:00:00 9.56667 C 8.64 g/m*3 9.57 C 0 km/h
2979 07-06-2019 04:00:00 10.13333 C 8.97 g/m*3 10.13 C 0 km/h
2980 07-06-2019 05:00:00 9.23333 C 8.44 g/m*3 9.23 C 0 km/h
2981 07-06-2019 06:00:00 9.60833 C 8.78 g/m*3 9.61 C 0 km/h
2982 07-06-2019 07:00:00 10.38333 C 9.24 g/m*3 10.38 C 1.06667 km/h
2983 07-06-2019 08:00:00 11.86667 C 9.78 g/m*3 11.87 C 7.64167 km/h
2984 07-06-2019 09:00:00 13.75833 C 10 g/m*3 13.76 C 11.29167 km/h
2985 07-06-2019 10:00:00 16.65 C 10.74 g/m*3 16.65 C 8.85833 km/h
2986 07-06-2019 11:00:00 18.75833 C 10.52 g/m*3 18.76 C 9.81667 km/h
2987 07-06-2019 12:00:00 19.9 C 10.9 g/m*3 19.9 C 9.55833 km/h
2988 07-06-2019 13:00:00 20.89167 C 11.71 g/m*3 20.89 C 6.84167 km/h
2989 07-06-2019 14:00:00 21.09167 C 12.55 g/m*3 21.09 C 4.56667 km/h
2990 07-06-2019 15:00:00 24.175 C 12.56 g/m*3 24.18 C 9.41667 km/h
2991 07-06-2019 16:00:00 25.96667 C 12.29 g/m*3 25.97 C 7.8 km/h
2992 07-06-2019 17:00:00 25.36667 C 13.61 g/m*3 25.37 C 4.95833 km/h
2993 07-06-2019 18:00:00 21.74167 C 11.2 g/m*3 21.74 C 25.73333 km/h
2994 07-06-2019 19:00:00 17.18333 C 9.17 g/m*3 17.18 C 22.13333 km/h
2995 07-06-2019 20:00:00 15.41667 C 9.43 g/m*3 15.42 C 13.68333 km/h
2996 07-06-2019 21:00:00 14.95 C 9.32 g/m*3 14.95 C 3.86667 km/h
2997 07-06-2019 22:00:00 14.8 C 8.85 g/m*3 14.8 C 2.80833 km/h
2998 07-06-2019 23:00:00 15.125 C 8.59 g/m*3 15.13 C 5.89167 km/h
2999 08-06-2019 00:00:00 15.46667 C 8.76 g/m*3 15.47 C 10.35 km/h
3000 08-06-2019 01:00:00 15.61667 C 8.69 g/m*3 15.62 C 13.3 km/h
Sensor: Nr:Datum:Temp:Abs-Feuchte:Windchill:Wind:
Aussen-T/F 3001 08-06-2019 02:00:00 15.34167 C 8.78 g/m*3 15.34 C 8.45 km/h
3002 08-06-2019 03:00:00 15.06667 C 8.63 g/m*3 15.07 C 8.05833 km/h
3003 08-06-2019 04:00:00 14.86667 C 8.14 g/m*3 14.87 C 12.88333 km/h
3004 08-06-2019 05:00:00 14.10833 C 7.69 g/m*3 14.11 C 15.69167 km/h
3005 08-06-2019 06:00:00 13.325 C 7.72 g/m*3 13.33 C 15.825 km/h
3006 08-06-2019 07:00:00 13.69167 C 7.75 g/m*3 13.69 C 19.43333 km/h
3007 08-06-2019 08:00:00 14.29167 C 8.02 g/m*3 14.29 C 17.96667 km/h
3008 08-06-2019 09:00:00 14.575 C 8.26 g/m*3 14.58 C 12.35833 km/h
3009 08-06-2019 10:00:00 14.90833 C 8.49 g/m*3 14.91 C 14.225 km/h
3010 08-06-2019 11:00:00 15.70833 C 8.59 g/m*3 15.71 C 12.89167 km/h
3011 08-06-2019 12:00:00 16.525 C 8.65 g/m*3 16.52 C 14.23333 km/h
3012 08-06-2019 13:00:00 17.38333 C 8.54 g/m*3 17.38 C 17.56667 km/h
3013 08-06-2019 14:00:00 18.325 C 8.73 g/m*3 18.33 C 15.03333 km/h
3014 08-06-2019 15:00:00 19.15 C 8.63 g/m*3 19.15 C 15.16667 km/h
3015 08-06-2019 16:00:00 19.65833 C 8.61 g/m*3 19.66 C 15.03333 km/h
3016 08-06-2019 17:00:00 19.925 C 8.52 g/m*3 19.93 C 14.9 km/h
3017 08-06-2019 18:00:00 19.95833 C 8.52 g/m*3 19.96 C 12.475 km/h
3018 08-06-2019 19:00:00 18.98333 C 8.87 g/m*3 18.98 C 13.16667 km/h
3019 08-06-2019 20:00:00 17.61667 C 9.35 g/m*3 17.62 C 2.275 km/h
3020 08-06-2019 21:00:00 16.11667 C 9.6 g/m*3 16.12 C 2.675 km/h
3021 08-06-2019 22:00:00 14.39167 C 9.21 g/m*3 14.39 C 0.66667 km/h
3022 08-06-2019 23:00:00 12.65833 C 8.95 g/m*3 12.66 C 0.8 km/h
3023 09-06-2019 00:00:00 11.66667 C 8.84 g/m*3 11.67 C 0.26667 km/h
3024 09-06-2019 01:00:00 11.08333 C 8.75 g/m*3 11.08 C 2.13333 km/h
3025 09-06-2019 02:00:00 10.925 C 8.7 g/m*3 10.93 C 1.46667 km/h
Sensor: Nr:Datum:Temp:Abs-Feuchte:Windchill:Wind:
Aussen-T/F 3026 09-06-2019 03:00:00 10.28333 C 8.52 g/m*3 10.28 C 0 km/h
3027 09-06-2019 04:00:00 9.4 C 8.17 g/m*3 9.4 C 0 km/h
3028 09-06-2019 05:00:00 8.675 C 7.97 g/m*3 8.68 C 0 km/h
3029 09-06-2019 06:00:00 8.63333 C 8.04 g/m*3 8.63 C 0 km/h
3030 09-06-2019 07:00:00 9.68333 C 8.7 g/m*3 9.68 C 0.13333 km/h
3031 09-06-2019 08:00:00 11.03333 C 9.45 g/m*3 11.03 C 0 km/h
3032 09-06-2019 09:00:00 12.80833 C 10.18 g/m*3 12.81 C 0 km/h
3033 09-06-2019 10:00:00 16.55 C 10.28 g/m*3 16.55 C 4.43333 km/h
3034 09-06-2019 11:00:00 18.86667 C 9.31 g/m*3 18.87 C 5.75833 km/h
3035 09-06-2019 12:00:00 19.76667 C 9.15 g/m*3 19.77 C 7.925 km/h
3036 09-06-2019 13:00:00 20.71667 C 9.31 g/m*3 20.72 C 10.75 km/h
3037 09-06-2019 14:00:00 21.925 C 9.76 g/m*3 21.93 C 9.13333 km/h
3038 09-06-2019 15:00:00 22.45833 C 10.03 g/m*3 22.46 C 9.425 km/h
3039 09-06-2019 16:00:00 22.79167 C 10.29 g/m*3 22.79 C 9.14167 km/h
3040 09-06-2019 17:00:00 22.7 C 10.42 g/m*3 22.7 C 7.65833 km/h
3041 09-06-2019 18:00:00 23.09167 C 10.42 g/m*3 23.09 C 9.95 km/h
3042 09-06-2019 19:00:00 21.64167 C 12.07 g/m*3 21.64 C 0 km/h
3043 09-06-2019 20:00:00 19.74167 C 11.76 g/m*3 19.74 C 0 km/h
3044 09-06-2019 21:00:00 18.86667 C 11.67 g/m*3 18.87 C 0 km/h
3045 09-06-2019 22:00:00 18.36667 C 11.71 g/m*3 18.37 C 0 km/h
3046 09-06-2019 23:00:00 17.95 C 11.66 g/m*3 17.95 C 0 km/h
3047 10-06-2019 00:00:00 17.525 C 11.62 g/m*3 17.52 C 0 km/h
3048 10-06-2019 01:00:00 16.95833 C 11.21 g/m*3 16.96 C 0 km/h
3049 10-06-2019 02:00:00 16.08333 C 10.92 g/m*3 16.08 C 0 km/h
3050 10-06-2019 03:00:00 14.94167 C 10.83 g/m*3 14.94 C 0 km/h
Sensor: Nr:Datum:Temp:Abs-Feuchte:Windchill:Wind:
Aussen-T/F 3051 10-06-2019 04:00:00 14.625 C 10.84 g/m*3 14.63 C 0.675 km/h
3052 10-06-2019 05:00:00 14.775 C 11.07 g/m*3 14.78 C 0.4 km/h
3053 10-06-2019 06:00:00 14.825 C 11.23 g/m*3 14.83 C 0 km/h
3054 10-06-2019 07:00:00 15.5 C 11.56 g/m*3 15.5 C 2.13333 km/h
3055 10-06-2019 08:00:00 17.725 C 12.13 g/m*3 17.73 C 3.34167 km/h
3056 10-06-2019 09:00:00 18.94167 C 12.32 g/m*3 18.94 C 9.83333 km/h
3057 10-06-2019 10:00:00 19.85 C 12.53 g/m*3 19.85 C 8.34167 km/h
3058 10-06-2019 11:00:00 21.15833 C 12.66 g/m*3 21.16 C 8.45833 km/h
3059 10-06-2019 12:00:00 22.34167 C 12.6 g/m*3 22.34 C 6.45 km/h
3060 10-06-2019 13:00:00 23.06667 C 12.71 g/m*3 23.07 C 5.9 km/h
3061 10-06-2019 14:00:00 23.225 C 13.03 g/m*3 23.23 C 10.625 km/h
3062 10-06-2019 15:00:00 23.225 C 13.1 g/m*3 23.23 C 8.34167 km/h
3063 10-06-2019 16:00:00 24.06667 C 13.07 g/m*3 24.07 C 5.9 km/h
3064 10-06-2019 17:00:00 23.65 C 12.96 g/m*3 23.65 C 3.6 km/h
3065 10-06-2019 18:00:00 23.19167 C 12.87 g/m*3 23.19 C 6.70833 km/h
3066 10-06-2019 19:00:00 21.7 C 12.34 g/m*3 21.7 C 5.09167 km/h
3067 10-06-2019 20:00:00 20.61667 C 12.53 g/m*3 20.62 C 0.8 km/h
3068 10-06-2019 21:00:00 19.38333 C 12.45 g/m*3 19.38 C 5.775 km/h
3069 10-06-2019 22:00:00 17.975 C 12.19 g/m*3 17.98 C 6.575 km/h
3070 10-06-2019 23:00:00 17.09167 C 12 g/m*3 17.09 C 2.8 km/h
3071 11-06-2019 00:00:00 16.55833 C 12.05 g/m*3 16.56 C 3.075 km/h
3072 11-06-2019 01:00:00 16.38333 C 12.11 g/m*3 16.38 C 4.14167 km/h
3073 11-06-2019 02:00:00 16.15833 C 11.86 g/m*3 16.16 C 0.8 km/h
3074 11-06-2019 03:00:00 15.29167 C 11.83 g/m*3 15.29 C 0.66667 km/h
3075 11-06-2019 04:00:00 14.6 C 11.65 g/m*3 14.6 C 0.4 km/h
Sensor: Nr:Datum:Temp:Abs-Feuchte:Windchill:Wind:
Aussen-T/F 3076 11-06-2019 05:00:00 14.21667 C 11.49 g/m*3 14.22 C 0 km/h
3077 11-06-2019 06:00:00 14.15833 C 11.55 g/m*3 14.16 C 0 km/h
3078 11-06-2019 07:00:00 14.5 C 11.86 g/m*3 14.5 C 0 km/h
3079 11-06-2019 08:00:00 15.01667 C 12.27 g/m*3 15.02 C 0.26667 km/h
3080 11-06-2019 09:00:00 15.34167 C 12.28 g/m*3 15.34 C 1.06667 km/h
3081 11-06-2019 10:00:00 16.16667 C 12.49 g/m*3 16.17 C 1.20833 km/h
3082 11-06-2019 11:00:00 16.925 C 12.28 g/m*3 16.93 C 2 km/h
3083 11-06-2019 12:00:00 17.81667 C 11.94 g/m*3 17.82 C 2.26667 km/h
3084 11-06-2019 13:00:00 19.09167 C 11.78 g/m*3 19.09 C 4.93333 km/h
3085 11-06-2019 14:00:00 20.24167 C 11.58 g/m*3 20.24 C 5.09167 km/h
3086 11-06-2019 15:00:00 21.31667 C 11.54 g/m*3 21.32 C 5.48333 km/h
3087 11-06-2019 16:00:00 20.94167 C 12.14 g/m*3 20.94 C 1.6 km/h
3088 11-06-2019 17:00:00 19.28333 C 13.15 g/m*3 19.28 C 0.13333 km/h
3089 11-06-2019 18:00:00 18.75833 C 13.2 g/m*3 18.76 C 0.13333 km/h
3090 11-06-2019 19:00:00 20.35 C 12.52 g/m*3 20.35 C 4.825 km/h
3091 11-06-2019 20:00:00 19.19167 C 13.16 g/m*3 19.19 C 0 km/h
3092 11-06-2019 21:00:00 17.76667 C 12.6 g/m*3 17.77 C 0 km/h
3093 11-06-2019 22:00:00 16.79167 C 12.11 g/m*3 16.79 C 0 km/h
3094 11-06-2019 23:00:00 15.70833 C 11.58 g/m*3 15.71 C 0.13333 km/h
3095 12-06-2019 00:00:00 15.16667 C 11.27 g/m*3 15.17 C 0 km/h
3096 12-06-2019 01:00:00 14.39167 C 10.98 g/m*3 14.39 C 0.4 km/h
3097 12-06-2019 02:00:00 14.59167 C 11.26 g/m*3 14.59 C 0 km/h
3098 12-06-2019 03:00:00 14.525 C 11.3 g/m*3 14.53 C 0 km/h
3099 12-06-2019 04:00:00 14.39167 C 11.24 g/m*3 14.39 C 0 km/h
3100 12-06-2019 05:00:00 14.125 C 11.15 g/m*3 14.13 C 0.26667 km/h
Sensor: Nr:Datum:Temp:Abs-Feuchte:Windchill:Wind:
Aussen-T/F 3101 12-06-2019 06:00:00 13.95833 C 11.12 g/m*3 13.96 C 0.93333 km/h
3102 12-06-2019 07:00:00 14.875 C 11.62 g/m*3 14.88 C 2.53333 km/h
3103 12-06-2019 08:00:00 15.81667 C 11.95 g/m*3 15.82 C 3.075 km/h
3104 12-06-2019 09:00:00 16.53333 C 12.08 g/m*3 16.53 C 5.23333 km/h
3105 12-06-2019 10:00:00 15.15 C 11.89 g/m*3 15.15 C 7.65 km/h
3106 12-06-2019 11:00:00 13.975 C 11.25 g/m*3 13.98 C 9.65833 km/h
3107 12-06-2019 12:00:00 14.40833 C 11.75 g/m*3 14.41 C 1.875 km/h
3108 12-06-2019 13:00:00 15.325 C 12.16 g/m*3 15.33 C 6.3 km/h
3109 12-06-2019 14:00:00 17.175 C 12.27 g/m*3 17.18 C 10.46667 km/h
3110 12-06-2019 15:00:00 18.2 C 12.11 g/m*3 18.2 C 10.21667 km/h
3111 12-06-2019 16:00:00 20.125 C 11.59 g/m*3 20.13 C 10.76667 km/h
3112 12-06-2019 17:00:00 21.81667 C 11.33 g/m*3 21.82 C 12.1 km/h
3113 12-06-2019 18:00:00 22.64167 C 10.86 g/m*3 22.64 C 9.025 km/h
3114 12-06-2019 19:00:00 21.925 C 10.26 g/m*3 21.93 C 10.5 km/h
3115 12-06-2019 20:00:00 21.23333 C 11.67 g/m*3 21.23 C 1.20833 km/h
3116 12-06-2019 21:00:00 17.83333 C 11.33 g/m*3 17.83 C 0 km/h
3117 12-06-2019 22:00:00 14.38333 C 10.47 g/m*3 14.38 C 0 km/h
3118 12-06-2019 23:00:00 13.15833 C 10.11 g/m*3 13.16 C 0 km/h
3119 13-06-2019 00:00:00 12.55833 C 9.88 g/m*3 12.56 C 0 km/h
3120 13-06-2019 01:00:00 11.68333 C 9.48 g/m*3 11.68 C 0 km/h
3121 13-06-2019 02:00:00 10.9 C 9.19 g/m*3 10.9 C 0 km/h
3122 13-06-2019 03:00:00 10.29167 C 8.96 g/m*3 10.29 C 0 km/h
3123 13-06-2019 04:00:00 9.775 C 8.71 g/m*3 9.78 C 0 km/h
3124 13-06-2019 05:00:00 9.45833 C 8.62 g/m*3 9.46 C 0 km/h
3125 13-06-2019 06:00:00 9.50833 C 8.68 g/m*3 9.51 C 0 km/h
Sensor: Nr:Datum:Temp:Abs-Feuchte:Windchill:Wind:
Aussen-T/F 3126 13-06-2019 07:00:00 10.31667 C 9.2 g/m*3 10.32 C 0.26667 km/h
3127 13-06-2019 08:00:00 11.75 C 10.04 g/m*3 11.75 C 1.6 km/h
3128 13-06-2019 09:00:00 15.15833 C 10.24 g/m*3 15.16 C 7.38333 km/h
3129 13-06-2019 10:00:00 17.91667 C 9.95 g/m*3 17.92 C 10.075 km/h
3130 13-06-2019 11:00:00 19.15 C 10 g/m*3 19.15 C 13.16667 km/h
3131 13-06-2019 12:00:00 19.41667 C 9.52 g/m*3 19.42 C 11.825 km/h
3132 13-06-2019 13:00:00 20.875 C 9.7 g/m*3 20.88 C 12.1 km/h
3133 13-06-2019 14:00:00 21.26667 C 9.52 g/m*3 21.27 C 10.625 km/h
3134 13-06-2019 15:00:00 22.13333 C 9.52 g/m*3 22.13 C 12.63333 km/h
3135 13-06-2019 16:00:00 23.85833 C 9.12 g/m*3 23.86 C 16.23333 km/h
3136 13-06-2019 17:00:00 24.41667 C 9.26 g/m*3 24.42 C 14.23333 km/h
3137 13-06-2019 18:00:00 24.325 C 9.55 g/m*3 24.33 C 10.075 km/h
3138 13-06-2019 19:00:00 20.40833 C 11.56 g/m*3 20.41 C 6.43333 km/h
3139 13-06-2019 20:00:00 15.975 C 12.18 g/m*3 15.98 C 1.86667 km/h
3140 13-06-2019 21:00:00 15.11667 C 11.49 g/m*3 15.12 C 0.13333 km/h
3141 13-06-2019 22:00:00 13.21667 C 10.54 g/m*3 13.22 C 0 km/h
3142 13-06-2019 23:00:00 12.78333 C 10.5 g/m*3 12.78 C 0 km/h
3143 14-06-2019 00:00:00 12.06667 C 10.08 g/m*3 12.07 C 0 km/h
3144 14-06-2019 01:00:00 11.73333 C 9.97 g/m*3 11.73 C 0 km/h
3145 14-06-2019 02:00:00 12.16667 C 10.34 g/m*3 12.17 C 0.26667 km/h
3146 14-06-2019 03:00:00 12.00833 C 10.24 g/m*3 12.01 C 0.93333 km/h
3147 14-06-2019 04:00:00 11.59167 C 9.97 g/m*3 11.59 C 0.4 km/h
3148 14-06-2019 05:00:00 11.41667 C 9.91 g/m*3 11.42 C 1.2 km/h
3149 14-06-2019 06:00:00 11.33333 C 9.89 g/m*3 11.33 C 1.33333 km/h
3150 14-06-2019 07:00:00 11.43333 C 9.98 g/m*3 11.43 C 0.66667 km/h
Sensor: Nr:Datum:Temp:Abs-Feuchte:Windchill:Wind:
Aussen-T/F 3151 14-06-2019 08:00:00 12.15 C 10.43 g/m*3 12.15 C 0 km/h
3152 14-06-2019 09:00:00 14.29167 C 12.01 g/m*3 14.29 C 0 km/h
3153 14-06-2019 10:00:00 </